<?xml version="1.0" encoding="UTF-8" standalone="no" ?>
<gpx xmlns="http://www.topografix.com/GPX/1/1" xmlns:xsi="http://www.w3.org/2001/XMLSchema-instance" xsi:schemaLocation="http://www.topografix.com/GPX/1/1 http://www.topografix.com/GPX/1/1/gpx.xsd" version="1.1" creator="VisuGPX - https://www.visugpx.com">
  <metadata>
    <name>Trail du Férion - 28km</name>
    <desc><![CDATA[20 mars 2011
28km, 1300m D ]]></desc>
  </metadata>
  <trk>
    <name><![CDATA[Trail du Férion]]></name>
    <cmt><![CDATA[22e / 63]]></cmt>
    <trkseg>
      <trkpt lat="43.88273" lon="7.35915">
        <ele>649.03002929688</ele>
        <time>2011-03-20T08:09:28Z</time>
      </trkpt>
      <trkpt lat="43.88273" lon="7.35915">
        <ele>651.90997314453</ele>
        <time>2011-03-20T08:09:29Z</time>
      </trkpt>
      <trkpt lat="43.88274" lon="7.35925">
        <ele>650.46997070312</ele>
        <time>2011-03-20T08:09:36Z</time>
      </trkpt>
      <trkpt lat="43.88248" lon="7.35899">
        <ele>644.70001220703</ele>
        <time>2011-03-20T08:09:41Z</time>
      </trkpt>
      <trkpt lat="43.88237" lon="7.35873">
        <ele>644.21997070312</ele>
        <time>2011-03-20T08:09:47Z</time>
      </trkpt>
      <trkpt lat="43.88235" lon="7.35868">
        <ele>649.51000976562</ele>
        <time>2011-03-20T08:09:48Z</time>
      </trkpt>
      <trkpt lat="43.88218" lon="7.35844">
        <ele>644.21997070312</ele>
        <time>2011-03-20T08:09:55Z</time>
      </trkpt>
      <trkpt lat="43.88211" lon="7.35837">
        <ele>647.59002685547</ele>
        <time>2011-03-20T08:09:57Z</time>
      </trkpt>
      <trkpt lat="43.88208" lon="7.35833">
        <ele>643.73999023438</ele>
        <time>2011-03-20T08:09:58Z</time>
      </trkpt>
      <trkpt lat="43.88188" lon="7.35803">
        <ele>640.85998535156</ele>
        <time>2011-03-20T08:10:05Z</time>
      </trkpt>
      <trkpt lat="43.88185" lon="7.35799">
        <ele>644.70001220703</ele>
        <time>2011-03-20T08:10:06Z</time>
      </trkpt>
      <trkpt lat="43.88176" lon="7.35789">
        <ele>638.92999267578</ele>
        <time>2011-03-20T08:10:09Z</time>
      </trkpt>
      <trkpt lat="43.88172" lon="7.35786">
        <ele>640.85998535156</ele>
        <time>2011-03-20T08:10:10Z</time>
      </trkpt>
      <trkpt lat="43.88165" lon="7.35781">
        <ele>640.38000488281</ele>
        <time>2011-03-20T08:10:12Z</time>
      </trkpt>
      <trkpt lat="43.88139" lon="7.3576">
        <ele>642.78002929688</ele>
        <time>2011-03-20T08:10:19Z</time>
      </trkpt>
      <trkpt lat="43.88137" lon="7.35755">
        <ele>638.45001220703</ele>
        <time>2011-03-20T08:10:20Z</time>
      </trkpt>
      <trkpt lat="43.88108" lon="7.35696">
        <ele>636.04998779297</ele>
        <time>2011-03-20T08:10:33Z</time>
      </trkpt>
      <trkpt lat="43.88096" lon="7.3566">
        <ele>635.09002685547</ele>
        <time>2011-03-20T08:10:43Z</time>
      </trkpt>
      <trkpt lat="43.88094" lon="7.35651">
        <ele>628.84002685547</ele>
        <time>2011-03-20T08:10:46Z</time>
      </trkpt>
      <trkpt lat="43.88094" lon="7.35649">
        <ele>630.28002929688</ele>
        <time>2011-03-20T08:10:47Z</time>
      </trkpt>
      <trkpt lat="43.88092" lon="7.35643">
        <ele>632.20001220703</ele>
        <time>2011-03-20T08:10:49Z</time>
      </trkpt>
      <trkpt lat="43.88091" lon="7.35639">
        <ele>627.40002441406</ele>
        <time>2011-03-20T08:10:50Z</time>
      </trkpt>
      <trkpt lat="43.88091" lon="7.35636">
        <ele>626.44000244141</ele>
        <time>2011-03-20T08:10:51Z</time>
      </trkpt>
      <trkpt lat="43.88084" lon="7.35628">
        <ele>625.96002197266</ele>
        <time>2011-03-20T08:10:55Z</time>
      </trkpt>
      <trkpt lat="43.88069" lon="7.3563">
        <ele>620.19000244141</ele>
        <time>2011-03-20T08:10:59Z</time>
      </trkpt>
      <trkpt lat="43.88066" lon="7.35632">
        <ele>621.15002441406</ele>
        <time>2011-03-20T08:11:00Z</time>
      </trkpt>
      <trkpt lat="43.8806" lon="7.3563">
        <ele>619.22998046875</ele>
        <time>2011-03-20T08:11:05Z</time>
      </trkpt>
      <trkpt lat="43.88066" lon="7.35626">
        <ele>621.15002441406</ele>
        <time>2011-03-20T08:11:07Z</time>
      </trkpt>
      <trkpt lat="43.8808" lon="7.3562">
        <ele>618.26000976562</ele>
        <time>2011-03-20T08:11:10Z</time>
      </trkpt>
      <trkpt lat="43.88089" lon="7.35609">
        <ele>615.38000488281</ele>
        <time>2011-03-20T08:11:13Z</time>
      </trkpt>
      <trkpt lat="43.88091" lon="7.35605">
        <ele>621.15002441406</ele>
        <time>2011-03-20T08:11:14Z</time>
      </trkpt>
      <trkpt lat="43.88093" lon="7.356">
        <ele>620.66998291016</ele>
        <time>2011-03-20T08:11:15Z</time>
      </trkpt>
      <trkpt lat="43.88099" lon="7.35582">
        <ele>617.29998779297</ele>
        <time>2011-03-20T08:11:19Z</time>
      </trkpt>
      <trkpt lat="43.88102" lon="7.35576">
        <ele>621.63000488281</ele>
        <time>2011-03-20T08:11:21Z</time>
      </trkpt>
      <trkpt lat="43.88099" lon="7.3556">
        <ele>623.07000732422</ele>
        <time>2011-03-20T08:11:28Z</time>
      </trkpt>
      <trkpt lat="43.88093" lon="7.3556">
        <ele>628.35998535156</ele>
        <time>2011-03-20T08:11:30Z</time>
      </trkpt>
      <trkpt lat="43.8809" lon="7.3556">
        <ele>627.88000488281</ele>
        <time>2011-03-20T08:11:31Z</time>
      </trkpt>
      <trkpt lat="43.88086" lon="7.35546">
        <ele>630.28002929688</ele>
        <time>2011-03-20T08:11:38Z</time>
      </trkpt>
      <trkpt lat="43.8809" lon="7.35542">
        <ele>631.23999023438</ele>
        <time>2011-03-20T08:11:40Z</time>
      </trkpt>
      <trkpt lat="43.88107" lon="7.35525">
        <ele>635.09002685547</ele>
        <time>2011-03-20T08:11:49Z</time>
      </trkpt>
      <trkpt lat="43.88113" lon="7.35513">
        <ele>635.09002685547</ele>
        <time>2011-03-20T08:11:53Z</time>
      </trkpt>
      <trkpt lat="43.88123" lon="7.35475">
        <ele>638.92999267578</ele>
        <time>2011-03-20T08:12:03Z</time>
      </trkpt>
      <trkpt lat="43.88125" lon="7.35468">
        <ele>635.57000732422</ele>
        <time>2011-03-20T08:12:05Z</time>
      </trkpt>
      <trkpt lat="43.88128" lon="7.35457">
        <ele>638.92999267578</ele>
        <time>2011-03-20T08:12:08Z</time>
      </trkpt>
      <trkpt lat="43.88142" lon="7.35428">
        <ele>645.17999267578</ele>
        <time>2011-03-20T08:12:18Z</time>
      </trkpt>
      <trkpt lat="43.88144" lon="7.35426">
        <ele>640.85998535156</ele>
        <time>2011-03-20T08:12:19Z</time>
      </trkpt>
      <trkpt lat="43.88152" lon="7.35417">
        <ele>640.85998535156</ele>
        <time>2011-03-20T08:12:23Z</time>
      </trkpt>
      <trkpt lat="43.88156" lon="7.35414">
        <ele>642.78002929688</ele>
        <time>2011-03-20T08:12:25Z</time>
      </trkpt>
      <trkpt lat="43.88168" lon="7.35408">
        <ele>644.70001220703</ele>
        <time>2011-03-20T08:12:30Z</time>
      </trkpt>
      <trkpt lat="43.88174" lon="7.35408">
        <ele>648.54998779297</ele>
        <time>2011-03-20T08:12:33Z</time>
      </trkpt>
      <trkpt lat="43.88177" lon="7.35409">
        <ele>645.17999267578</ele>
        <time>2011-03-20T08:12:34Z</time>
      </trkpt>
      <trkpt lat="43.88182" lon="7.3541">
        <ele>649.03002929688</ele>
        <time>2011-03-20T08:12:36Z</time>
      </trkpt>
      <trkpt lat="43.88208" lon="7.35392">
        <ele>649.98999023438</ele>
        <time>2011-03-20T08:12:48Z</time>
      </trkpt>
      <trkpt lat="43.8821" lon="7.35389">
        <ele>656.23999023438</ele>
        <time>2011-03-20T08:12:49Z</time>
      </trkpt>
      <trkpt lat="43.88211" lon="7.35386">
        <ele>650.95001220703</ele>
        <time>2011-03-20T08:12:50Z</time>
      </trkpt>
      <trkpt lat="43.88218" lon="7.35376">
        <ele>646.61999511719</ele>
        <time>2011-03-20T08:12:53Z</time>
      </trkpt>
      <trkpt lat="43.88219" lon="7.35372">
        <ele>651.90997314453</ele>
        <time>2011-03-20T08:12:54Z</time>
      </trkpt>
      <trkpt lat="43.8822" lon="7.35368">
        <ele>652.39001464844</ele>
        <time>2011-03-20T08:12:55Z</time>
      </trkpt>
      <trkpt lat="43.88225" lon="7.35357">
        <ele>652.86999511719</ele>
        <time>2011-03-20T08:12:58Z</time>
      </trkpt>
      <trkpt lat="43.88227" lon="7.35354">
        <ele>649.51000976562</ele>
        <time>2011-03-20T08:12:59Z</time>
      </trkpt>
      <trkpt lat="43.88229" lon="7.35312">
        <ele>649.98999023438</ele>
        <time>2011-03-20T08:13:09Z</time>
      </trkpt>
      <trkpt lat="43.88227" lon="7.35308">
        <ele>651.90997314453</ele>
        <time>2011-03-20T08:13:10Z</time>
      </trkpt>
      <trkpt lat="43.88213" lon="7.35319">
        <ele>652.39001464844</ele>
        <time>2011-03-20T08:13:18Z</time>
      </trkpt>
      <trkpt lat="43.8821" lon="7.35323">
        <ele>655.28002929688</ele>
        <time>2011-03-20T08:13:20Z</time>
      </trkpt>
      <trkpt lat="43.88208" lon="7.35326">
        <ele>654.79998779297</ele>
        <time>2011-03-20T08:13:21Z</time>
      </trkpt>
      <trkpt lat="43.88204" lon="7.3533">
        <ele>657.67999267578</ele>
        <time>2011-03-20T08:13:23Z</time>
      </trkpt>
      <trkpt lat="43.88197" lon="7.35335">
        <ele>654.30999755859</ele>
        <time>2011-03-20T08:13:26Z</time>
      </trkpt>
      <trkpt lat="43.88189" lon="7.35337">
        <ele>658.15997314453</ele>
        <time>2011-03-20T08:13:29Z</time>
      </trkpt>
      <trkpt lat="43.88183" lon="7.35338">
        <ele>654.30999755859</ele>
        <time>2011-03-20T08:13:31Z</time>
      </trkpt>
      <trkpt lat="43.88181" lon="7.35338">
        <ele>657.67999267578</ele>
        <time>2011-03-20T08:13:32Z</time>
      </trkpt>
      <trkpt lat="43.88165" lon="7.3534">
        <ele>659.59997558594</ele>
        <time>2011-03-20T08:13:38Z</time>
      </trkpt>
      <trkpt lat="43.88129" lon="7.35349">
        <ele>662.48999023438</ele>
        <time>2011-03-20T08:13:52Z</time>
      </trkpt>
      <trkpt lat="43.88098" lon="7.35357">
        <ele>663.45001220703</ele>
        <time>2011-03-20T08:14:03Z</time>
      </trkpt>
      <trkpt lat="43.88086" lon="7.35359">
        <ele>659.11999511719</ele>
        <time>2011-03-20T08:14:07Z</time>
      </trkpt>
      <trkpt lat="43.88083" lon="7.35359">
        <ele>664.89001464844</ele>
        <time>2011-03-20T08:14:08Z</time>
      </trkpt>
      <trkpt lat="43.88077" lon="7.3536">
        <ele>661.03997802734</ele>
        <time>2011-03-20T08:14:10Z</time>
      </trkpt>
      <trkpt lat="43.88057" lon="7.35364">
        <ele>661.03997802734</ele>
        <time>2011-03-20T08:14:16Z</time>
      </trkpt>
      <trkpt lat="43.88031" lon="7.35367">
        <ele>662.01000976562</ele>
        <time>2011-03-20T08:14:24Z</time>
      </trkpt>
      <trkpt lat="43.88013" lon="7.35352">
        <ele>658.64001464844</ele>
        <time>2011-03-20T08:14:30Z</time>
      </trkpt>
      <trkpt lat="43.8801" lon="7.35348">
        <ele>659.11999511719</ele>
        <time>2011-03-20T08:14:31Z</time>
      </trkpt>
      <trkpt lat="43.88001" lon="7.35338">
        <ele>662.48999023438</ele>
        <time>2011-03-20T08:14:34Z</time>
      </trkpt>
      <trkpt lat="43.87991" lon="7.35329">
        <ele>659.11999511719</ele>
        <time>2011-03-20T08:14:37Z</time>
      </trkpt>
      <trkpt lat="43.87976" lon="7.35314">
        <ele>655.28002929688</ele>
        <time>2011-03-20T08:14:42Z</time>
      </trkpt>
      <trkpt lat="43.87974" lon="7.35311">
        <ele>660.08001708984</ele>
        <time>2011-03-20T08:14:43Z</time>
      </trkpt>
      <trkpt lat="43.87971" lon="7.35308">
        <ele>657.20001220703</ele>
        <time>2011-03-20T08:14:44Z</time>
      </trkpt>
      <trkpt lat="43.87963" lon="7.35297">
        <ele>655.28002929688</ele>
        <time>2011-03-20T08:14:47Z</time>
      </trkpt>
      <trkpt lat="43.8796" lon="7.35257">
        <ele>657.20001220703</ele>
        <time>2011-03-20T08:14:55Z</time>
      </trkpt>
      <trkpt lat="43.87957" lon="7.35247">
        <ele>653.83001708984</ele>
        <time>2011-03-20T08:14:57Z</time>
      </trkpt>
      <trkpt lat="43.87955" lon="7.35243">
        <ele>655.28002929688</ele>
        <time>2011-03-20T08:14:58Z</time>
      </trkpt>
      <trkpt lat="43.87949" lon="7.35238">
        <ele>657.20001220703</ele>
        <time>2011-03-20T08:15:00Z</time>
      </trkpt>
      <trkpt lat="43.87912" lon="7.35225">
        <ele>660.55999755859</ele>
        <time>2011-03-20T08:15:11Z</time>
      </trkpt>
      <trkpt lat="43.87902" lon="7.35214">
        <ele>657.20001220703</ele>
        <time>2011-03-20T08:15:15Z</time>
      </trkpt>
      <trkpt lat="43.87881" lon="7.35168">
        <ele>651.90997314453</ele>
        <time>2011-03-20T08:15:26Z</time>
      </trkpt>
      <trkpt lat="43.8788" lon="7.35164">
        <ele>659.11999511719</ele>
        <time>2011-03-20T08:15:27Z</time>
      </trkpt>
      <trkpt lat="43.87874" lon="7.35157">
        <ele>654.79998779297</ele>
        <time>2011-03-20T08:15:29Z</time>
      </trkpt>
      <trkpt lat="43.87872" lon="7.35154">
        <ele>655.28002929688</ele>
        <time>2011-03-20T08:15:30Z</time>
      </trkpt>
      <trkpt lat="43.87853" lon="7.35152">
        <ele>651.90997314453</ele>
        <time>2011-03-20T08:15:35Z</time>
      </trkpt>
      <trkpt lat="43.87849" lon="7.35153">
        <ele>656.71997070312</ele>
        <time>2011-03-20T08:15:36Z</time>
      </trkpt>
      <trkpt lat="43.87835" lon="7.35157">
        <ele>652.86999511719</ele>
        <time>2011-03-20T08:15:40Z</time>
      </trkpt>
      <trkpt lat="43.87828" lon="7.35159">
        <ele>656.23999023438</ele>
        <time>2011-03-20T08:15:42Z</time>
      </trkpt>
      <trkpt lat="43.87824" lon="7.3516">
        <ele>656.23999023438</ele>
        <time>2011-03-20T08:15:43Z</time>
      </trkpt>
      <trkpt lat="43.87803" lon="7.3516">
        <ele>653.83001708984</ele>
        <time>2011-03-20T08:15:49Z</time>
      </trkpt>
      <trkpt lat="43.87774" lon="7.35154">
        <ele>650.95001220703</ele>
        <time>2011-03-20T08:15:58Z</time>
      </trkpt>
      <trkpt lat="43.87771" lon="7.35152">
        <ele>655.76000976562</ele>
        <time>2011-03-20T08:15:59Z</time>
      </trkpt>
      <trkpt lat="43.87751" lon="7.35136">
        <ele>652.39001464844</ele>
        <time>2011-03-20T08:16:06Z</time>
      </trkpt>
      <trkpt lat="43.8772" lon="7.35109">
        <ele>656.23999023438</ele>
        <time>2011-03-20T08:16:16Z</time>
      </trkpt>
      <trkpt lat="43.8771" lon="7.35106">
        <ele>654.30999755859</ele>
        <time>2011-03-20T08:16:19Z</time>
      </trkpt>
      <trkpt lat="43.87699" lon="7.35105">
        <ele>650.46997070312</ele>
        <time>2011-03-20T08:16:22Z</time>
      </trkpt>
      <trkpt lat="43.87655" lon="7.35091">
        <ele>650.46997070312</ele>
        <time>2011-03-20T08:16:35Z</time>
      </trkpt>
      <trkpt lat="43.87645" lon="7.35085">
        <ele>651.90997314453</ele>
        <time>2011-03-20T08:16:38Z</time>
      </trkpt>
      <trkpt lat="43.87626" lon="7.35059">
        <ele>651.42999267578</ele>
        <time>2011-03-20T08:16:46Z</time>
      </trkpt>
      <trkpt lat="43.87622" lon="7.3505">
        <ele>648.54998779297</ele>
        <time>2011-03-20T08:16:49Z</time>
      </trkpt>
      <trkpt lat="43.87618" lon="7.3505">
        <ele>646.61999511719</ele>
        <time>2011-03-20T08:16:51Z</time>
      </trkpt>
      <trkpt lat="43.87614" lon="7.35049">
        <ele>648.07000732422</ele>
        <time>2011-03-20T08:16:53Z</time>
      </trkpt>
      <trkpt lat="43.87613" lon="7.35047">
        <ele>644.21997070312</ele>
        <time>2011-03-20T08:16:54Z</time>
      </trkpt>
      <trkpt lat="43.87612" lon="7.35041">
        <ele>643.26000976562</ele>
        <time>2011-03-20T08:16:56Z</time>
      </trkpt>
      <trkpt lat="43.87612" lon="7.35036">
        <ele>643.73999023438</ele>
        <time>2011-03-20T08:16:58Z</time>
      </trkpt>
      <trkpt lat="43.87608" lon="7.35035">
        <ele>641.34002685547</ele>
        <time>2011-03-20T08:17:01Z</time>
      </trkpt>
      <trkpt lat="43.87608" lon="7.3503">
        <ele>637.48999023438</ele>
        <time>2011-03-20T08:17:04Z</time>
      </trkpt>
      <trkpt lat="43.87608" lon="7.35027">
        <ele>640.85998535156</ele>
        <time>2011-03-20T08:17:05Z</time>
      </trkpt>
      <trkpt lat="43.87604" lon="7.35025">
        <ele>636.04998779297</ele>
        <time>2011-03-20T08:17:07Z</time>
      </trkpt>
      <trkpt lat="43.87598" lon="7.35027">
        <ele>635.57000732422</ele>
        <time>2011-03-20T08:17:09Z</time>
      </trkpt>
      <trkpt lat="43.87592" lon="7.35032">
        <ele>633.65002441406</ele>
        <time>2011-03-20T08:17:11Z</time>
      </trkpt>
      <trkpt lat="43.87589" lon="7.35036">
        <ele>632.20001220703</ele>
        <time>2011-03-20T08:17:12Z</time>
      </trkpt>
      <trkpt lat="43.87584" lon="7.35039">
        <ele>630.76000976562</ele>
        <time>2011-03-20T08:17:14Z</time>
      </trkpt>
      <trkpt lat="43.87577" lon="7.35031">
        <ele>624.03002929688</ele>
        <time>2011-03-20T08:17:19Z</time>
      </trkpt>
      <trkpt lat="43.87574" lon="7.35032">
        <ele>624.98999023438</ele>
        <time>2011-03-20T08:17:20Z</time>
      </trkpt>
      <trkpt lat="43.87569" lon="7.35025">
        <ele>622.10998535156</ele>
        <time>2011-03-20T08:17:25Z</time>
      </trkpt>
      <trkpt lat="43.87564" lon="7.35025">
        <ele>620.19000244141</ele>
        <time>2011-03-20T08:17:27Z</time>
      </trkpt>
      <trkpt lat="43.87561" lon="7.35026">
        <ele>620.19000244141</ele>
        <time>2011-03-20T08:17:28Z</time>
      </trkpt>
      <trkpt lat="43.87535" lon="7.35037">
        <ele>613.46002197266</ele>
        <time>2011-03-20T08:17:35Z</time>
      </trkpt>
      <trkpt lat="43.87529" lon="7.35026">
        <ele>611.53997802734</ele>
        <time>2011-03-20T08:17:41Z</time>
      </trkpt>
      <trkpt lat="43.87561" lon="7.34999">
        <ele>608.16998291016</ele>
        <time>2011-03-20T08:17:50Z</time>
      </trkpt>
      <trkpt lat="43.87563" lon="7.34996">
        <ele>604.33001708984</ele>
        <time>2011-03-20T08:17:51Z</time>
      </trkpt>
      <trkpt lat="43.87566" lon="7.34994">
        <ele>605.28997802734</ele>
        <time>2011-03-20T08:17:52Z</time>
      </trkpt>
      <trkpt lat="43.8758" lon="7.34979">
        <ele>603.35998535156</ele>
        <time>2011-03-20T08:17:57Z</time>
      </trkpt>
      <trkpt lat="43.87611" lon="7.3496">
        <ele>599.52001953125</ele>
        <time>2011-03-20T08:18:06Z</time>
      </trkpt>
      <trkpt lat="43.8762" lon="7.34949">
        <ele>596.15002441406</ele>
        <time>2011-03-20T08:18:09Z</time>
      </trkpt>
      <trkpt lat="43.87634" lon="7.34925">
        <ele>592.30999755859</ele>
        <time>2011-03-20T08:18:14Z</time>
      </trkpt>
      <trkpt lat="43.87642" lon="7.34914">
        <ele>588.46002197266</ele>
        <time>2011-03-20T08:18:17Z</time>
      </trkpt>
      <trkpt lat="43.87644" lon="7.34911">
        <ele>592.78997802734</ele>
        <time>2011-03-20T08:18:18Z</time>
      </trkpt>
      <trkpt lat="43.87651" lon="7.34883">
        <ele>587.5</ele>
        <time>2011-03-20T08:18:24Z</time>
      </trkpt>
      <trkpt lat="43.87652" lon="7.34878">
        <ele>587.02001953125</ele>
        <time>2011-03-20T08:18:25Z</time>
      </trkpt>
      <trkpt lat="43.87655" lon="7.34862">
        <ele>585.09997558594</ele>
        <time>2011-03-20T08:18:29Z</time>
      </trkpt>
      <trkpt lat="43.87656" lon="7.34859">
        <ele>586.05999755859</ele>
        <time>2011-03-20T08:18:30Z</time>
      </trkpt>
      <trkpt lat="43.87663" lon="7.34851">
        <ele>581.25</ele>
        <time>2011-03-20T08:18:33Z</time>
      </trkpt>
      <trkpt lat="43.87665" lon="7.34848">
        <ele>582.70001220703</ele>
        <time>2011-03-20T08:18:34Z</time>
      </trkpt>
      <trkpt lat="43.87675" lon="7.3484">
        <ele>578.36999511719</ele>
        <time>2011-03-20T08:18:38Z</time>
      </trkpt>
      <trkpt lat="43.87678" lon="7.34838">
        <ele>578.36999511719</ele>
        <time>2011-03-20T08:18:39Z</time>
      </trkpt>
      <trkpt lat="43.87685" lon="7.34834">
        <ele>575.96997070312</ele>
        <time>2011-03-20T08:18:41Z</time>
      </trkpt>
      <trkpt lat="43.87703" lon="7.34824">
        <ele>574.03997802734</ele>
        <time>2011-03-20T08:18:46Z</time>
      </trkpt>
      <trkpt lat="43.87715" lon="7.34811">
        <ele>572.59997558594</ele>
        <time>2011-03-20T08:18:50Z</time>
      </trkpt>
      <trkpt lat="43.87724" lon="7.34802">
        <ele>573.08001708984</ele>
        <time>2011-03-20T08:18:53Z</time>
      </trkpt>
      <trkpt lat="43.87722" lon="7.34786">
        <ele>575.01000976562</ele>
        <time>2011-03-20T08:18:57Z</time>
      </trkpt>
      <trkpt lat="43.8772" lon="7.34782">
        <ele>573.55999755859</ele>
        <time>2011-03-20T08:18:58Z</time>
      </trkpt>
      <trkpt lat="43.87713" lon="7.34767">
        <ele>577.89001464844</ele>
        <time>2011-03-20T08:19:03Z</time>
      </trkpt>
      <trkpt lat="43.87716" lon="7.34761">
        <ele>577.89001464844</ele>
        <time>2011-03-20T08:19:06Z</time>
      </trkpt>
      <trkpt lat="43.87717" lon="7.34758">
        <ele>578.84997558594</ele>
        <time>2011-03-20T08:19:11Z</time>
      </trkpt>
      <trkpt lat="43.87717" lon="7.34757">
        <ele>580.77001953125</ele>
        <time>2011-03-20T08:19:13Z</time>
      </trkpt>
      <trkpt lat="43.87716" lon="7.34755">
        <ele>579.33001708984</ele>
        <time>2011-03-20T08:19:15Z</time>
      </trkpt>
      <trkpt lat="43.87722" lon="7.34747">
        <ele>582.21997070312</ele>
        <time>2011-03-20T08:19:21Z</time>
      </trkpt>
      <trkpt lat="43.87727" lon="7.34733">
        <ele>586.05999755859</ele>
        <time>2011-03-20T08:19:27Z</time>
      </trkpt>
      <trkpt lat="43.8773" lon="7.34728">
        <ele>586.05999755859</ele>
        <time>2011-03-20T08:19:30Z</time>
      </trkpt>
      <trkpt lat="43.87736" lon="7.34729">
        <ele>588.95001220703</ele>
        <time>2011-03-20T08:19:33Z</time>
      </trkpt>
      <trkpt lat="43.87743" lon="7.34722">
        <ele>592.78997802734</ele>
        <time>2011-03-20T08:19:40Z</time>
      </trkpt>
      <trkpt lat="43.87744" lon="7.3472">
        <ele>590.39001464844</ele>
        <time>2011-03-20T08:19:41Z</time>
      </trkpt>
      <trkpt lat="43.87745" lon="7.34718">
        <ele>589.42999267578</ele>
        <time>2011-03-20T08:19:42Z</time>
      </trkpt>
      <trkpt lat="43.87746" lon="7.34715">
        <ele>594.22998046875</ele>
        <time>2011-03-20T08:19:44Z</time>
      </trkpt>
      <trkpt lat="43.87748" lon="7.34706">
        <ele>590.86999511719</ele>
        <time>2011-03-20T08:19:48Z</time>
      </trkpt>
      <trkpt lat="43.87749" lon="7.34704">
        <ele>593.75</ele>
        <time>2011-03-20T08:19:49Z</time>
      </trkpt>
      <trkpt lat="43.87753" lon="7.34693">
        <ele>596.64001464844</ele>
        <time>2011-03-20T08:19:55Z</time>
      </trkpt>
      <trkpt lat="43.87754" lon="7.34689">
        <ele>597.11999511719</ele>
        <time>2011-03-20T08:19:57Z</time>
      </trkpt>
      <trkpt lat="43.87765" lon="7.34681">
        <ele>599.03997802734</ele>
        <time>2011-03-20T08:20:05Z</time>
      </trkpt>
      <trkpt lat="43.87768" lon="7.34675">
        <ele>598.55999755859</ele>
        <time>2011-03-20T08:20:09Z</time>
      </trkpt>
      <trkpt lat="43.87769" lon="7.34672">
        <ele>601.44000244141</ele>
        <time>2011-03-20T08:20:11Z</time>
      </trkpt>
      <trkpt lat="43.87772" lon="7.34664">
        <ele>602.40002441406</ele>
        <time>2011-03-20T08:20:16Z</time>
      </trkpt>
      <trkpt lat="43.87766" lon="7.34659">
        <ele>604.80999755859</ele>
        <time>2011-03-20T08:20:23Z</time>
      </trkpt>
      <trkpt lat="43.87764" lon="7.34656">
        <ele>607.21002197266</ele>
        <time>2011-03-20T08:20:26Z</time>
      </trkpt>
      <trkpt lat="43.87765" lon="7.34655">
        <ele>606.72998046875</ele>
        <time>2011-03-20T08:20:27Z</time>
      </trkpt>
      <trkpt lat="43.87767" lon="7.34655">
        <ele>603.35998535156</ele>
        <time>2011-03-20T08:20:29Z</time>
      </trkpt>
      <trkpt lat="43.87769" lon="7.34655">
        <ele>608.16998291016</ele>
        <time>2011-03-20T08:20:31Z</time>
      </trkpt>
      <trkpt lat="43.87777" lon="7.34649">
        <ele>611.53997802734</ele>
        <time>2011-03-20T08:20:37Z</time>
      </trkpt>
      <trkpt lat="43.87777" lon="7.34647">
        <ele>611.05999755859</ele>
        <time>2011-03-20T08:20:38Z</time>
      </trkpt>
      <trkpt lat="43.87787" lon="7.34628">
        <ele>616.34002685547</ele>
        <time>2011-03-20T08:20:50Z</time>
      </trkpt>
      <trkpt lat="43.87792" lon="7.34622">
        <ele>615.85998535156</ele>
        <time>2011-03-20T08:20:54Z</time>
      </trkpt>
      <trkpt lat="43.87811" lon="7.34607">
        <ele>616.82000732422</ele>
        <time>2011-03-20T08:21:05Z</time>
      </trkpt>
      <trkpt lat="43.87813" lon="7.34605">
        <ele>620.66998291016</ele>
        <time>2011-03-20T08:21:07Z</time>
      </trkpt>
      <trkpt lat="43.87814" lon="7.34602">
        <ele>620.19000244141</ele>
        <time>2011-03-20T08:21:09Z</time>
      </trkpt>
      <trkpt lat="43.87815" lon="7.34597">
        <ele>620.66998291016</ele>
        <time>2011-03-20T08:21:13Z</time>
      </trkpt>
      <trkpt lat="43.87815" lon="7.34595">
        <ele>622.59002685547</ele>
        <time>2011-03-20T08:21:15Z</time>
      </trkpt>
      <trkpt lat="43.87818" lon="7.34593">
        <ele>621.63000488281</ele>
        <time>2011-03-20T08:21:18Z</time>
      </trkpt>
      <trkpt lat="43.8782" lon="7.34592">
        <ele>624.51000976562</ele>
        <time>2011-03-20T08:21:20Z</time>
      </trkpt>
      <trkpt lat="43.87822" lon="7.3459">
        <ele>626.44000244141</ele>
        <time>2011-03-20T08:21:22Z</time>
      </trkpt>
      <trkpt lat="43.87823" lon="7.34587">
        <ele>624.51000976562</ele>
        <time>2011-03-20T08:21:24Z</time>
      </trkpt>
      <trkpt lat="43.87828" lon="7.34576">
        <ele>627.88000488281</ele>
        <time>2011-03-20T08:21:32Z</time>
      </trkpt>
      <trkpt lat="43.8783" lon="7.34575">
        <ele>627.40002441406</ele>
        <time>2011-03-20T08:21:33Z</time>
      </trkpt>
      <trkpt lat="43.87836" lon="7.34568">
        <ele>628.84002685547</ele>
        <time>2011-03-20T08:21:37Z</time>
      </trkpt>
      <trkpt lat="43.87839" lon="7.34562">
        <ele>632.67999267578</ele>
        <time>2011-03-20T08:21:40Z</time>
      </trkpt>
      <trkpt lat="43.8784" lon="7.3456">
        <ele>628.35998535156</ele>
        <time>2011-03-20T08:21:41Z</time>
      </trkpt>
      <trkpt lat="43.87841" lon="7.34555">
        <ele>631.23999023438</ele>
        <time>2011-03-20T08:21:43Z</time>
      </trkpt>
      <trkpt lat="43.87845" lon="7.34549">
        <ele>635.09002685547</ele>
        <time>2011-03-20T08:21:46Z</time>
      </trkpt>
      <trkpt lat="43.87846" lon="7.34546">
        <ele>630.28002929688</ele>
        <time>2011-03-20T08:21:47Z</time>
      </trkpt>
      <trkpt lat="43.87851" lon="7.3454">
        <ele>633.65002441406</ele>
        <time>2011-03-20T08:21:50Z</time>
      </trkpt>
      <trkpt lat="43.87868" lon="7.34508">
        <ele>632.67999267578</ele>
        <time>2011-03-20T08:22:02Z</time>
      </trkpt>
      <trkpt lat="43.8787" lon="7.34495">
        <ele>637.01000976562</ele>
        <time>2011-03-20T08:22:08Z</time>
      </trkpt>
      <trkpt lat="43.87871" lon="7.34493">
        <ele>636.53002929688</ele>
        <time>2011-03-20T08:22:09Z</time>
      </trkpt>
      <trkpt lat="43.87871" lon="7.34488">
        <ele>633.16998291016</ele>
        <time>2011-03-20T08:22:11Z</time>
      </trkpt>
      <trkpt lat="43.87871" lon="7.34486">
        <ele>634.60998535156</ele>
        <time>2011-03-20T08:22:12Z</time>
      </trkpt>
      <trkpt lat="43.8787" lon="7.34481">
        <ele>635.57000732422</ele>
        <time>2011-03-20T08:22:14Z</time>
      </trkpt>
      <trkpt lat="43.87868" lon="7.34473">
        <ele>638.92999267578</ele>
        <time>2011-03-20T08:22:17Z</time>
      </trkpt>
      <trkpt lat="43.87867" lon="7.34471">
        <ele>635.09002685547</ele>
        <time>2011-03-20T08:22:18Z</time>
      </trkpt>
      <trkpt lat="43.87868" lon="7.34466">
        <ele>639.40997314453</ele>
        <time>2011-03-20T08:22:22Z</time>
      </trkpt>
      <trkpt lat="43.87864" lon="7.34452">
        <ele>640.85998535156</ele>
        <time>2011-03-20T08:22:28Z</time>
      </trkpt>
      <trkpt lat="43.87863" lon="7.34446">
        <ele>642.78002929688</ele>
        <time>2011-03-20T08:22:30Z</time>
      </trkpt>
      <trkpt lat="43.87852" lon="7.34423">
        <ele>639.89001464844</ele>
        <time>2011-03-20T08:22:38Z</time>
      </trkpt>
      <trkpt lat="43.87846" lon="7.34415">
        <ele>644.21997070312</ele>
        <time>2011-03-20T08:22:41Z</time>
      </trkpt>
      <trkpt lat="43.87844" lon="7.34413">
        <ele>641.82000732422</ele>
        <time>2011-03-20T08:22:42Z</time>
      </trkpt>
      <trkpt lat="43.87838" lon="7.34399">
        <ele>643.73999023438</ele>
        <time>2011-03-20T08:22:47Z</time>
      </trkpt>
      <trkpt lat="43.87827" lon="7.34388">
        <ele>646.61999511719</ele>
        <time>2011-03-20T08:22:52Z</time>
      </trkpt>
      <trkpt lat="43.87825" lon="7.34382">
        <ele>641.82000732422</ele>
        <time>2011-03-20T08:22:55Z</time>
      </trkpt>
      <trkpt lat="43.87828" lon="7.34371">
        <ele>646.61999511719</ele>
        <time>2011-03-20T08:22:59Z</time>
      </trkpt>
      <trkpt lat="43.8783" lon="7.34366">
        <ele>642.78002929688</ele>
        <time>2011-03-20T08:23:01Z</time>
      </trkpt>
      <trkpt lat="43.87832" lon="7.34361">
        <ele>644.70001220703</ele>
        <time>2011-03-20T08:23:04Z</time>
      </trkpt>
      <trkpt lat="43.8784" lon="7.34351">
        <ele>649.98999023438</ele>
        <time>2011-03-20T08:23:09Z</time>
      </trkpt>
      <trkpt lat="43.87841" lon="7.34349">
        <ele>649.03002929688</ele>
        <time>2011-03-20T08:23:10Z</time>
      </trkpt>
      <trkpt lat="43.87843" lon="7.34342">
        <ele>646.14001464844</ele>
        <time>2011-03-20T08:23:13Z</time>
      </trkpt>
      <trkpt lat="43.87844" lon="7.34339">
        <ele>650.95001220703</ele>
        <time>2011-03-20T08:23:15Z</time>
      </trkpt>
      <trkpt lat="43.87844" lon="7.34338">
        <ele>649.51000976562</ele>
        <time>2011-03-20T08:23:16Z</time>
      </trkpt>
      <trkpt lat="43.87845" lon="7.34337">
        <ele>648.07000732422</ele>
        <time>2011-03-20T08:23:17Z</time>
      </trkpt>
      <trkpt lat="43.87846" lon="7.34335">
        <ele>651.90997314453</ele>
        <time>2011-03-20T08:23:19Z</time>
      </trkpt>
      <trkpt lat="43.87851" lon="7.34325">
        <ele>651.90997314453</ele>
        <time>2011-03-20T08:23:27Z</time>
      </trkpt>
      <trkpt lat="43.87851" lon="7.3432">
        <ele>653.34997558594</ele>
        <time>2011-03-20T08:23:30Z</time>
      </trkpt>
      <trkpt lat="43.8785" lon="7.34314">
        <ele>656.23999023438</ele>
        <time>2011-03-20T08:23:33Z</time>
      </trkpt>
      <trkpt lat="43.8785" lon="7.34313">
        <ele>652.39001464844</ele>
        <time>2011-03-20T08:23:34Z</time>
      </trkpt>
      <trkpt lat="43.87849" lon="7.34312">
        <ele>655.28002929688</ele>
        <time>2011-03-20T08:23:35Z</time>
      </trkpt>
      <trkpt lat="43.87852" lon="7.34311">
        <ele>655.28002929688</ele>
        <time>2011-03-20T08:23:39Z</time>
      </trkpt>
      <trkpt lat="43.87853" lon="7.34309">
        <ele>656.23999023438</ele>
        <time>2011-03-20T08:23:41Z</time>
      </trkpt>
      <trkpt lat="43.87854" lon="7.34306">
        <ele>655.28002929688</ele>
        <time>2011-03-20T08:23:43Z</time>
      </trkpt>
      <trkpt lat="43.87854" lon="7.34303">
        <ele>659.11999511719</ele>
        <time>2011-03-20T08:23:46Z</time>
      </trkpt>
      <trkpt lat="43.87856" lon="7.3431">
        <ele>656.23999023438</ele>
        <time>2011-03-20T08:23:51Z</time>
      </trkpt>
      <trkpt lat="43.87858" lon="7.34317">
        <ele>663.92999267578</ele>
        <time>2011-03-20T08:23:55Z</time>
      </trkpt>
      <trkpt lat="43.87859" lon="7.34319">
        <ele>661.52001953125</ele>
        <time>2011-03-20T08:23:56Z</time>
      </trkpt>
      <trkpt lat="43.87859" lon="7.34323">
        <ele>660.08001708984</ele>
        <time>2011-03-20T08:23:58Z</time>
      </trkpt>
      <trkpt lat="43.87864" lon="7.34328">
        <ele>663.45001220703</ele>
        <time>2011-03-20T08:24:04Z</time>
      </trkpt>
      <trkpt lat="43.87867" lon="7.34324">
        <ele>667.28997802734</ele>
        <time>2011-03-20T08:24:07Z</time>
      </trkpt>
      <trkpt lat="43.87867" lon="7.34322">
        <ele>665.36999511719</ele>
        <time>2011-03-20T08:24:08Z</time>
      </trkpt>
      <trkpt lat="43.87869" lon="7.34319">
        <ele>664.40997314453</ele>
        <time>2011-03-20T08:24:10Z</time>
      </trkpt>
      <trkpt lat="43.87871" lon="7.34315">
        <ele>665.84997558594</ele>
        <time>2011-03-20T08:24:12Z</time>
      </trkpt>
      <trkpt lat="43.87871" lon="7.3431">
        <ele>669.21997070312</ele>
        <time>2011-03-20T08:24:17Z</time>
      </trkpt>
      <trkpt lat="43.87873" lon="7.3431">
        <ele>666.80999755859</ele>
        <time>2011-03-20T08:24:20Z</time>
      </trkpt>
      <trkpt lat="43.87875" lon="7.34314">
        <ele>671.61999511719</ele>
        <time>2011-03-20T08:24:23Z</time>
      </trkpt>
      <trkpt lat="43.87877" lon="7.34316">
        <ele>669.21997070312</ele>
        <time>2011-03-20T08:24:25Z</time>
      </trkpt>
      <trkpt lat="43.87878" lon="7.34318">
        <ele>671.14001464844</ele>
        <time>2011-03-20T08:24:27Z</time>
      </trkpt>
      <trkpt lat="43.87879" lon="7.34321">
        <ele>670.65997314453</ele>
        <time>2011-03-20T08:24:29Z</time>
      </trkpt>
      <trkpt lat="43.8788" lon="7.34324">
        <ele>670.65997314453</ele>
        <time>2011-03-20T08:24:31Z</time>
      </trkpt>
      <trkpt lat="43.87882" lon="7.34327">
        <ele>672.58001708984</ele>
        <time>2011-03-20T08:24:34Z</time>
      </trkpt>
      <trkpt lat="43.87885" lon="7.34326">
        <ele>675.94000244141</ele>
        <time>2011-03-20T08:24:36Z</time>
      </trkpt>
      <trkpt lat="43.87886" lon="7.34325">
        <ele>672.58001708984</ele>
        <time>2011-03-20T08:24:37Z</time>
      </trkpt>
      <trkpt lat="43.87891" lon="7.34321">
        <ele>675.94000244141</ele>
        <time>2011-03-20T08:24:41Z</time>
      </trkpt>
      <trkpt lat="43.87892" lon="7.3432">
        <ele>675.94000244141</ele>
        <time>2011-03-20T08:24:42Z</time>
      </trkpt>
      <trkpt lat="43.87893" lon="7.34319">
        <ele>674.97998046875</ele>
        <time>2011-03-20T08:24:43Z</time>
      </trkpt>
      <trkpt lat="43.87894" lon="7.34317">
        <ele>676.41998291016</ele>
        <time>2011-03-20T08:24:45Z</time>
      </trkpt>
      <trkpt lat="43.87897" lon="7.34315">
        <ele>676.90997314453</ele>
        <time>2011-03-20T08:24:48Z</time>
      </trkpt>
      <trkpt lat="43.879" lon="7.34311">
        <ele>679.30999755859</ele>
        <time>2011-03-20T08:24:52Z</time>
      </trkpt>
      <trkpt lat="43.879" lon="7.34304">
        <ele>679.78997802734</ele>
        <time>2011-03-20T08:24:56Z</time>
      </trkpt>
      <trkpt lat="43.87899" lon="7.3429">
        <ele>682.19000244141</ele>
        <time>2011-03-20T08:25:01Z</time>
      </trkpt>
      <trkpt lat="43.87895" lon="7.34283">
        <ele>683.63000488281</ele>
        <time>2011-03-20T08:25:04Z</time>
      </trkpt>
      <trkpt lat="43.87894" lon="7.34281">
        <ele>681.71002197266</ele>
        <time>2011-03-20T08:25:05Z</time>
      </trkpt>
      <trkpt lat="43.87889" lon="7.34273">
        <ele>684.59997558594</ele>
        <time>2011-03-20T08:25:09Z</time>
      </trkpt>
      <trkpt lat="43.87888" lon="7.34265">
        <ele>686.03997802734</ele>
        <time>2011-03-20T08:25:14Z</time>
      </trkpt>
      <trkpt lat="43.87888" lon="7.34257">
        <ele>686.03997802734</ele>
        <time>2011-03-20T08:25:21Z</time>
      </trkpt>
      <trkpt lat="43.87886" lon="7.34248">
        <ele>686.52001953125</ele>
        <time>2011-03-20T08:25:27Z</time>
      </trkpt>
      <trkpt lat="43.87888" lon="7.34244">
        <ele>690.84002685547</ele>
        <time>2011-03-20T08:25:30Z</time>
      </trkpt>
      <trkpt lat="43.87888" lon="7.34243">
        <ele>686.52001953125</ele>
        <time>2011-03-20T08:25:31Z</time>
      </trkpt>
      <trkpt lat="43.87893" lon="7.34237">
        <ele>691.33001708984</ele>
        <time>2011-03-20T08:25:36Z</time>
      </trkpt>
      <trkpt lat="43.87894" lon="7.34236">
        <ele>689.40002441406</ele>
        <time>2011-03-20T08:25:37Z</time>
      </trkpt>
      <trkpt lat="43.87898" lon="7.34228">
        <ele>694.21002197266</ele>
        <time>2011-03-20T08:25:44Z</time>
      </trkpt>
      <trkpt lat="43.87897" lon="7.34226">
        <ele>695.65002441406</ele>
        <time>2011-03-20T08:25:45Z</time>
      </trkpt>
      <trkpt lat="43.8789" lon="7.34219">
        <ele>697.57000732422</ele>
        <time>2011-03-20T08:25:50Z</time>
      </trkpt>
      <trkpt lat="43.87889" lon="7.34217">
        <ele>690.35998535156</ele>
        <time>2011-03-20T08:25:51Z</time>
      </trkpt>
      <trkpt lat="43.87888" lon="7.34215">
        <ele>693.25</ele>
        <time>2011-03-20T08:25:52Z</time>
      </trkpt>
      <trkpt lat="43.87884" lon="7.34208">
        <ele>695.16998291016</ele>
        <time>2011-03-20T08:25:57Z</time>
      </trkpt>
      <trkpt lat="43.87883" lon="7.34201">
        <ele>692.77001953125</ele>
        <time>2011-03-20T08:26:02Z</time>
      </trkpt>
      <trkpt lat="43.87883" lon="7.34199">
        <ele>695.16998291016</ele>
        <time>2011-03-20T08:26:03Z</time>
      </trkpt>
      <trkpt lat="43.87884" lon="7.34193">
        <ele>699.02001953125</ele>
        <time>2011-03-20T08:26:08Z</time>
      </trkpt>
      <trkpt lat="43.87883" lon="7.34188">
        <ele>699.5</ele>
        <time>2011-03-20T08:26:12Z</time>
      </trkpt>
      <trkpt lat="43.87881" lon="7.34182">
        <ele>705.26000976562</ele>
        <time>2011-03-20T08:26:16Z</time>
      </trkpt>
      <trkpt lat="43.87881" lon="7.34179">
        <ele>700.94000244141</ele>
        <time>2011-03-20T08:26:18Z</time>
      </trkpt>
      <trkpt lat="43.87881" lon="7.34177">
        <ele>701.41998291016</ele>
        <time>2011-03-20T08:26:19Z</time>
      </trkpt>
      <trkpt lat="43.8788" lon="7.34174">
        <ele>702.85998535156</ele>
        <time>2011-03-20T08:26:21Z</time>
      </trkpt>
      <trkpt lat="43.87879" lon="7.34171">
        <ele>699.02001953125</ele>
        <time>2011-03-20T08:26:23Z</time>
      </trkpt>
      <trkpt lat="43.87878" lon="7.3417">
        <ele>699.97998046875</ele>
        <time>2011-03-20T08:26:24Z</time>
      </trkpt>
      <trkpt lat="43.87878" lon="7.34166">
        <ele>702.38000488281</ele>
        <time>2011-03-20T08:26:27Z</time>
      </trkpt>
      <trkpt lat="43.87878" lon="7.34164">
        <ele>699.97998046875</ele>
        <time>2011-03-20T08:26:29Z</time>
      </trkpt>
      <trkpt lat="43.87878" lon="7.34162">
        <ele>704.29998779297</ele>
        <time>2011-03-20T08:26:30Z</time>
      </trkpt>
      <trkpt lat="43.87876" lon="7.34157">
        <ele>705.75</ele>
        <time>2011-03-20T08:26:33Z</time>
      </trkpt>
      <trkpt lat="43.87874" lon="7.34154">
        <ele>707.19000244141</ele>
        <time>2011-03-20T08:26:35Z</time>
      </trkpt>
      <trkpt lat="43.87873" lon="7.34152">
        <ele>701.90002441406</ele>
        <time>2011-03-20T08:26:39Z</time>
      </trkpt>
      <trkpt lat="43.87874" lon="7.34153">
        <ele>702.85998535156</ele>
        <time>2011-03-20T08:26:40Z</time>
      </trkpt>
      <trkpt lat="43.87875" lon="7.34153">
        <ele>707.19000244141</ele>
        <time>2011-03-20T08:26:41Z</time>
      </trkpt>
      <trkpt lat="43.87878" lon="7.34156">
        <ele>711.98999023438</ele>
        <time>2011-03-20T08:26:45Z</time>
      </trkpt>
      <trkpt lat="43.87879" lon="7.34159">
        <ele>707.19000244141</ele>
        <time>2011-03-20T08:26:48Z</time>
      </trkpt>
      <trkpt lat="43.8788" lon="7.34159">
        <ele>712.46997070312</ele>
        <time>2011-03-20T08:26:50Z</time>
      </trkpt>
      <trkpt lat="43.87881" lon="7.34158">
        <ele>711.51000976562</ele>
        <time>2011-03-20T08:26:51Z</time>
      </trkpt>
      <trkpt lat="43.87882" lon="7.34157">
        <ele>713.91998291016</ele>
        <time>2011-03-20T08:26:52Z</time>
      </trkpt>
      <trkpt lat="43.87882" lon="7.34154">
        <ele>711.98999023438</ele>
        <time>2011-03-20T08:26:54Z</time>
      </trkpt>
      <trkpt lat="43.87882" lon="7.34151">
        <ele>708.63000488281</ele>
        <time>2011-03-20T08:26:55Z</time>
      </trkpt>
      <trkpt lat="43.87881" lon="7.34149">
        <ele>711.98999023438</ele>
        <time>2011-03-20T08:26:56Z</time>
      </trkpt>
      <trkpt lat="43.87881" lon="7.34147">
        <ele>711.03002929688</ele>
        <time>2011-03-20T08:26:57Z</time>
      </trkpt>
      <trkpt lat="43.87881" lon="7.34144">
        <ele>710.07000732422</ele>
        <time>2011-03-20T08:26:59Z</time>
      </trkpt>
      <trkpt lat="43.87882" lon="7.34139">
        <ele>716.32000732422</ele>
        <time>2011-03-20T08:27:03Z</time>
      </trkpt>
      <trkpt lat="43.87884" lon="7.34135">
        <ele>715.35998535156</ele>
        <time>2011-03-20T08:27:05Z</time>
      </trkpt>
      <trkpt lat="43.8789" lon="7.34123">
        <ele>711.98999023438</ele>
        <time>2011-03-20T08:27:10Z</time>
      </trkpt>
      <trkpt lat="43.87893" lon="7.34118">
        <ele>715.35998535156</ele>
        <time>2011-03-20T08:27:12Z</time>
      </trkpt>
      <trkpt lat="43.87894" lon="7.34116">
        <ele>715.35998535156</ele>
        <time>2011-03-20T08:27:13Z</time>
      </trkpt>
      <trkpt lat="43.87899" lon="7.34096">
        <ele>719.67999267578</ele>
        <time>2011-03-20T08:27:21Z</time>
      </trkpt>
      <trkpt lat="43.87899" lon="7.34084">
        <ele>716.32000732422</ele>
        <time>2011-03-20T08:27:28Z</time>
      </trkpt>
      <trkpt lat="43.87899" lon="7.34082">
        <ele>719.20001220703</ele>
        <time>2011-03-20T08:27:29Z</time>
      </trkpt>
      <trkpt lat="43.87899" lon="7.34066">
        <ele>723.04998779297</ele>
        <time>2011-03-20T08:27:38Z</time>
      </trkpt>
      <trkpt lat="43.87898" lon="7.34064">
        <ele>718.71997070312</ele>
        <time>2011-03-20T08:27:39Z</time>
      </trkpt>
      <trkpt lat="43.87898" lon="7.34063">
        <ele>722.09002685547</ele>
        <time>2011-03-20T08:27:40Z</time>
      </trkpt>
      <trkpt lat="43.87895" lon="7.34056">
        <ele>727.36999511719</ele>
        <time>2011-03-20T08:27:44Z</time>
      </trkpt>
      <trkpt lat="43.87894" lon="7.34055">
        <ele>723.04998779297</ele>
        <time>2011-03-20T08:27:45Z</time>
      </trkpt>
      <trkpt lat="43.87894" lon="7.3405">
        <ele>724.96997070312</ele>
        <time>2011-03-20T08:27:48Z</time>
      </trkpt>
      <trkpt lat="43.87889" lon="7.34037">
        <ele>728.34002685547</ele>
        <time>2011-03-20T08:27:57Z</time>
      </trkpt>
      <trkpt lat="43.87888" lon="7.34035">
        <ele>724.48999023438</ele>
        <time>2011-03-20T08:27:58Z</time>
      </trkpt>
      <trkpt lat="43.87888" lon="7.34034">
        <ele>727.85998535156</ele>
        <time>2011-03-20T08:27:59Z</time>
      </trkpt>
      <trkpt lat="43.87887" lon="7.34029">
        <ele>731.21997070312</ele>
        <time>2011-03-20T08:28:02Z</time>
      </trkpt>
      <trkpt lat="43.87887" lon="7.34028">
        <ele>726.40997314453</ele>
        <time>2011-03-20T08:28:03Z</time>
      </trkpt>
      <trkpt lat="43.87887" lon="7.34027">
        <ele>726.40997314453</ele>
        <time>2011-03-20T08:28:04Z</time>
      </trkpt>
      <trkpt lat="43.87887" lon="7.34026">
        <ele>731.70001220703</ele>
        <time>2011-03-20T08:28:05Z</time>
      </trkpt>
      <trkpt lat="43.87888" lon="7.34024">
        <ele>735.54998779297</ele>
        <time>2011-03-20T08:28:06Z</time>
      </trkpt>
      <trkpt lat="43.87888" lon="7.34023">
        <ele>728.82000732422</ele>
        <time>2011-03-20T08:28:07Z</time>
      </trkpt>
      <trkpt lat="43.87888" lon="7.34022">
        <ele>732.17999267578</ele>
        <time>2011-03-20T08:28:08Z</time>
      </trkpt>
      <trkpt lat="43.87889" lon="7.34021">
        <ele>729.78002929688</ele>
        <time>2011-03-20T08:28:09Z</time>
      </trkpt>
      <trkpt lat="43.87886" lon="7.34014">
        <ele>733.61999511719</ele>
        <time>2011-03-20T08:28:15Z</time>
      </trkpt>
      <trkpt lat="43.87885" lon="7.34013">
        <ele>735.07000732422</ele>
        <time>2011-03-20T08:28:16Z</time>
      </trkpt>
      <trkpt lat="43.87885" lon="7.34008">
        <ele>738.42999267578</ele>
        <time>2011-03-20T08:28:20Z</time>
      </trkpt>
      <trkpt lat="43.87885" lon="7.34007">
        <ele>735.07000732422</ele>
        <time>2011-03-20T08:28:21Z</time>
      </trkpt>
      <trkpt lat="43.87885" lon="7.34005">
        <ele>735.07000732422</ele>
        <time>2011-03-20T08:28:23Z</time>
      </trkpt>
      <trkpt lat="43.87885" lon="7.34002">
        <ele>739.39001464844</ele>
        <time>2011-03-20T08:28:25Z</time>
      </trkpt>
      <trkpt lat="43.87886" lon="7.34001">
        <ele>735.07000732422</ele>
        <time>2011-03-20T08:28:26Z</time>
      </trkpt>
      <trkpt lat="43.87886" lon="7.33995">
        <ele>739.86999511719</ele>
        <time>2011-03-20T08:28:30Z</time>
      </trkpt>
      <trkpt lat="43.87887" lon="7.33981">
        <ele>740.83001708984</ele>
        <time>2011-03-20T08:28:40Z</time>
      </trkpt>
      <trkpt lat="43.87883" lon="7.33977">
        <ele>744.67999267578</ele>
        <time>2011-03-20T08:28:45Z</time>
      </trkpt>
      <trkpt lat="43.87881" lon="7.33974">
        <ele>742.28002929688</ele>
        <time>2011-03-20T08:28:47Z</time>
      </trkpt>
      <trkpt lat="43.87884" lon="7.33947">
        <ele>748.52001953125</ele>
        <time>2011-03-20T08:28:58Z</time>
      </trkpt>
      <trkpt lat="43.8788" lon="7.33942">
        <ele>751.40997314453</ele>
        <time>2011-03-20T08:29:01Z</time>
      </trkpt>
      <trkpt lat="43.87879" lon="7.33941">
        <ele>747.55999755859</ele>
        <time>2011-03-20T08:29:02Z</time>
      </trkpt>
      <trkpt lat="43.87877" lon="7.3394">
        <ele>750.92999267578</ele>
        <time>2011-03-20T08:29:03Z</time>
      </trkpt>
      <trkpt lat="43.8787" lon="7.33927">
        <ele>754.77001953125</ele>
        <time>2011-03-20T08:29:14Z</time>
      </trkpt>
      <trkpt lat="43.87871" lon="7.33918">
        <ele>750.92999267578</ele>
        <time>2011-03-20T08:29:20Z</time>
      </trkpt>
      <trkpt lat="43.87873" lon="7.33913">
        <ele>755.72998046875</ele>
        <time>2011-03-20T08:29:24Z</time>
      </trkpt>
      <trkpt lat="43.87874" lon="7.33912">
        <ele>754.77001953125</ele>
        <time>2011-03-20T08:29:25Z</time>
      </trkpt>
      <trkpt lat="43.87878" lon="7.33902">
        <ele>756.21002197266</ele>
        <time>2011-03-20T08:29:33Z</time>
      </trkpt>
      <trkpt lat="43.8788" lon="7.33899">
        <ele>754.77001953125</ele>
        <time>2011-03-20T08:29:35Z</time>
      </trkpt>
      <trkpt lat="43.8788" lon="7.33897">
        <ele>758.14001464844</ele>
        <time>2011-03-20T08:29:37Z</time>
      </trkpt>
      <trkpt lat="43.87877" lon="7.33893">
        <ele>758.61999511719</ele>
        <time>2011-03-20T08:29:41Z</time>
      </trkpt>
      <trkpt lat="43.87873" lon="7.33891">
        <ele>757.17999267578</ele>
        <time>2011-03-20T08:29:45Z</time>
      </trkpt>
      <trkpt lat="43.87872" lon="7.3389">
        <ele>761.02001953125</ele>
        <time>2011-03-20T08:29:46Z</time>
      </trkpt>
      <trkpt lat="43.87869" lon="7.33888">
        <ele>763.41998291016</ele>
        <time>2011-03-20T08:29:49Z</time>
      </trkpt>
      <trkpt lat="43.87865" lon="7.33882">
        <ele>763.90002441406</ele>
        <time>2011-03-20T08:29:54Z</time>
      </trkpt>
      <trkpt lat="43.87864" lon="7.33877">
        <ele>760.53997802734</ele>
        <time>2011-03-20T08:29:58Z</time>
      </trkpt>
      <trkpt lat="43.87864" lon="7.33875">
        <ele>767.27001953125</ele>
        <time>2011-03-20T08:29:59Z</time>
      </trkpt>
      <trkpt lat="43.87863" lon="7.33874">
        <ele>766.30999755859</ele>
        <time>2011-03-20T08:30:00Z</time>
      </trkpt>
      <trkpt lat="43.87857" lon="7.33865">
        <ele>764.86999511719</ele>
        <time>2011-03-20T08:30:05Z</time>
      </trkpt>
      <trkpt lat="43.87854" lon="7.33861">
        <ele>766.78997802734</ele>
        <time>2011-03-20T08:30:07Z</time>
      </trkpt>
      <trkpt lat="43.87839" lon="7.33827">
        <ele>770.15002441406</ele>
        <time>2011-03-20T08:30:20Z</time>
      </trkpt>
      <trkpt lat="43.87838" lon="7.33825">
        <ele>765.83001708984</ele>
        <time>2011-03-20T08:30:21Z</time>
      </trkpt>
      <trkpt lat="43.87838" lon="7.33822">
        <ele>770.63000488281</ele>
        <time>2011-03-20T08:30:22Z</time>
      </trkpt>
      <trkpt lat="43.87833" lon="7.33807">
        <ele>774</ele>
        <time>2011-03-20T08:30:30Z</time>
      </trkpt>
      <trkpt lat="43.87835" lon="7.33792">
        <ele>769.66998291016</ele>
        <time>2011-03-20T08:30:36Z</time>
      </trkpt>
      <trkpt lat="43.87836" lon="7.33789">
        <ele>772.55999755859</ele>
        <time>2011-03-20T08:30:37Z</time>
      </trkpt>
      <trkpt lat="43.87842" lon="7.33772">
        <ele>775.91998291016</ele>
        <time>2011-03-20T08:30:44Z</time>
      </trkpt>
      <trkpt lat="43.87843" lon="7.3377">
        <ele>775.91998291016</ele>
        <time>2011-03-20T08:30:45Z</time>
      </trkpt>
      <trkpt lat="43.87852" lon="7.3374">
        <ele>777.84002685547</ele>
        <time>2011-03-20T08:30:57Z</time>
      </trkpt>
      <trkpt lat="43.87863" lon="7.33726">
        <ele>782.65002441406</ele>
        <time>2011-03-20T08:31:04Z</time>
      </trkpt>
      <trkpt lat="43.87864" lon="7.33724">
        <ele>776.40002441406</ele>
        <time>2011-03-20T08:31:05Z</time>
      </trkpt>
      <trkpt lat="43.87865" lon="7.33722">
        <ele>779.28997802734</ele>
        <time>2011-03-20T08:31:06Z</time>
      </trkpt>
      <trkpt lat="43.87872" lon="7.33711">
        <ele>783.60998535156</ele>
        <time>2011-03-20T08:31:11Z</time>
      </trkpt>
      <trkpt lat="43.87873" lon="7.33709">
        <ele>782.65002441406</ele>
        <time>2011-03-20T08:31:12Z</time>
      </trkpt>
      <trkpt lat="43.87892" lon="7.33686">
        <ele>786.02001953125</ele>
        <time>2011-03-20T08:31:23Z</time>
      </trkpt>
      <trkpt lat="43.87895" lon="7.33684">
        <ele>782.16998291016</ele>
        <time>2011-03-20T08:31:25Z</time>
      </trkpt>
      <trkpt lat="43.87897" lon="7.33681">
        <ele>786.02001953125</ele>
        <time>2011-03-20T08:31:27Z</time>
      </trkpt>
      <trkpt lat="43.87901" lon="7.33676">
        <ele>784.57000732422</ele>
        <time>2011-03-20T08:31:32Z</time>
      </trkpt>
      <trkpt lat="43.87904" lon="7.3367">
        <ele>788.41998291016</ele>
        <time>2011-03-20T08:31:36Z</time>
      </trkpt>
      <trkpt lat="43.87904" lon="7.33669">
        <ele>782.65002441406</ele>
        <time>2011-03-20T08:31:37Z</time>
      </trkpt>
      <trkpt lat="43.87905" lon="7.33668">
        <ele>785.53002929688</ele>
        <time>2011-03-20T08:31:38Z</time>
      </trkpt>
      <trkpt lat="43.87905" lon="7.33668">
        <ele>788.90002441406</ele>
        <time>2011-03-20T08:31:39Z</time>
      </trkpt>
      <trkpt lat="43.87904" lon="7.33667">
        <ele>784.09002685547</ele>
        <time>2011-03-20T08:31:40Z</time>
      </trkpt>
      <trkpt lat="43.87905" lon="7.33666">
        <ele>789.38000488281</ele>
        <time>2011-03-20T08:31:43Z</time>
      </trkpt>
      <trkpt lat="43.87906" lon="7.33665">
        <ele>786.97998046875</ele>
        <time>2011-03-20T08:31:44Z</time>
      </trkpt>
      <trkpt lat="43.87912" lon="7.33657">
        <ele>786.5</ele>
        <time>2011-03-20T08:31:48Z</time>
      </trkpt>
      <trkpt lat="43.87914" lon="7.33654">
        <ele>789.85998535156</ele>
        <time>2011-03-20T08:31:49Z</time>
      </trkpt>
      <trkpt lat="43.87915" lon="7.33652">
        <ele>788.90002441406</ele>
        <time>2011-03-20T08:31:50Z</time>
      </trkpt>
      <trkpt lat="43.87923" lon="7.33642">
        <ele>785.53002929688</ele>
        <time>2011-03-20T08:31:54Z</time>
      </trkpt>
      <trkpt lat="43.8793" lon="7.33633">
        <ele>788.41998291016</ele>
        <time>2011-03-20T08:31:58Z</time>
      </trkpt>
      <trkpt lat="43.87933" lon="7.33627">
        <ele>789.38000488281</ele>
        <time>2011-03-20T08:32:00Z</time>
      </trkpt>
      <trkpt lat="43.87936" lon="7.33622">
        <ele>785.53002929688</ele>
        <time>2011-03-20T08:32:02Z</time>
      </trkpt>
      <trkpt lat="43.87937" lon="7.33619">
        <ele>788.90002441406</ele>
        <time>2011-03-20T08:32:03Z</time>
      </trkpt>
      <trkpt lat="43.87947" lon="7.33603">
        <ele>792.73999023438</ele>
        <time>2011-03-20T08:32:09Z</time>
      </trkpt>
      <trkpt lat="43.87949" lon="7.33601">
        <ele>789.85998535156</ele>
        <time>2011-03-20T08:32:10Z</time>
      </trkpt>
      <trkpt lat="43.87953" lon="7.33595">
        <ele>794.66998291016</ele>
        <time>2011-03-20T08:32:12Z</time>
      </trkpt>
      <trkpt lat="43.87955" lon="7.33593">
        <ele>791.29998779297</ele>
        <time>2011-03-20T08:32:13Z</time>
      </trkpt>
      <trkpt lat="43.87984" lon="7.33566">
        <ele>792.73999023438</ele>
        <time>2011-03-20T08:32:26Z</time>
      </trkpt>
      <trkpt lat="43.8801" lon="7.33544">
        <ele>794.19000244141</ele>
        <time>2011-03-20T08:32:37Z</time>
      </trkpt>
      <trkpt lat="43.88031" lon="7.33509">
        <ele>792.73999023438</ele>
        <time>2011-03-20T08:32:48Z</time>
      </trkpt>
      <trkpt lat="43.88032" lon="7.33505">
        <ele>796.59002685547</ele>
        <time>2011-03-20T08:32:49Z</time>
      </trkpt>
      <trkpt lat="43.88034" lon="7.33501">
        <ele>791.78002929688</ele>
        <time>2011-03-20T08:32:50Z</time>
      </trkpt>
      <trkpt lat="43.88035" lon="7.33497">
        <ele>796.59002685547</ele>
        <time>2011-03-20T08:32:51Z</time>
      </trkpt>
      <trkpt lat="43.88036" lon="7.33493">
        <ele>792.26000976562</ele>
        <time>2011-03-20T08:32:52Z</time>
      </trkpt>
      <trkpt lat="43.88043" lon="7.33468">
        <ele>793.71002197266</ele>
        <time>2011-03-20T08:32:58Z</time>
      </trkpt>
      <trkpt lat="43.88052" lon="7.33451">
        <ele>790.34002685547</ele>
        <time>2011-03-20T08:33:03Z</time>
      </trkpt>
      <trkpt lat="43.88057" lon="7.33442">
        <ele>793.71002197266</ele>
        <time>2011-03-20T08:33:06Z</time>
      </trkpt>
      <trkpt lat="43.88061" lon="7.33434">
        <ele>789.85998535156</ele>
        <time>2011-03-20T08:33:08Z</time>
      </trkpt>
      <trkpt lat="43.88063" lon="7.3343">
        <ele>789.85998535156</ele>
        <time>2011-03-20T08:33:09Z</time>
      </trkpt>
      <trkpt lat="43.88073" lon="7.33407">
        <ele>791.29998779297</ele>
        <time>2011-03-20T08:33:15Z</time>
      </trkpt>
      <trkpt lat="43.881" lon="7.33366">
        <ele>791.29998779297</ele>
        <time>2011-03-20T08:33:28Z</time>
      </trkpt>
      <trkpt lat="43.88118" lon="7.33335">
        <ele>795.63000488281</ele>
        <time>2011-03-20T08:33:40Z</time>
      </trkpt>
      <trkpt lat="43.88118" lon="7.33333">
        <ele>795.63000488281</ele>
        <time>2011-03-20T08:33:41Z</time>
      </trkpt>
      <trkpt lat="43.8813" lon="7.33312">
        <ele>799.46997070312</ele>
        <time>2011-03-20T08:33:50Z</time>
      </trkpt>
      <trkpt lat="43.88131" lon="7.33309">
        <ele>795.63000488281</ele>
        <time>2011-03-20T08:33:51Z</time>
      </trkpt>
      <trkpt lat="43.88131" lon="7.33306">
        <ele>799.46997070312</ele>
        <time>2011-03-20T08:33:52Z</time>
      </trkpt>
      <trkpt lat="43.88132" lon="7.33278">
        <ele>799.46997070312</ele>
        <time>2011-03-20T08:33:59Z</time>
      </trkpt>
      <trkpt lat="43.88127" lon="7.33261">
        <ele>795.63000488281</ele>
        <time>2011-03-20T08:34:03Z</time>
      </trkpt>
      <trkpt lat="43.88124" lon="7.33235">
        <ele>794.66998291016</ele>
        <time>2011-03-20T08:34:09Z</time>
      </trkpt>
      <trkpt lat="43.88125" lon="7.33227">
        <ele>791.29998779297</ele>
        <time>2011-03-20T08:34:11Z</time>
      </trkpt>
      <trkpt lat="43.88122" lon="7.33221">
        <ele>797.54998779297</ele>
        <time>2011-03-20T08:34:13Z</time>
      </trkpt>
      <trkpt lat="43.8812" lon="7.33219">
        <ele>796.10998535156</ele>
        <time>2011-03-20T08:34:14Z</time>
      </trkpt>
      <trkpt lat="43.88106" lon="7.33204">
        <ele>794.66998291016</ele>
        <time>2011-03-20T08:34:21Z</time>
      </trkpt>
      <trkpt lat="43.88092" lon="7.33194">
        <ele>796.59002685547</ele>
        <time>2011-03-20T08:34:26Z</time>
      </trkpt>
      <trkpt lat="43.88077" lon="7.33187">
        <ele>794.19000244141</ele>
        <time>2011-03-20T08:34:33Z</time>
      </trkpt>
      <trkpt lat="43.88062" lon="7.33184">
        <ele>791.29998779297</ele>
        <time>2011-03-20T08:34:41Z</time>
      </trkpt>
      <trkpt lat="43.88059" lon="7.33184">
        <ele>793.21997070312</ele>
        <time>2011-03-20T08:34:43Z</time>
      </trkpt>
      <trkpt lat="43.88057" lon="7.33184">
        <ele>792.73999023438</ele>
        <time>2011-03-20T08:34:45Z</time>
      </trkpt>
      <trkpt lat="43.8805" lon="7.33183">
        <ele>794.66998291016</ele>
        <time>2011-03-20T08:34:48Z</time>
      </trkpt>
      <trkpt lat="43.88029" lon="7.3317">
        <ele>791.29998779297</ele>
        <time>2011-03-20T08:34:56Z</time>
      </trkpt>
      <trkpt lat="43.88026" lon="7.33168">
        <ele>791.78002929688</ele>
        <time>2011-03-20T08:34:57Z</time>
      </trkpt>
      <trkpt lat="43.8802" lon="7.33164">
        <ele>793.71002197266</ele>
        <time>2011-03-20T08:35:00Z</time>
      </trkpt>
      <trkpt lat="43.88008" lon="7.33158">
        <ele>797.54998779297</ele>
        <time>2011-03-20T08:35:05Z</time>
      </trkpt>
      <trkpt lat="43.88004" lon="7.33154">
        <ele>794.66998291016</ele>
        <time>2011-03-20T08:35:08Z</time>
      </trkpt>
      <trkpt lat="43.88003" lon="7.33153">
        <ele>799.46997070312</ele>
        <time>2011-03-20T08:35:09Z</time>
      </trkpt>
      <trkpt lat="43.88002" lon="7.33152">
        <ele>796.10998535156</ele>
        <time>2011-03-20T08:35:10Z</time>
      </trkpt>
      <trkpt lat="43.88002" lon="7.33151">
        <ele>798.98999023438</ele>
        <time>2011-03-20T08:35:11Z</time>
      </trkpt>
      <trkpt lat="43.87999" lon="7.33149">
        <ele>799.95001220703</ele>
        <time>2011-03-20T08:35:14Z</time>
      </trkpt>
      <trkpt lat="43.87997" lon="7.3315">
        <ele>798.03002929688</ele>
        <time>2011-03-20T08:35:17Z</time>
      </trkpt>
      <trkpt lat="43.87994" lon="7.33149">
        <ele>799.95001220703</ele>
        <time>2011-03-20T08:35:19Z</time>
      </trkpt>
      <trkpt lat="43.87976" lon="7.33139">
        <ele>801.88000488281</ele>
        <time>2011-03-20T08:35:30Z</time>
      </trkpt>
      <trkpt lat="43.87967" lon="7.33129">
        <ele>805.23999023438</ele>
        <time>2011-03-20T08:35:34Z</time>
      </trkpt>
      <trkpt lat="43.87944" lon="7.33109">
        <ele>801.40002441406</ele>
        <time>2011-03-20T08:35:45Z</time>
      </trkpt>
      <trkpt lat="43.87925" lon="7.33073">
        <ele>800.91998291016</ele>
        <time>2011-03-20T08:35:56Z</time>
      </trkpt>
      <trkpt lat="43.87918" lon="7.33055">
        <ele>800.44000244141</ele>
        <time>2011-03-20T08:36:01Z</time>
      </trkpt>
      <trkpt lat="43.87909" lon="7.33045">
        <ele>799.95001220703</ele>
        <time>2011-03-20T08:36:06Z</time>
      </trkpt>
      <trkpt lat="43.87898" lon="7.33039">
        <ele>802.84002685547</ele>
        <time>2011-03-20T08:36:10Z</time>
      </trkpt>
      <trkpt lat="43.87875" lon="7.33022">
        <ele>806.20001220703</ele>
        <time>2011-03-20T08:36:21Z</time>
      </trkpt>
      <trkpt lat="43.87866" lon="7.33019">
        <ele>807.15997314453</ele>
        <time>2011-03-20T08:36:26Z</time>
      </trkpt>
      <trkpt lat="43.87858" lon="7.33">
        <ele>805.71997070312</ele>
        <time>2011-03-20T08:36:34Z</time>
      </trkpt>
      <trkpt lat="43.87829" lon="7.33002">
        <ele>803.32000732422</ele>
        <time>2011-03-20T08:36:46Z</time>
      </trkpt>
      <trkpt lat="43.87823" lon="7.33">
        <ele>805.23999023438</ele>
        <time>2011-03-20T08:36:48Z</time>
      </trkpt>
      <trkpt lat="43.87816" lon="7.32999">
        <ele>802.35998535156</ele>
        <time>2011-03-20T08:36:51Z</time>
      </trkpt>
      <trkpt lat="43.87812" lon="7.32998">
        <ele>803.79998779297</ele>
        <time>2011-03-20T08:36:53Z</time>
      </trkpt>
      <trkpt lat="43.87806" lon="7.32999">
        <ele>805.71997070312</ele>
        <time>2011-03-20T08:36:56Z</time>
      </trkpt>
      <trkpt lat="43.87791" lon="7.33009">
        <ele>801.40002441406</ele>
        <time>2011-03-20T08:37:03Z</time>
      </trkpt>
      <trkpt lat="43.87783" lon="7.33018">
        <ele>800.91998291016</ele>
        <time>2011-03-20T08:37:07Z</time>
      </trkpt>
      <trkpt lat="43.87767" lon="7.33022">
        <ele>801.40002441406</ele>
        <time>2011-03-20T08:37:12Z</time>
      </trkpt>
      <trkpt lat="43.87761" lon="7.33022">
        <ele>799.46997070312</ele>
        <time>2011-03-20T08:37:14Z</time>
      </trkpt>
      <trkpt lat="43.87755" lon="7.33022">
        <ele>798.03002929688</ele>
        <time>2011-03-20T08:37:16Z</time>
      </trkpt>
      <trkpt lat="43.87747" lon="7.33027">
        <ele>796.10998535156</ele>
        <time>2011-03-20T08:37:19Z</time>
      </trkpt>
      <trkpt lat="43.87722" lon="7.33035">
        <ele>796.59002685547</ele>
        <time>2011-03-20T08:37:28Z</time>
      </trkpt>
      <trkpt lat="43.87712" lon="7.33037">
        <ele>795.15002441406</ele>
        <time>2011-03-20T08:37:31Z</time>
      </trkpt>
      <trkpt lat="43.87688" lon="7.33046">
        <ele>792.26000976562</ele>
        <time>2011-03-20T08:37:39Z</time>
      </trkpt>
      <trkpt lat="43.87682" lon="7.33049">
        <ele>795.15002441406</ele>
        <time>2011-03-20T08:37:41Z</time>
      </trkpt>
      <trkpt lat="43.87679" lon="7.3305">
        <ele>795.63000488281</ele>
        <time>2011-03-20T08:37:42Z</time>
      </trkpt>
      <trkpt lat="43.87675" lon="7.3305">
        <ele>792.26000976562</ele>
        <time>2011-03-20T08:37:43Z</time>
      </trkpt>
      <trkpt lat="43.8767" lon="7.33051">
        <ele>795.63000488281</ele>
        <time>2011-03-20T08:37:45Z</time>
      </trkpt>
      <trkpt lat="43.87667" lon="7.33052">
        <ele>795.15002441406</ele>
        <time>2011-03-20T08:37:46Z</time>
      </trkpt>
      <trkpt lat="43.87665" lon="7.33052">
        <ele>794.19000244141</ele>
        <time>2011-03-20T08:37:47Z</time>
      </trkpt>
      <trkpt lat="43.87656" lon="7.33067">
        <ele>796.59002685547</ele>
        <time>2011-03-20T08:37:55Z</time>
      </trkpt>
      <trkpt lat="43.87647" lon="7.33078">
        <ele>793.21997070312</ele>
        <time>2011-03-20T08:38:01Z</time>
      </trkpt>
      <trkpt lat="43.87643" lon="7.33083">
        <ele>792.26000976562</ele>
        <time>2011-03-20T08:38:03Z</time>
      </trkpt>
      <trkpt lat="43.87622" lon="7.33088">
        <ele>790.82000732422</ele>
        <time>2011-03-20T08:38:09Z</time>
      </trkpt>
      <trkpt lat="43.87586" lon="7.33088">
        <ele>789.38000488281</ele>
        <time>2011-03-20T08:38:19Z</time>
      </trkpt>
      <trkpt lat="43.87564" lon="7.33071">
        <ele>786.97998046875</ele>
        <time>2011-03-20T08:38:28Z</time>
      </trkpt>
      <trkpt lat="43.87563" lon="7.33067">
        <ele>784.57000732422</ele>
        <time>2011-03-20T08:38:29Z</time>
      </trkpt>
      <trkpt lat="43.87561" lon="7.33053">
        <ele>782.65002441406</ele>
        <time>2011-03-20T08:38:32Z</time>
      </trkpt>
      <trkpt lat="43.87561" lon="7.33049">
        <ele>785.53002929688</ele>
        <time>2011-03-20T08:38:33Z</time>
      </trkpt>
      <trkpt lat="43.8756" lon="7.3304">
        <ele>781.69000244141</ele>
        <time>2011-03-20T08:38:35Z</time>
      </trkpt>
      <trkpt lat="43.87559" lon="7.33027">
        <ele>785.53002929688</ele>
        <time>2011-03-20T08:38:38Z</time>
      </trkpt>
      <trkpt lat="43.87557" lon="7.33022">
        <ele>777.84002685547</ele>
        <time>2011-03-20T08:38:39Z</time>
      </trkpt>
      <trkpt lat="43.87556" lon="7.33018">
        <ele>781.69000244141</ele>
        <time>2011-03-20T08:38:40Z</time>
      </trkpt>
      <trkpt lat="43.87544" lon="7.3299">
        <ele>776.88000488281</ele>
        <time>2011-03-20T08:38:47Z</time>
      </trkpt>
      <trkpt lat="43.87541" lon="7.32982">
        <ele>775.91998291016</ele>
        <time>2011-03-20T08:38:49Z</time>
      </trkpt>
      <trkpt lat="43.87538" lon="7.32973">
        <ele>779.77001953125</ele>
        <time>2011-03-20T08:38:51Z</time>
      </trkpt>
      <trkpt lat="43.87536" lon="7.32969">
        <ele>775.44000244141</ele>
        <time>2011-03-20T08:38:52Z</time>
      </trkpt>
      <trkpt lat="43.87535" lon="7.32956">
        <ele>782.16998291016</ele>
        <time>2011-03-20T08:38:55Z</time>
      </trkpt>
      <trkpt lat="43.87535" lon="7.32952">
        <ele>778.80999755859</ele>
        <time>2011-03-20T08:38:56Z</time>
      </trkpt>
      <trkpt lat="43.87534" lon="7.32935">
        <ele>774</ele>
        <time>2011-03-20T08:39:01Z</time>
      </trkpt>
      <trkpt lat="43.87533" lon="7.32932">
        <ele>775.91998291016</ele>
        <time>2011-03-20T08:39:02Z</time>
      </trkpt>
      <trkpt lat="43.87531" lon="7.32923">
        <ele>777.35998535156</ele>
        <time>2011-03-20T08:39:04Z</time>
      </trkpt>
      <trkpt lat="43.8753" lon="7.32913">
        <ele>780.72998046875</ele>
        <time>2011-03-20T08:39:07Z</time>
      </trkpt>
      <trkpt lat="43.8753" lon="7.32909">
        <ele>783.60998535156</ele>
        <time>2011-03-20T08:39:08Z</time>
      </trkpt>
      <trkpt lat="43.87527" lon="7.329">
        <ele>777.35998535156</ele>
        <time>2011-03-20T08:39:11Z</time>
      </trkpt>
      <trkpt lat="43.87522" lon="7.32892">
        <ele>781.69000244141</ele>
        <time>2011-03-20T08:39:14Z</time>
      </trkpt>
      <trkpt lat="43.87521" lon="7.32885">
        <ele>778.80999755859</ele>
        <time>2011-03-20T08:39:19Z</time>
      </trkpt>
      <trkpt lat="43.87515" lon="7.32857">
        <ele>778.32000732422</ele>
        <time>2011-03-20T08:39:28Z</time>
      </trkpt>
      <trkpt lat="43.87515" lon="7.3284">
        <ele>778.80999755859</ele>
        <time>2011-03-20T08:39:32Z</time>
      </trkpt>
      <trkpt lat="43.87519" lon="7.32799">
        <ele>778.80999755859</ele>
        <time>2011-03-20T08:39:42Z</time>
      </trkpt>
      <trkpt lat="43.87516" lon="7.32782">
        <ele>777.35998535156</ele>
        <time>2011-03-20T08:39:47Z</time>
      </trkpt>
      <trkpt lat="43.87515" lon="7.32776">
        <ele>775.44000244141</ele>
        <time>2011-03-20T08:39:49Z</time>
      </trkpt>
      <trkpt lat="43.87515" lon="7.32774">
        <ele>778.80999755859</ele>
        <time>2011-03-20T08:39:50Z</time>
      </trkpt>
      <trkpt lat="43.87514" lon="7.32769">
        <ele>777.35998535156</ele>
        <time>2011-03-20T08:39:53Z</time>
      </trkpt>
      <trkpt lat="43.87496" lon="7.32764">
        <ele>775.91998291016</ele>
        <time>2011-03-20T08:40:02Z</time>
      </trkpt>
      <trkpt lat="43.87492" lon="7.32761">
        <ele>778.80999755859</ele>
        <time>2011-03-20T08:40:04Z</time>
      </trkpt>
      <trkpt lat="43.87487" lon="7.32751">
        <ele>781.69000244141</ele>
        <time>2011-03-20T08:40:13Z</time>
      </trkpt>
      <trkpt lat="43.87481" lon="7.32744">
        <ele>781.69000244141</ele>
        <time>2011-03-20T08:40:17Z</time>
      </trkpt>
      <trkpt lat="43.87475" lon="7.32739">
        <ele>778.80999755859</ele>
        <time>2011-03-20T08:40:20Z</time>
      </trkpt>
      <trkpt lat="43.8746" lon="7.32743">
        <ele>782.65002441406</ele>
        <time>2011-03-20T08:40:27Z</time>
      </trkpt>
      <trkpt lat="43.87432" lon="7.32726">
        <ele>784.57000732422</ele>
        <time>2011-03-20T08:40:40Z</time>
      </trkpt>
      <trkpt lat="43.87431" lon="7.32724">
        <ele>785.04998779297</ele>
        <time>2011-03-20T08:40:41Z</time>
      </trkpt>
      <trkpt lat="43.8741" lon="7.32735">
        <ele>783.60998535156</ele>
        <time>2011-03-20T08:40:51Z</time>
      </trkpt>
      <trkpt lat="43.87407" lon="7.3274">
        <ele>784.57000732422</ele>
        <time>2011-03-20T08:40:53Z</time>
      </trkpt>
      <trkpt lat="43.87402" lon="7.32741">
        <ele>783.13000488281</ele>
        <time>2011-03-20T08:40:55Z</time>
      </trkpt>
      <trkpt lat="43.87377" lon="7.32716">
        <ele>786.5</ele>
        <time>2011-03-20T08:41:06Z</time>
      </trkpt>
      <trkpt lat="43.87357" lon="7.32712">
        <ele>788.41998291016</ele>
        <time>2011-03-20T08:41:15Z</time>
      </trkpt>
      <trkpt lat="43.87321" lon="7.32707">
        <ele>786.02001953125</ele>
        <time>2011-03-20T08:41:29Z</time>
      </trkpt>
      <trkpt lat="43.87307" lon="7.32699">
        <ele>785.04998779297</ele>
        <time>2011-03-20T08:41:34Z</time>
      </trkpt>
      <trkpt lat="43.87303" lon="7.32695">
        <ele>786.5</ele>
        <time>2011-03-20T08:41:36Z</time>
      </trkpt>
      <trkpt lat="43.873" lon="7.3268">
        <ele>788.41998291016</ele>
        <time>2011-03-20T08:41:40Z</time>
      </trkpt>
      <trkpt lat="43.87304" lon="7.32665">
        <ele>789.85998535156</ele>
        <time>2011-03-20T08:41:44Z</time>
      </trkpt>
      <trkpt lat="43.87305" lon="7.32661">
        <ele>786.02001953125</ele>
        <time>2011-03-20T08:41:45Z</time>
      </trkpt>
      <trkpt lat="43.8731" lon="7.32647">
        <ele>789.85998535156</ele>
        <time>2011-03-20T08:41:49Z</time>
      </trkpt>
      <trkpt lat="43.87315" lon="7.32637">
        <ele>785.53002929688</ele>
        <time>2011-03-20T08:41:52Z</time>
      </trkpt>
      <trkpt lat="43.8732" lon="7.32626">
        <ele>789.38000488281</ele>
        <time>2011-03-20T08:41:55Z</time>
      </trkpt>
      <trkpt lat="43.87327" lon="7.32612">
        <ele>785.53002929688</ele>
        <time>2011-03-20T08:41:59Z</time>
      </trkpt>
      <trkpt lat="43.87337" lon="7.32588">
        <ele>789.38000488281</ele>
        <time>2011-03-20T08:42:06Z</time>
      </trkpt>
      <trkpt lat="43.87347" lon="7.3255">
        <ele>786.5</ele>
        <time>2011-03-20T08:42:17Z</time>
      </trkpt>
      <trkpt lat="43.87362" lon="7.32505">
        <ele>784.57000732422</ele>
        <time>2011-03-20T08:42:29Z</time>
      </trkpt>
      <trkpt lat="43.87364" lon="7.32497">
        <ele>787.94000244141</ele>
        <time>2011-03-20T08:42:31Z</time>
      </trkpt>
      <trkpt lat="43.87365" lon="7.32489">
        <ele>784.09002685547</ele>
        <time>2011-03-20T08:42:33Z</time>
      </trkpt>
      <trkpt lat="43.87366" lon="7.32485">
        <ele>786.97998046875</ele>
        <time>2011-03-20T08:42:34Z</time>
      </trkpt>
      <trkpt lat="43.87385" lon="7.32452">
        <ele>786.97998046875</ele>
        <time>2011-03-20T08:42:44Z</time>
      </trkpt>
      <trkpt lat="43.87417" lon="7.32428">
        <ele>788.90002441406</ele>
        <time>2011-03-20T08:42:57Z</time>
      </trkpt>
      <trkpt lat="43.87429" lon="7.32406">
        <ele>792.26000976562</ele>
        <time>2011-03-20T08:43:05Z</time>
      </trkpt>
      <trkpt lat="43.87434" lon="7.32384">
        <ele>792.26000976562</ele>
        <time>2011-03-20T08:43:12Z</time>
      </trkpt>
      <trkpt lat="43.87434" lon="7.32381">
        <ele>793.71002197266</ele>
        <time>2011-03-20T08:43:13Z</time>
      </trkpt>
      <trkpt lat="43.87434" lon="7.32373">
        <ele>790.82000732422</ele>
        <time>2011-03-20T08:43:16Z</time>
      </trkpt>
      <trkpt lat="43.87428" lon="7.32362">
        <ele>795.15002441406</ele>
        <time>2011-03-20T08:43:20Z</time>
      </trkpt>
      <trkpt lat="43.87426" lon="7.3236">
        <ele>795.15002441406</ele>
        <time>2011-03-20T08:43:21Z</time>
      </trkpt>
      <trkpt lat="43.8742" lon="7.32356">
        <ele>790.34002685547</ele>
        <time>2011-03-20T08:43:23Z</time>
      </trkpt>
      <trkpt lat="43.87415" lon="7.32353">
        <ele>788.41998291016</ele>
        <time>2011-03-20T08:43:25Z</time>
      </trkpt>
      <trkpt lat="43.87408" lon="7.32352">
        <ele>785.53002929688</ele>
        <time>2011-03-20T08:43:29Z</time>
      </trkpt>
      <trkpt lat="43.87402" lon="7.32352">
        <ele>785.04998779297</ele>
        <time>2011-03-20T08:43:32Z</time>
      </trkpt>
      <trkpt lat="43.87392" lon="7.32349">
        <ele>783.13000488281</ele>
        <time>2011-03-20T08:43:36Z</time>
      </trkpt>
      <trkpt lat="43.87385" lon="7.32348">
        <ele>780.72998046875</ele>
        <time>2011-03-20T08:43:40Z</time>
      </trkpt>
      <trkpt lat="43.87379" lon="7.32351">
        <ele>776.88000488281</ele>
        <time>2011-03-20T08:43:44Z</time>
      </trkpt>
      <trkpt lat="43.87378" lon="7.32351">
        <ele>778.80999755859</ele>
        <time>2011-03-20T08:43:45Z</time>
      </trkpt>
      <trkpt lat="43.87369" lon="7.32343">
        <ele>773.03997802734</ele>
        <time>2011-03-20T08:43:49Z</time>
      </trkpt>
      <trkpt lat="43.87362" lon="7.32338">
        <ele>771.10998535156</ele>
        <time>2011-03-20T08:43:52Z</time>
      </trkpt>
      <trkpt lat="43.87349" lon="7.3232">
        <ele>767.27001953125</ele>
        <time>2011-03-20T08:43:58Z</time>
      </trkpt>
      <trkpt lat="43.87325" lon="7.32296">
        <ele>763.90002441406</ele>
        <time>2011-03-20T08:44:07Z</time>
      </trkpt>
      <trkpt lat="43.87321" lon="7.32294">
        <ele>763.90002441406</ele>
        <time>2011-03-20T08:44:08Z</time>
      </trkpt>
      <trkpt lat="43.87306" lon="7.32287">
        <ele>761.5</ele>
        <time>2011-03-20T08:44:13Z</time>
      </trkpt>
      <trkpt lat="43.87296" lon="7.32284">
        <ele>758.14001464844</ele>
        <time>2011-03-20T08:44:16Z</time>
      </trkpt>
      <trkpt lat="43.87293" lon="7.32283">
        <ele>759.58001708984</ele>
        <time>2011-03-20T08:44:17Z</time>
      </trkpt>
      <trkpt lat="43.87284" lon="7.32281">
        <ele>754.77001953125</ele>
        <time>2011-03-20T08:44:20Z</time>
      </trkpt>
      <trkpt lat="43.87277" lon="7.32282">
        <ele>758.61999511719</ele>
        <time>2011-03-20T08:44:22Z</time>
      </trkpt>
      <trkpt lat="43.87274" lon="7.32282">
        <ele>753.33001708984</ele>
        <time>2011-03-20T08:44:23Z</time>
      </trkpt>
      <trkpt lat="43.87245" lon="7.32287">
        <ele>749.96997070312</ele>
        <time>2011-03-20T08:44:31Z</time>
      </trkpt>
      <trkpt lat="43.87242" lon="7.32287">
        <ele>749.96997070312</ele>
        <time>2011-03-20T08:44:32Z</time>
      </trkpt>
      <trkpt lat="43.87232" lon="7.32288">
        <ele>747.08001708984</ele>
        <time>2011-03-20T08:44:35Z</time>
      </trkpt>
      <trkpt lat="43.87228" lon="7.32289">
        <ele>747.08001708984</ele>
        <time>2011-03-20T08:44:36Z</time>
      </trkpt>
      <trkpt lat="43.87193" lon="7.32291">
        <ele>742.28002929688</ele>
        <time>2011-03-20T08:44:46Z</time>
      </trkpt>
      <trkpt lat="43.8719" lon="7.3229">
        <ele>742.28002929688</ele>
        <time>2011-03-20T08:44:47Z</time>
      </trkpt>
      <trkpt lat="43.8718" lon="7.32287">
        <ele>741.30999755859</ele>
        <time>2011-03-20T08:44:50Z</time>
      </trkpt>
      <trkpt lat="43.87173" lon="7.32286">
        <ele>738.42999267578</ele>
        <time>2011-03-20T08:44:53Z</time>
      </trkpt>
      <trkpt lat="43.87171" lon="7.32287">
        <ele>739.39001464844</ele>
        <time>2011-03-20T08:44:54Z</time>
      </trkpt>
      <trkpt lat="43.87169" lon="7.32288">
        <ele>739.86999511719</ele>
        <time>2011-03-20T08:44:55Z</time>
      </trkpt>
      <trkpt lat="43.87159" lon="7.32289">
        <ele>736.03002929688</ele>
        <time>2011-03-20T08:44:58Z</time>
      </trkpt>
      <trkpt lat="43.87143" lon="7.32277">
        <ele>732.17999267578</ele>
        <time>2011-03-20T08:45:03Z</time>
      </trkpt>
      <trkpt lat="43.8714" lon="7.32274">
        <ele>731.70001220703</ele>
        <time>2011-03-20T08:45:04Z</time>
      </trkpt>
      <trkpt lat="43.87135" lon="7.32269">
        <ele>733.14001464844</ele>
        <time>2011-03-20T08:45:06Z</time>
      </trkpt>
      <trkpt lat="43.87117" lon="7.32253">
        <ele>728.82000732422</ele>
        <time>2011-03-20T08:45:13Z</time>
      </trkpt>
      <trkpt lat="43.87112" lon="7.32249">
        <ele>727.85998535156</ele>
        <time>2011-03-20T08:45:15Z</time>
      </trkpt>
      <trkpt lat="43.87104" lon="7.32229">
        <ele>724.48999023438</ele>
        <time>2011-03-20T08:45:21Z</time>
      </trkpt>
      <trkpt lat="43.871" lon="7.32209">
        <ele>721.13000488281</ele>
        <time>2011-03-20T08:45:26Z</time>
      </trkpt>
      <trkpt lat="43.87099" lon="7.32205">
        <ele>721.60998535156</ele>
        <time>2011-03-20T08:45:27Z</time>
      </trkpt>
      <trkpt lat="43.87097" lon="7.32197">
        <ele>717.76000976562</ele>
        <time>2011-03-20T08:45:29Z</time>
      </trkpt>
      <trkpt lat="43.87096" lon="7.32192">
        <ele>718.23999023438</ele>
        <time>2011-03-20T08:45:30Z</time>
      </trkpt>
      <trkpt lat="43.87095" lon="7.32188">
        <ele>719.67999267578</ele>
        <time>2011-03-20T08:45:31Z</time>
      </trkpt>
      <trkpt lat="43.87073" lon="7.32159">
        <ele>716.79998779297</ele>
        <time>2011-03-20T08:45:41Z</time>
      </trkpt>
      <trkpt lat="43.87056" lon="7.32163">
        <ele>717.28002929688</ele>
        <time>2011-03-20T08:45:47Z</time>
      </trkpt>
      <trkpt lat="43.87039" lon="7.32165">
        <ele>716.32000732422</ele>
        <time>2011-03-20T08:45:52Z</time>
      </trkpt>
      <trkpt lat="43.87026" lon="7.32176">
        <ele>715.35998535156</ele>
        <time>2011-03-20T08:45:58Z</time>
      </trkpt>
      <trkpt lat="43.87017" lon="7.32179">
        <ele>716.79998779297</ele>
        <time>2011-03-20T08:46:01Z</time>
      </trkpt>
      <trkpt lat="43.87008" lon="7.32181">
        <ele>713.91998291016</ele>
        <time>2011-03-20T08:46:04Z</time>
      </trkpt>
      <trkpt lat="43.87003" lon="7.32186">
        <ele>713.91998291016</ele>
        <time>2011-03-20T08:46:06Z</time>
      </trkpt>
      <trkpt lat="43.86983" lon="7.32209">
        <ele>711.03002929688</ele>
        <time>2011-03-20T08:46:14Z</time>
      </trkpt>
      <trkpt lat="43.86967" lon="7.32223">
        <ele>713.91998291016</ele>
        <time>2011-03-20T08:46:20Z</time>
      </trkpt>
      <trkpt lat="43.86961" lon="7.32231">
        <ele>711.98999023438</ele>
        <time>2011-03-20T08:46:23Z</time>
      </trkpt>
      <trkpt lat="43.86948" lon="7.32243">
        <ele>712.46997070312</ele>
        <time>2011-03-20T08:46:28Z</time>
      </trkpt>
      <trkpt lat="43.86911" lon="7.32265">
        <ele>711.98999023438</ele>
        <time>2011-03-20T08:46:41Z</time>
      </trkpt>
      <trkpt lat="43.86868" lon="7.32288">
        <ele>711.03002929688</ele>
        <time>2011-03-20T08:46:56Z</time>
      </trkpt>
      <trkpt lat="43.86863" lon="7.32291">
        <ele>714.40002441406</ele>
        <time>2011-03-20T08:46:58Z</time>
      </trkpt>
      <trkpt lat="43.8686" lon="7.32293">
        <ele>709.59002685547</ele>
        <time>2011-03-20T08:46:59Z</time>
      </trkpt>
      <trkpt lat="43.8684" lon="7.32303">
        <ele>712.95001220703</ele>
        <time>2011-03-20T08:47:05Z</time>
      </trkpt>
      <trkpt lat="43.86834" lon="7.32306">
        <ele>709.59002685547</ele>
        <time>2011-03-20T08:47:07Z</time>
      </trkpt>
      <trkpt lat="43.86819" lon="7.32316">
        <ele>708.15002441406</ele>
        <time>2011-03-20T08:47:12Z</time>
      </trkpt>
      <trkpt lat="43.86784" lon="7.32324">
        <ele>707.66998291016</ele>
        <time>2011-03-20T08:47:23Z</time>
      </trkpt>
      <trkpt lat="43.86769" lon="7.32335">
        <ele>705.26000976562</ele>
        <time>2011-03-20T08:47:29Z</time>
      </trkpt>
      <trkpt lat="43.86755" lon="7.32335">
        <ele>705.26000976562</ele>
        <time>2011-03-20T08:47:33Z</time>
      </trkpt>
      <trkpt lat="43.86742" lon="7.32344">
        <ele>706.22998046875</ele>
        <time>2011-03-20T08:47:39Z</time>
      </trkpt>
      <trkpt lat="43.86718" lon="7.32376">
        <ele>705.26000976562</ele>
        <time>2011-03-20T08:47:50Z</time>
      </trkpt>
      <trkpt lat="43.86687" lon="7.32393">
        <ele>708.63000488281</ele>
        <time>2011-03-20T08:48:01Z</time>
      </trkpt>
      <trkpt lat="43.86684" lon="7.32394">
        <ele>708.15002441406</ele>
        <time>2011-03-20T08:48:02Z</time>
      </trkpt>
      <trkpt lat="43.86642" lon="7.32392">
        <ele>705.75</ele>
        <time>2011-03-20T08:48:15Z</time>
      </trkpt>
      <trkpt lat="43.86614" lon="7.32372">
        <ele>709.59002685547</ele>
        <time>2011-03-20T08:48:25Z</time>
      </trkpt>
      <trkpt lat="43.86599" lon="7.32361">
        <ele>706.22998046875</ele>
        <time>2011-03-20T08:48:31Z</time>
      </trkpt>
      <trkpt lat="43.86596" lon="7.32359">
        <ele>709.10998535156</ele>
        <time>2011-03-20T08:48:32Z</time>
      </trkpt>
      <trkpt lat="43.86592" lon="7.32353">
        <ele>706.22998046875</ele>
        <time>2011-03-20T08:48:34Z</time>
      </trkpt>
      <trkpt lat="43.86583" lon="7.32349">
        <ele>706.22998046875</ele>
        <time>2011-03-20T08:48:38Z</time>
      </trkpt>
      <trkpt lat="43.86564" lon="7.32374">
        <ele>705.26000976562</ele>
        <time>2011-03-20T08:48:46Z</time>
      </trkpt>
      <trkpt lat="43.86551" lon="7.32375">
        <ele>699.97998046875</ele>
        <time>2011-03-20T08:48:50Z</time>
      </trkpt>
      <trkpt lat="43.86547" lon="7.32375">
        <ele>704.29998779297</ele>
        <time>2011-03-20T08:48:51Z</time>
      </trkpt>
      <trkpt lat="43.8654" lon="7.32374">
        <ele>700.46002197266</ele>
        <time>2011-03-20T08:48:53Z</time>
      </trkpt>
      <trkpt lat="43.86523" lon="7.32357">
        <ele>698.04998779297</ele>
        <time>2011-03-20T08:48:59Z</time>
      </trkpt>
      <trkpt lat="43.86516" lon="7.32339">
        <ele>698.04998779297</ele>
        <time>2011-03-20T08:49:03Z</time>
      </trkpt>
      <trkpt lat="43.86513" lon="7.32325">
        <ele>696.60998535156</ele>
        <time>2011-03-20T08:49:06Z</time>
      </trkpt>
      <trkpt lat="43.86508" lon="7.32294">
        <ele>694.69000244141</ele>
        <time>2011-03-20T08:49:13Z</time>
      </trkpt>
      <trkpt lat="43.86504" lon="7.32287">
        <ele>692.77001953125</ele>
        <time>2011-03-20T08:49:16Z</time>
      </trkpt>
      <trkpt lat="43.86494" lon="7.32291">
        <ele>694.21002197266</ele>
        <time>2011-03-20T08:49:20Z</time>
      </trkpt>
      <trkpt lat="43.86462" lon="7.32291">
        <ele>693.72998046875</ele>
        <time>2011-03-20T08:49:30Z</time>
      </trkpt>
      <trkpt lat="43.86456" lon="7.32294">
        <ele>691.80999755859</ele>
        <time>2011-03-20T08:49:32Z</time>
      </trkpt>
      <trkpt lat="43.86425" lon="7.32308">
        <ele>691.33001708984</ele>
        <time>2011-03-20T08:49:42Z</time>
      </trkpt>
      <trkpt lat="43.86398" lon="7.3232">
        <ele>690.35998535156</ele>
        <time>2011-03-20T08:49:51Z</time>
      </trkpt>
      <trkpt lat="43.86386" lon="7.32326">
        <ele>689.88000488281</ele>
        <time>2011-03-20T08:49:55Z</time>
      </trkpt>
      <trkpt lat="43.86362" lon="7.32344">
        <ele>685.08001708984</ele>
        <time>2011-03-20T08:50:03Z</time>
      </trkpt>
      <trkpt lat="43.8636" lon="7.32346">
        <ele>685.55999755859</ele>
        <time>2011-03-20T08:50:04Z</time>
      </trkpt>
      <trkpt lat="43.86356" lon="7.3235">
        <ele>685.08001708984</ele>
        <time>2011-03-20T08:50:06Z</time>
      </trkpt>
      <trkpt lat="43.86347" lon="7.32356">
        <ele>682.66998291016</ele>
        <time>2011-03-20T08:50:09Z</time>
      </trkpt>
      <trkpt lat="43.86344" lon="7.32357">
        <ele>683.63000488281</ele>
        <time>2011-03-20T08:50:10Z</time>
      </trkpt>
      <trkpt lat="43.86337" lon="7.32359">
        <ele>680.75</ele>
        <time>2011-03-20T08:50:12Z</time>
      </trkpt>
      <trkpt lat="43.86321" lon="7.32367">
        <ele>676.41998291016</ele>
        <time>2011-03-20T08:50:17Z</time>
      </trkpt>
      <trkpt lat="43.86319" lon="7.32369">
        <ele>677.86999511719</ele>
        <time>2011-03-20T08:50:18Z</time>
      </trkpt>
      <trkpt lat="43.86303" lon="7.32378">
        <ele>673.53997802734</ele>
        <time>2011-03-20T08:50:23Z</time>
      </trkpt>
      <trkpt lat="43.863" lon="7.32379">
        <ele>677.39001464844</ele>
        <time>2011-03-20T08:50:24Z</time>
      </trkpt>
      <trkpt lat="43.86293" lon="7.32381">
        <ele>674.02001953125</ele>
        <time>2011-03-20T08:50:26Z</time>
      </trkpt>
      <trkpt lat="43.86257" lon="7.3238">
        <ele>677.39001464844</ele>
        <time>2011-03-20T08:50:36Z</time>
      </trkpt>
      <trkpt lat="43.86254" lon="7.32381">
        <ele>674.5</ele>
        <time>2011-03-20T08:50:37Z</time>
      </trkpt>
      <trkpt lat="43.8623" lon="7.32391">
        <ele>674.02001953125</ele>
        <time>2011-03-20T08:50:46Z</time>
      </trkpt>
      <trkpt lat="43.86223" lon="7.32394">
        <ele>670.65997314453</ele>
        <time>2011-03-20T08:50:48Z</time>
      </trkpt>
      <trkpt lat="43.86198" lon="7.32415">
        <ele>668.72998046875</ele>
        <time>2011-03-20T08:50:57Z</time>
      </trkpt>
      <trkpt lat="43.86168" lon="7.32434">
        <ele>666.80999755859</ele>
        <time>2011-03-20T08:51:07Z</time>
      </trkpt>
      <trkpt lat="43.8615" lon="7.32434">
        <ele>665.36999511719</ele>
        <time>2011-03-20T08:51:12Z</time>
      </trkpt>
      <trkpt lat="43.86128" lon="7.32442">
        <ele>664.40997314453</ele>
        <time>2011-03-20T08:51:19Z</time>
      </trkpt>
      <trkpt lat="43.86103" lon="7.32419">
        <ele>659.59997558594</ele>
        <time>2011-03-20T08:51:27Z</time>
      </trkpt>
      <trkpt lat="43.86102" lon="7.32414">
        <ele>660.08001708984</ele>
        <time>2011-03-20T08:51:28Z</time>
      </trkpt>
      <trkpt lat="43.86097" lon="7.32382">
        <ele>655.76000976562</ele>
        <time>2011-03-20T08:51:34Z</time>
      </trkpt>
      <trkpt lat="43.86093" lon="7.32364">
        <ele>655.76000976562</ele>
        <time>2011-03-20T08:51:38Z</time>
      </trkpt>
      <trkpt lat="43.86083" lon="7.32339">
        <ele>652.39001464844</ele>
        <time>2011-03-20T08:51:45Z</time>
      </trkpt>
      <trkpt lat="43.86073" lon="7.32315">
        <ele>649.51000976562</ele>
        <time>2011-03-20T08:51:51Z</time>
      </trkpt>
      <trkpt lat="43.86061" lon="7.32292">
        <ele>646.14001464844</ele>
        <time>2011-03-20T08:51:57Z</time>
      </trkpt>
      <trkpt lat="43.8606" lon="7.32288">
        <ele>646.61999511719</ele>
        <time>2011-03-20T08:51:58Z</time>
      </trkpt>
      <trkpt lat="43.86052" lon="7.32272">
        <ele>646.14001464844</ele>
        <time>2011-03-20T08:52:02Z</time>
      </trkpt>
      <trkpt lat="43.86042" lon="7.3223">
        <ele>645.17999267578</ele>
        <time>2011-03-20T08:52:12Z</time>
      </trkpt>
      <trkpt lat="43.86036" lon="7.32209">
        <ele>641.82000732422</ele>
        <time>2011-03-20T08:52:17Z</time>
      </trkpt>
      <trkpt lat="43.86033" lon="7.32201">
        <ele>642.78002929688</ele>
        <time>2011-03-20T08:52:19Z</time>
      </trkpt>
      <trkpt lat="43.86034" lon="7.32154">
        <ele>638.45001220703</ele>
        <time>2011-03-20T08:52:30Z</time>
      </trkpt>
      <trkpt lat="43.86036" lon="7.32141">
        <ele>637.48999023438</ele>
        <time>2011-03-20T08:52:33Z</time>
      </trkpt>
      <trkpt lat="43.86037" lon="7.32132">
        <ele>639.40997314453</ele>
        <time>2011-03-20T08:52:35Z</time>
      </trkpt>
      <trkpt lat="43.86031" lon="7.32118">
        <ele>639.89001464844</ele>
        <time>2011-03-20T08:52:39Z</time>
      </trkpt>
      <trkpt lat="43.86031" lon="7.32098">
        <ele>639.40997314453</ele>
        <time>2011-03-20T08:52:44Z</time>
      </trkpt>
      <trkpt lat="43.86027" lon="7.32086">
        <ele>635.57000732422</ele>
        <time>2011-03-20T08:52:49Z</time>
      </trkpt>
      <trkpt lat="43.86025" lon="7.32084">
        <ele>637.48999023438</ele>
        <time>2011-03-20T08:52:50Z</time>
      </trkpt>
      <trkpt lat="43.86021" lon="7.32065">
        <ele>636.04998779297</ele>
        <time>2011-03-20T08:52:55Z</time>
      </trkpt>
      <trkpt lat="43.86025" lon="7.32035">
        <ele>632.20001220703</ele>
        <time>2011-03-20T08:53:03Z</time>
      </trkpt>
      <trkpt lat="43.86024" lon="7.3202">
        <ele>631.71997070312</ele>
        <time>2011-03-20T08:53:09Z</time>
      </trkpt>
      <trkpt lat="43.86022" lon="7.32015">
        <ele>632.20001220703</ele>
        <time>2011-03-20T08:53:11Z</time>
      </trkpt>
      <trkpt lat="43.86022" lon="7.32003">
        <ele>628.84002685547</ele>
        <time>2011-03-20T08:53:15Z</time>
      </trkpt>
      <trkpt lat="43.86023" lon="7.3199">
        <ele>624.03002929688</ele>
        <time>2011-03-20T08:53:19Z</time>
      </trkpt>
      <trkpt lat="43.86023" lon="7.31974">
        <ele>624.03002929688</ele>
        <time>2011-03-20T08:53:23Z</time>
      </trkpt>
      <trkpt lat="43.86021" lon="7.3195">
        <ele>620.66998291016</ele>
        <time>2011-03-20T08:53:30Z</time>
      </trkpt>
      <trkpt lat="43.86018" lon="7.31943">
        <ele>620.19000244141</ele>
        <time>2011-03-20T08:53:32Z</time>
      </trkpt>
      <trkpt lat="43.86012" lon="7.31925">
        <ele>615.85998535156</ele>
        <time>2011-03-20T08:53:38Z</time>
      </trkpt>
      <trkpt lat="43.8601" lon="7.31922">
        <ele>619.22998046875</ele>
        <time>2011-03-20T08:53:39Z</time>
      </trkpt>
      <trkpt lat="43.86" lon="7.31909">
        <ele>614.41998291016</ele>
        <time>2011-03-20T08:53:44Z</time>
      </trkpt>
      <trkpt lat="43.85994" lon="7.31901">
        <ele>613.94000244141</ele>
        <time>2011-03-20T08:53:47Z</time>
      </trkpt>
      <trkpt lat="43.85986" lon="7.31894">
        <ele>612.02001953125</ele>
        <time>2011-03-20T08:53:50Z</time>
      </trkpt>
      <trkpt lat="43.85974" lon="7.31879">
        <ele>611.05999755859</ele>
        <time>2011-03-20T08:53:55Z</time>
      </trkpt>
      <trkpt lat="43.85969" lon="7.31869">
        <ele>607.69000244141</ele>
        <time>2011-03-20T08:53:58Z</time>
      </trkpt>
      <trkpt lat="43.85966" lon="7.3186">
        <ele>606.72998046875</ele>
        <time>2011-03-20T08:54:01Z</time>
      </trkpt>
      <trkpt lat="43.8596" lon="7.31846">
        <ele>603.35998535156</ele>
        <time>2011-03-20T08:54:05Z</time>
      </trkpt>
      <trkpt lat="43.85952" lon="7.31834">
        <ele>603.84997558594</ele>
        <time>2011-03-20T08:54:08Z</time>
      </trkpt>
      <trkpt lat="43.85944" lon="7.31825">
        <ele>599.03997802734</ele>
        <time>2011-03-20T08:54:12Z</time>
      </trkpt>
      <trkpt lat="43.85939" lon="7.31824">
        <ele>602.40002441406</ele>
        <time>2011-03-20T08:54:14Z</time>
      </trkpt>
      <trkpt lat="43.85934" lon="7.31821">
        <ele>599.03997802734</ele>
        <time>2011-03-20T08:54:16Z</time>
      </trkpt>
      <trkpt lat="43.85932" lon="7.31819">
        <ele>600.47998046875</ele>
        <time>2011-03-20T08:54:17Z</time>
      </trkpt>
      <trkpt lat="43.85924" lon="7.31814">
        <ele>599.03997802734</ele>
        <time>2011-03-20T08:54:20Z</time>
      </trkpt>
      <trkpt lat="43.8591" lon="7.31808">
        <ele>600</ele>
        <time>2011-03-20T08:54:24Z</time>
      </trkpt>
      <trkpt lat="43.859" lon="7.31806">
        <ele>599.52001953125</ele>
        <time>2011-03-20T08:54:27Z</time>
      </trkpt>
      <trkpt lat="43.85892" lon="7.31802">
        <ele>596.64001464844</ele>
        <time>2011-03-20T08:54:30Z</time>
      </trkpt>
      <trkpt lat="43.85884" lon="7.31799">
        <ele>591.83001708984</ele>
        <time>2011-03-20T08:54:33Z</time>
      </trkpt>
      <trkpt lat="43.8588" lon="7.31794">
        <ele>594.22998046875</ele>
        <time>2011-03-20T08:54:35Z</time>
      </trkpt>
      <trkpt lat="43.85867" lon="7.31772">
        <ele>592.30999755859</ele>
        <time>2011-03-20T08:54:42Z</time>
      </trkpt>
      <trkpt lat="43.85866" lon="7.31769">
        <ele>588.95001220703</ele>
        <time>2011-03-20T08:54:43Z</time>
      </trkpt>
      <trkpt lat="43.85864" lon="7.31767">
        <ele>589.90997314453</ele>
        <time>2011-03-20T08:54:44Z</time>
      </trkpt>
      <trkpt lat="43.85859" lon="7.31759">
        <ele>588.95001220703</ele>
        <time>2011-03-20T08:54:47Z</time>
      </trkpt>
      <trkpt lat="43.85865" lon="7.31753">
        <ele>583.65997314453</ele>
        <time>2011-03-20T08:54:53Z</time>
      </trkpt>
      <trkpt lat="43.85866" lon="7.31753">
        <ele>584.14001464844</ele>
        <time>2011-03-20T08:54:54Z</time>
      </trkpt>
      <trkpt lat="43.85858" lon="7.3174">
        <ele>580.77001953125</ele>
        <time>2011-03-20T08:55:01Z</time>
      </trkpt>
      <trkpt lat="43.85856" lon="7.31738">
        <ele>580.28997802734</ele>
        <time>2011-03-20T08:55:02Z</time>
      </trkpt>
      <trkpt lat="43.85852" lon="7.31729">
        <ele>577.40997314453</ele>
        <time>2011-03-20T08:55:05Z</time>
      </trkpt>
      <trkpt lat="43.85855" lon="7.3172">
        <ele>574.53002929688</ele>
        <time>2011-03-20T08:55:09Z</time>
      </trkpt>
      <trkpt lat="43.85862" lon="7.31715">
        <ele>575.48999023438</ele>
        <time>2011-03-20T08:55:13Z</time>
      </trkpt>
      <trkpt lat="43.85874" lon="7.31713">
        <ele>573.08001708984</ele>
        <time>2011-03-20T08:55:18Z</time>
      </trkpt>
      <trkpt lat="43.85881" lon="7.31713">
        <ele>569.71997070312</ele>
        <time>2011-03-20T08:55:22Z</time>
      </trkpt>
      <trkpt lat="43.85889" lon="7.31718">
        <ele>568.28002929688</ele>
        <time>2011-03-20T08:55:26Z</time>
      </trkpt>
      <trkpt lat="43.8589" lon="7.31713">
        <ele>564.42999267578</ele>
        <time>2011-03-20T08:55:29Z</time>
      </trkpt>
      <trkpt lat="43.85889" lon="7.3171">
        <ele>567.32000732422</ele>
        <time>2011-03-20T08:55:30Z</time>
      </trkpt>
      <trkpt lat="43.85888" lon="7.31695">
        <ele>562.98999023438</ele>
        <time>2011-03-20T08:55:34Z</time>
      </trkpt>
      <trkpt lat="43.85896" lon="7.31681">
        <ele>560.10998535156</ele>
        <time>2011-03-20T08:55:39Z</time>
      </trkpt>
      <trkpt lat="43.85901" lon="7.31679">
        <ele>560.59002685547</ele>
        <time>2011-03-20T08:55:41Z</time>
      </trkpt>
      <trkpt lat="43.85905" lon="7.31678">
        <ele>558.17999267578</ele>
        <time>2011-03-20T08:55:43Z</time>
      </trkpt>
      <trkpt lat="43.85906" lon="7.31676">
        <ele>557.21997070312</ele>
        <time>2011-03-20T08:55:44Z</time>
      </trkpt>
      <trkpt lat="43.85915" lon="7.31669">
        <ele>551.92999267578</ele>
        <time>2011-03-20T08:55:49Z</time>
      </trkpt>
      <trkpt lat="43.85922" lon="7.31662">
        <ele>550.96997070312</ele>
        <time>2011-03-20T08:55:53Z</time>
      </trkpt>
      <trkpt lat="43.85922" lon="7.31656">
        <ele>550.96997070312</ele>
        <time>2011-03-20T08:55:55Z</time>
      </trkpt>
      <trkpt lat="43.85925" lon="7.31645">
        <ele>548.57000732422</ele>
        <time>2011-03-20T08:55:59Z</time>
      </trkpt>
      <trkpt lat="43.85931" lon="7.3164">
        <ele>545.20001220703</ele>
        <time>2011-03-20T08:56:02Z</time>
      </trkpt>
      <trkpt lat="43.85944" lon="7.31626">
        <ele>540.88000488281</ele>
        <time>2011-03-20T08:56:08Z</time>
      </trkpt>
      <trkpt lat="43.85952" lon="7.31609">
        <ele>538.96002197266</ele>
        <time>2011-03-20T08:56:13Z</time>
      </trkpt>
      <trkpt lat="43.85953" lon="7.31606">
        <ele>537.98999023438</ele>
        <time>2011-03-20T08:56:14Z</time>
      </trkpt>
      <trkpt lat="43.85957" lon="7.31599">
        <ele>535.10998535156</ele>
        <time>2011-03-20T08:56:17Z</time>
      </trkpt>
      <trkpt lat="43.8596" lon="7.31595">
        <ele>534.15002441406</ele>
        <time>2011-03-20T08:56:19Z</time>
      </trkpt>
      <trkpt lat="43.85967" lon="7.31592">
        <ele>530.78997802734</ele>
        <time>2011-03-20T08:56:24Z</time>
      </trkpt>
      <trkpt lat="43.85972" lon="7.31597">
        <ele>528.38000488281</ele>
        <time>2011-03-20T08:56:28Z</time>
      </trkpt>
      <trkpt lat="43.85984" lon="7.31592">
        <ele>526.94000244141</ele>
        <time>2011-03-20T08:56:33Z</time>
      </trkpt>
      <trkpt lat="43.85989" lon="7.31585">
        <ele>522.13000488281</ele>
        <time>2011-03-20T08:56:36Z</time>
      </trkpt>
      <trkpt lat="43.85991" lon="7.31582">
        <ele>523.58001708984</ele>
        <time>2011-03-20T08:56:37Z</time>
      </trkpt>
      <trkpt lat="43.86" lon="7.31561">
        <ele>519.25</ele>
        <time>2011-03-20T08:56:44Z</time>
      </trkpt>
      <trkpt lat="43.86005" lon="7.31558">
        <ele>516.84997558594</ele>
        <time>2011-03-20T08:56:46Z</time>
      </trkpt>
      <trkpt lat="43.86008" lon="7.31558">
        <ele>518.28997802734</ele>
        <time>2011-03-20T08:56:47Z</time>
      </trkpt>
      <trkpt lat="43.86016" lon="7.31553">
        <ele>516.84997558594</ele>
        <time>2011-03-20T08:56:52Z</time>
      </trkpt>
      <trkpt lat="43.86014" lon="7.31544">
        <ele>513</ele>
        <time>2011-03-20T08:56:56Z</time>
      </trkpt>
      <trkpt lat="43.86008" lon="7.3153">
        <ele>510.60000610352</ele>
        <time>2011-03-20T08:57:01Z</time>
      </trkpt>
      <trkpt lat="43.86011" lon="7.31517">
        <ele>507.70999145508</ele>
        <time>2011-03-20T08:57:06Z</time>
      </trkpt>
      <trkpt lat="43.86014" lon="7.31514">
        <ele>507.23001098633</ele>
        <time>2011-03-20T08:57:08Z</time>
      </trkpt>
      <trkpt lat="43.86022" lon="7.31507">
        <ele>501.45999145508</ele>
        <time>2011-03-20T08:57:12Z</time>
      </trkpt>
      <trkpt lat="43.86024" lon="7.31505">
        <ele>502.91000366211</ele>
        <time>2011-03-20T08:57:13Z</time>
      </trkpt>
      <trkpt lat="43.86032" lon="7.31501">
        <ele>498.57998657227</ele>
        <time>2011-03-20T08:57:16Z</time>
      </trkpt>
      <trkpt lat="43.86037" lon="7.315">
        <ele>499.05999755859</ele>
        <time>2011-03-20T08:57:18Z</time>
      </trkpt>
      <trkpt lat="43.86042" lon="7.315">
        <ele>498.10000610352</ele>
        <time>2011-03-20T08:57:20Z</time>
      </trkpt>
      <trkpt lat="43.86045" lon="7.31497">
        <ele>497.14001464844</ele>
        <time>2011-03-20T08:57:22Z</time>
      </trkpt>
      <trkpt lat="43.86049" lon="7.31487">
        <ele>496.17999267578</ele>
        <time>2011-03-20T08:57:26Z</time>
      </trkpt>
      <trkpt lat="43.86053" lon="7.31484">
        <ele>494.73999023438</ele>
        <time>2011-03-20T08:57:28Z</time>
      </trkpt>
      <trkpt lat="43.86071" lon="7.31484">
        <ele>494.26000976562</ele>
        <time>2011-03-20T08:57:34Z</time>
      </trkpt>
      <trkpt lat="43.86075" lon="7.31475">
        <ele>494.73999023438</ele>
        <time>2011-03-20T08:57:37Z</time>
      </trkpt>
      <trkpt lat="43.86088" lon="7.31452">
        <ele>492.80999755859</ele>
        <time>2011-03-20T08:57:44Z</time>
      </trkpt>
      <trkpt lat="43.86102" lon="7.31437">
        <ele>495.70001220703</ele>
        <time>2011-03-20T08:57:50Z</time>
      </trkpt>
      <trkpt lat="43.86104" lon="7.31435">
        <ele>494.73999023438</ele>
        <time>2011-03-20T08:57:51Z</time>
      </trkpt>
      <trkpt lat="43.86121" lon="7.31435">
        <ele>491.85000610352</ele>
        <time>2011-03-20T08:57:59Z</time>
      </trkpt>
      <trkpt lat="43.86134" lon="7.31433">
        <ele>492.80999755859</ele>
        <time>2011-03-20T08:58:04Z</time>
      </trkpt>
      <trkpt lat="43.86137" lon="7.31416">
        <ele>492.80999755859</ele>
        <time>2011-03-20T08:58:09Z</time>
      </trkpt>
      <trkpt lat="43.86144" lon="7.31397">
        <ele>494.26000976562</ele>
        <time>2011-03-20T08:58:15Z</time>
      </trkpt>
      <trkpt lat="43.86145" lon="7.31387">
        <ele>493.76998901367</ele>
        <time>2011-03-20T08:58:19Z</time>
      </trkpt>
      <trkpt lat="43.86138" lon="7.3138">
        <ele>493.76998901367</ele>
        <time>2011-03-20T08:58:22Z</time>
      </trkpt>
      <trkpt lat="43.86134" lon="7.3137">
        <ele>492.32998657227</ele>
        <time>2011-03-20T08:58:26Z</time>
      </trkpt>
      <trkpt lat="43.86152" lon="7.31344">
        <ele>494.26000976562</ele>
        <time>2011-03-20T08:58:34Z</time>
      </trkpt>
      <trkpt lat="43.86159" lon="7.31301">
        <ele>491.36999511719</ele>
        <time>2011-03-20T08:58:45Z</time>
      </trkpt>
      <trkpt lat="43.86163" lon="7.31281">
        <ele>491.85000610352</ele>
        <time>2011-03-20T08:58:50Z</time>
      </trkpt>
      <trkpt lat="43.86161" lon="7.31257">
        <ele>488.9700012207</ele>
        <time>2011-03-20T08:58:55Z</time>
      </trkpt>
      <trkpt lat="43.86161" lon="7.31252">
        <ele>492.32998657227</ele>
        <time>2011-03-20T08:58:56Z</time>
      </trkpt>
      <trkpt lat="43.86174" lon="7.31206">
        <ele>490.41000366211</ele>
        <time>2011-03-20T08:59:07Z</time>
      </trkpt>
      <trkpt lat="43.86182" lon="7.31187">
        <ele>486.55999755859</ele>
        <time>2011-03-20T08:59:12Z</time>
      </trkpt>
      <trkpt lat="43.86184" lon="7.31182">
        <ele>486.07998657227</ele>
        <time>2011-03-20T08:59:13Z</time>
      </trkpt>
      <trkpt lat="43.86186" lon="7.31173">
        <ele>483.20001220703</ele>
        <time>2011-03-20T08:59:15Z</time>
      </trkpt>
      <trkpt lat="43.86188" lon="7.31168">
        <ele>482.7200012207</ele>
        <time>2011-03-20T08:59:16Z</time>
      </trkpt>
      <trkpt lat="43.86192" lon="7.31159">
        <ele>481.2799987793</ele>
        <time>2011-03-20T08:59:18Z</time>
      </trkpt>
      <trkpt lat="43.86195" lon="7.31155">
        <ele>479.83999633789</ele>
        <time>2011-03-20T08:59:19Z</time>
      </trkpt>
      <trkpt lat="43.86212" lon="7.31134">
        <ele>478.86999511719</ele>
        <time>2011-03-20T08:59:25Z</time>
      </trkpt>
      <trkpt lat="43.86223" lon="7.31124">
        <ele>475.98999023438</ele>
        <time>2011-03-20T08:59:29Z</time>
      </trkpt>
      <trkpt lat="43.86234" lon="7.31106">
        <ele>473.58999633789</ele>
        <time>2011-03-20T08:59:35Z</time>
      </trkpt>
      <trkpt lat="43.8623" lon="7.3109">
        <ele>471.66000366211</ele>
        <time>2011-03-20T08:59:39Z</time>
      </trkpt>
      <trkpt lat="43.86214" lon="7.31074">
        <ele>469.73999023438</ele>
        <time>2011-03-20T08:59:45Z</time>
      </trkpt>
      <trkpt lat="43.86209" lon="7.31061">
        <ele>468.29998779297</ele>
        <time>2011-03-20T08:59:50Z</time>
      </trkpt>
      <trkpt lat="43.86235" lon="7.31047">
        <ele>464.45001220703</ele>
        <time>2011-03-20T08:59:57Z</time>
      </trkpt>
      <trkpt lat="43.86257" lon="7.31005">
        <ele>463.01000976562</ele>
        <time>2011-03-20T09:00:08Z</time>
      </trkpt>
      <trkpt lat="43.86278" lon="7.30975">
        <ele>458.69000244141</ele>
        <time>2011-03-20T09:00:17Z</time>
      </trkpt>
      <trkpt lat="43.86287" lon="7.30968">
        <ele>461.08999633789</ele>
        <time>2011-03-20T09:00:20Z</time>
      </trkpt>
      <trkpt lat="43.86297" lon="7.30963">
        <ele>459.17001342773</ele>
        <time>2011-03-20T09:00:23Z</time>
      </trkpt>
      <trkpt lat="43.86326" lon="7.30968">
        <ele>455.79998779297</ele>
        <time>2011-03-20T09:00:32Z</time>
      </trkpt>
      <trkpt lat="43.86351" lon="7.30977">
        <ele>456.2799987793</ele>
        <time>2011-03-20T09:00:39Z</time>
      </trkpt>
      <trkpt lat="43.86352" lon="7.30935">
        <ele>452.44000244141</ele>
        <time>2011-03-20T09:00:48Z</time>
      </trkpt>
      <trkpt lat="43.8635" lon="7.30927">
        <ele>451.95999145508</ele>
        <time>2011-03-20T09:00:50Z</time>
      </trkpt>
      <trkpt lat="43.86341" lon="7.30885">
        <ele>451.48001098633</ele>
        <time>2011-03-20T09:00:59Z</time>
      </trkpt>
      <trkpt lat="43.86365" lon="7.30841">
        <ele>450.51998901367</ele>
        <time>2011-03-20T09:01:08Z</time>
      </trkpt>
      <trkpt lat="43.86386" lon="7.30825">
        <ele>447.63000488281</ele>
        <time>2011-03-20T09:01:15Z</time>
      </trkpt>
      <trkpt lat="43.86406" lon="7.30819">
        <ele>446.19000244141</ele>
        <time>2011-03-20T09:01:20Z</time>
      </trkpt>
      <trkpt lat="43.8644" lon="7.30817">
        <ele>442.33999633789</ele>
        <time>2011-03-20T09:01:29Z</time>
      </trkpt>
      <trkpt lat="43.86464" lon="7.30784">
        <ele>442.33999633789</ele>
        <time>2011-03-20T09:01:39Z</time>
      </trkpt>
      <trkpt lat="43.86451" lon="7.30728">
        <ele>441.85998535156</ele>
        <time>2011-03-20T09:01:52Z</time>
      </trkpt>
      <trkpt lat="43.86436" lon="7.3069">
        <ele>438.5</ele>
        <time>2011-03-20T09:02:01Z</time>
      </trkpt>
      <trkpt lat="43.86435" lon="7.30686">
        <ele>438.5</ele>
        <time>2011-03-20T09:02:02Z</time>
      </trkpt>
      <trkpt lat="43.86431" lon="7.30677">
        <ele>438.01998901367</ele>
        <time>2011-03-20T09:02:04Z</time>
      </trkpt>
      <trkpt lat="43.86429" lon="7.30655">
        <ele>437.54000854492</ele>
        <time>2011-03-20T09:02:08Z</time>
      </trkpt>
      <trkpt lat="43.86438" lon="7.30634">
        <ele>437.05999755859</ele>
        <time>2011-03-20T09:02:12Z</time>
      </trkpt>
      <trkpt lat="43.86475" lon="7.30604">
        <ele>435.13000488281</ele>
        <time>2011-03-20T09:02:23Z</time>
      </trkpt>
      <trkpt lat="43.86509" lon="7.30569">
        <ele>434.64999389648</ele>
        <time>2011-03-20T09:02:35Z</time>
      </trkpt>
      <trkpt lat="43.86538" lon="7.30537">
        <ele>431.29000854492</ele>
        <time>2011-03-20T09:02:46Z</time>
      </trkpt>
      <trkpt lat="43.86553" lon="7.30516">
        <ele>427.92001342773</ele>
        <time>2011-03-20T09:02:52Z</time>
      </trkpt>
      <trkpt lat="43.86576" lon="7.30494">
        <ele>424.55999755859</ele>
        <time>2011-03-20T09:03:00Z</time>
      </trkpt>
      <trkpt lat="43.86615" lon="7.30493">
        <ele>422.16000366211</ele>
        <time>2011-03-20T09:03:11Z</time>
      </trkpt>
      <trkpt lat="43.86629" lon="7.30486">
        <ele>423.11999511719</ele>
        <time>2011-03-20T09:03:16Z</time>
      </trkpt>
      <trkpt lat="43.86632" lon="7.30467">
        <ele>425.04000854492</ele>
        <time>2011-03-20T09:03:22Z</time>
      </trkpt>
      <trkpt lat="43.86629" lon="7.30445">
        <ele>428.89001464844</ele>
        <time>2011-03-20T09:03:29Z</time>
      </trkpt>
      <trkpt lat="43.86629" lon="7.30411">
        <ele>430.80999755859</ele>
        <time>2011-03-20T09:03:40Z</time>
      </trkpt>
      <trkpt lat="43.86633" lon="7.30396">
        <ele>433.20999145508</ele>
        <time>2011-03-20T09:03:44Z</time>
      </trkpt>
      <trkpt lat="43.86637" lon="7.30382">
        <ele>432.73001098633</ele>
        <time>2011-03-20T09:03:48Z</time>
      </trkpt>
      <trkpt lat="43.86644" lon="7.30349">
        <ele>435.13000488281</ele>
        <time>2011-03-20T09:04:00Z</time>
      </trkpt>
      <trkpt lat="43.86642" lon="7.30349">
        <ele>437.05999755859</ele>
        <time>2011-03-20T09:04:03Z</time>
      </trkpt>
      <trkpt lat="43.86638" lon="7.30347">
        <ele>440.42001342773</ele>
        <time>2011-03-20T09:04:17Z</time>
      </trkpt>
      <trkpt lat="43.86637" lon="7.30349">
        <ele>441.38000488281</ele>
        <time>2011-03-20T09:04:19Z</time>
      </trkpt>
      <trkpt lat="43.86632" lon="7.30353">
        <ele>442.82000732422</ele>
        <time>2011-03-20T09:04:25Z</time>
      </trkpt>
      <trkpt lat="43.86628" lon="7.30353">
        <ele>444.75</ele>
        <time>2011-03-20T09:04:29Z</time>
      </trkpt>
      <trkpt lat="43.86624" lon="7.3035">
        <ele>446.19000244141</ele>
        <time>2011-03-20T09:04:34Z</time>
      </trkpt>
      <trkpt lat="43.8661" lon="7.30332">
        <ele>449.07000732422</ele>
        <time>2011-03-20T09:04:49Z</time>
      </trkpt>
      <trkpt lat="43.86608" lon="7.30331">
        <ele>452.44000244141</ele>
        <time>2011-03-20T09:04:54Z</time>
      </trkpt>
      <trkpt lat="43.86603" lon="7.30337">
        <ele>452.92001342773</ele>
        <time>2011-03-20T09:05:00Z</time>
      </trkpt>
      <trkpt lat="43.86601" lon="7.30341">
        <ele>453.39999389648</ele>
        <time>2011-03-20T09:05:03Z</time>
      </trkpt>
      <trkpt lat="43.86592" lon="7.30341">
        <ele>455.32000732422</ele>
        <time>2011-03-20T09:05:11Z</time>
      </trkpt>
      <trkpt lat="43.86589" lon="7.30339">
        <ele>456.76000976562</ele>
        <time>2011-03-20T09:05:14Z</time>
      </trkpt>
      <trkpt lat="43.86584" lon="7.30341">
        <ele>456.76000976562</ele>
        <time>2011-03-20T09:05:18Z</time>
      </trkpt>
      <trkpt lat="43.86581" lon="7.30342">
        <ele>457.7200012207</ele>
        <time>2011-03-20T09:05:20Z</time>
      </trkpt>
      <trkpt lat="43.86578" lon="7.30323">
        <ele>460.13000488281</ele>
        <time>2011-03-20T09:05:32Z</time>
      </trkpt>
      <trkpt lat="43.86575" lon="7.30314">
        <ele>462.5299987793</ele>
        <time>2011-03-20T09:05:37Z</time>
      </trkpt>
      <trkpt lat="43.86578" lon="7.30304">
        <ele>465.42001342773</ele>
        <time>2011-03-20T09:05:47Z</time>
      </trkpt>
      <trkpt lat="43.86579" lon="7.30304">
        <ele>465.42001342773</ele>
        <time>2011-03-20T09:05:48Z</time>
      </trkpt>
      <trkpt lat="43.86587" lon="7.30291">
        <ele>467.33999633789</ele>
        <time>2011-03-20T09:05:58Z</time>
      </trkpt>
      <trkpt lat="43.86589" lon="7.30286">
        <ele>468.29998779297</ele>
        <time>2011-03-20T09:06:02Z</time>
      </trkpt>
      <trkpt lat="43.8659" lon="7.30283">
        <ele>469.26000976562</ele>
        <time>2011-03-20T09:06:04Z</time>
      </trkpt>
      <trkpt lat="43.86597" lon="7.30264">
        <ele>471.17999267578</ele>
        <time>2011-03-20T09:06:13Z</time>
      </trkpt>
      <trkpt lat="43.86597" lon="7.30245">
        <ele>472.63000488281</ele>
        <time>2011-03-20T09:06:20Z</time>
      </trkpt>
      <trkpt lat="43.86602" lon="7.3023">
        <ele>475.0299987793</ele>
        <time>2011-03-20T09:06:29Z</time>
      </trkpt>
      <trkpt lat="43.86604" lon="7.30228">
        <ele>474.54998779297</ele>
        <time>2011-03-20T09:06:30Z</time>
      </trkpt>
      <trkpt lat="43.86601" lon="7.3021">
        <ele>475.98999023438</ele>
        <time>2011-03-20T09:06:37Z</time>
      </trkpt>
      <trkpt lat="43.86597" lon="7.30205">
        <ele>477.42999267578</ele>
        <time>2011-03-20T09:06:40Z</time>
      </trkpt>
      <trkpt lat="43.86596" lon="7.30204">
        <ele>477.91000366211</ele>
        <time>2011-03-20T09:06:41Z</time>
      </trkpt>
      <trkpt lat="43.86592" lon="7.30197">
        <ele>479.83999633789</ele>
        <time>2011-03-20T09:06:48Z</time>
      </trkpt>
      <trkpt lat="43.86583" lon="7.30194">
        <ele>480.32000732422</ele>
        <time>2011-03-20T09:06:55Z</time>
      </trkpt>
      <trkpt lat="43.8658" lon="7.30192">
        <ele>481.76000976562</ele>
        <time>2011-03-20T09:06:58Z</time>
      </trkpt>
      <trkpt lat="43.86569" lon="7.30172">
        <ele>485.60000610352</ele>
        <time>2011-03-20T09:07:12Z</time>
      </trkpt>
      <trkpt lat="43.86562" lon="7.30162">
        <ele>488.48999023438</ele>
        <time>2011-03-20T09:07:22Z</time>
      </trkpt>
      <trkpt lat="43.86558" lon="7.30158">
        <ele>489.45001220703</ele>
        <time>2011-03-20T09:07:27Z</time>
      </trkpt>
      <trkpt lat="43.86544" lon="7.30147">
        <ele>492.80999755859</ele>
        <time>2011-03-20T09:07:42Z</time>
      </trkpt>
      <trkpt lat="43.8654" lon="7.3014">
        <ele>494.26000976562</ele>
        <time>2011-03-20T09:07:48Z</time>
      </trkpt>
      <trkpt lat="43.86535" lon="7.30123">
        <ele>497.61999511719</ele>
        <time>2011-03-20T09:07:59Z</time>
      </trkpt>
      <trkpt lat="43.86526" lon="7.3011">
        <ele>498.57998657227</ele>
        <time>2011-03-20T09:08:04Z</time>
      </trkpt>
      <trkpt lat="43.86516" lon="7.30074">
        <ele>500.5</ele>
        <time>2011-03-20T09:08:17Z</time>
      </trkpt>
      <trkpt lat="43.86511" lon="7.30061">
        <ele>502.42999267578</ele>
        <time>2011-03-20T09:08:24Z</time>
      </trkpt>
      <trkpt lat="43.86508" lon="7.30059">
        <ele>502.42999267578</ele>
        <time>2011-03-20T09:08:28Z</time>
      </trkpt>
      <trkpt lat="43.86507" lon="7.30053">
        <ele>504.82998657227</ele>
        <time>2011-03-20T09:08:33Z</time>
      </trkpt>
      <trkpt lat="43.86507" lon="7.30051">
        <ele>505.30999755859</ele>
        <time>2011-03-20T09:08:35Z</time>
      </trkpt>
      <trkpt lat="43.86513" lon="7.30029">
        <ele>507.70999145508</ele>
        <time>2011-03-20T09:08:48Z</time>
      </trkpt>
      <trkpt lat="43.86519" lon="7.3001">
        <ele>510.60000610352</ele>
        <time>2011-03-20T09:08:57Z</time>
      </trkpt>
      <trkpt lat="43.86518" lon="7.30008">
        <ele>511.07998657227</ele>
        <time>2011-03-20T09:08:58Z</time>
      </trkpt>
      <trkpt lat="43.86517" lon="7.3">
        <ele>512.03997802734</ele>
        <time>2011-03-20T09:09:03Z</time>
      </trkpt>
      <trkpt lat="43.86517" lon="7.29993">
        <ele>513.47998046875</ele>
        <time>2011-03-20T09:09:09Z</time>
      </trkpt>
      <trkpt lat="43.86522" lon="7.29988">
        <ele>515.40002441406</ele>
        <time>2011-03-20T09:09:15Z</time>
      </trkpt>
      <trkpt lat="43.86528" lon="7.29975">
        <ele>518.28997802734</ele>
        <time>2011-03-20T09:09:26Z</time>
      </trkpt>
      <trkpt lat="43.86538" lon="7.29966">
        <ele>520.69000244141</ele>
        <time>2011-03-20T09:09:36Z</time>
      </trkpt>
      <trkpt lat="43.86545" lon="7.29958">
        <ele>522.13000488281</ele>
        <time>2011-03-20T09:09:41Z</time>
      </trkpt>
      <trkpt lat="43.86547" lon="7.29922">
        <ele>525.02001953125</ele>
        <time>2011-03-20T09:09:54Z</time>
      </trkpt>
      <trkpt lat="43.86546" lon="7.29917">
        <ele>524.05999755859</ele>
        <time>2011-03-20T09:09:56Z</time>
      </trkpt>
      <trkpt lat="43.86545" lon="7.29907">
        <ele>524.53997802734</ele>
        <time>2011-03-20T09:09:59Z</time>
      </trkpt>
      <trkpt lat="43.86559" lon="7.29884">
        <ele>528.38000488281</ele>
        <time>2011-03-20T09:10:14Z</time>
      </trkpt>
      <trkpt lat="43.86561" lon="7.29879">
        <ele>529.34002685547</ele>
        <time>2011-03-20T09:10:20Z</time>
      </trkpt>
      <trkpt lat="43.8656" lon="7.29876">
        <ele>530.78997802734</ele>
        <time>2011-03-20T09:10:24Z</time>
      </trkpt>
      <trkpt lat="43.8656" lon="7.29865">
        <ele>533.66998291016</ele>
        <time>2011-03-20T09:10:33Z</time>
      </trkpt>
      <trkpt lat="43.86559" lon="7.29864">
        <ele>533.66998291016</ele>
        <time>2011-03-20T09:10:35Z</time>
      </trkpt>
      <trkpt lat="43.86548" lon="7.29856">
        <ele>537.03002929688</ele>
        <time>2011-03-20T09:10:47Z</time>
      </trkpt>
      <trkpt lat="43.86544" lon="7.29849">
        <ele>537.51000976562</ele>
        <time>2011-03-20T09:10:52Z</time>
      </trkpt>
      <trkpt lat="43.86541" lon="7.29843">
        <ele>539.44000244141</ele>
        <time>2011-03-20T09:10:57Z</time>
      </trkpt>
      <trkpt lat="43.86535" lon="7.29832">
        <ele>543.28002929688</ele>
        <time>2011-03-20T09:11:08Z</time>
      </trkpt>
      <trkpt lat="43.86533" lon="7.29829">
        <ele>542.79998779297</ele>
        <time>2011-03-20T09:11:11Z</time>
      </trkpt>
      <trkpt lat="43.86536" lon="7.29815">
        <ele>546.16998291016</ele>
        <time>2011-03-20T09:11:19Z</time>
      </trkpt>
      <trkpt lat="43.86539" lon="7.29804">
        <ele>548.09002685547</ele>
        <time>2011-03-20T09:11:27Z</time>
      </trkpt>
      <trkpt lat="43.86539" lon="7.29797">
        <ele>549.53002929688</ele>
        <time>2011-03-20T09:11:31Z</time>
      </trkpt>
      <trkpt lat="43.86539" lon="7.29793">
        <ele>549.53002929688</ele>
        <time>2011-03-20T09:11:33Z</time>
      </trkpt>
      <trkpt lat="43.86535" lon="7.29774">
        <ele>551.92999267578</ele>
        <time>2011-03-20T09:11:45Z</time>
      </trkpt>
      <trkpt lat="43.86536" lon="7.2977">
        <ele>552.90002441406</ele>
        <time>2011-03-20T09:11:48Z</time>
      </trkpt>
      <trkpt lat="43.86538" lon="7.29771">
        <ele>554.34002685547</ele>
        <time>2011-03-20T09:11:51Z</time>
      </trkpt>
      <trkpt lat="43.86546" lon="7.29773">
        <ele>556.73999023438</ele>
        <time>2011-03-20T09:12:02Z</time>
      </trkpt>
      <trkpt lat="43.86546" lon="7.29771">
        <ele>557.21997070312</ele>
        <time>2011-03-20T09:12:04Z</time>
      </trkpt>
      <trkpt lat="43.86544" lon="7.29756">
        <ele>560.10998535156</ele>
        <time>2011-03-20T09:12:15Z</time>
      </trkpt>
      <trkpt lat="43.86547" lon="7.2973">
        <ele>562.98999023438</ele>
        <time>2011-03-20T09:12:27Z</time>
      </trkpt>
      <trkpt lat="43.86549" lon="7.2972">
        <ele>565.86999511719</ele>
        <time>2011-03-20T09:12:35Z</time>
      </trkpt>
      <trkpt lat="43.86549" lon="7.297">
        <ele>568.28002929688</ele>
        <time>2011-03-20T09:12:47Z</time>
      </trkpt>
      <trkpt lat="43.86549" lon="7.29695">
        <ele>569.23999023438</ele>
        <time>2011-03-20T09:12:49Z</time>
      </trkpt>
      <trkpt lat="43.86549" lon="7.29692">
        <ele>568.76000976562</ele>
        <time>2011-03-20T09:12:51Z</time>
      </trkpt>
      <trkpt lat="43.86549" lon="7.29678">
        <ele>572.59997558594</ele>
        <time>2011-03-20T09:13:01Z</time>
      </trkpt>
      <trkpt lat="43.86547" lon="7.29667">
        <ele>575.48999023438</ele>
        <time>2011-03-20T09:13:11Z</time>
      </trkpt>
      <trkpt lat="43.86547" lon="7.29666">
        <ele>575.48999023438</ele>
        <time>2011-03-20T09:13:12Z</time>
      </trkpt>
      <trkpt lat="43.86544" lon="7.29658">
        <ele>578.36999511719</ele>
        <time>2011-03-20T09:13:22Z</time>
      </trkpt>
      <trkpt lat="43.86539" lon="7.29653">
        <ele>581.25</ele>
        <time>2011-03-20T09:13:32Z</time>
      </trkpt>
      <trkpt lat="43.86531" lon="7.29648">
        <ele>582.70001220703</ele>
        <time>2011-03-20T09:13:41Z</time>
      </trkpt>
      <trkpt lat="43.86525" lon="7.2964">
        <ele>586.53997802734</ele>
        <time>2011-03-20T09:13:52Z</time>
      </trkpt>
      <trkpt lat="43.86524" lon="7.2964">
        <ele>587.5</ele>
        <time>2011-03-20T09:13:54Z</time>
      </trkpt>
      <trkpt lat="43.86522" lon="7.29639">
        <ele>588.95001220703</ele>
        <time>2011-03-20T09:13:57Z</time>
      </trkpt>
      <trkpt lat="43.86521" lon="7.29637">
        <ele>589.42999267578</ele>
        <time>2011-03-20T09:13:59Z</time>
      </trkpt>
      <trkpt lat="43.86519" lon="7.29624">
        <ele>590.86999511719</ele>
        <time>2011-03-20T09:14:09Z</time>
      </trkpt>
      <trkpt lat="43.86524" lon="7.29618">
        <ele>590.86999511719</ele>
        <time>2011-03-20T09:14:14Z</time>
      </trkpt>
      <trkpt lat="43.8653" lon="7.29608">
        <ele>592.78997802734</ele>
        <time>2011-03-20T09:14:23Z</time>
      </trkpt>
      <trkpt lat="43.86529" lon="7.29603">
        <ele>595.19000244141</ele>
        <time>2011-03-20T09:14:26Z</time>
      </trkpt>
      <trkpt lat="43.86529" lon="7.29591">
        <ele>600</ele>
        <time>2011-03-20T09:14:35Z</time>
      </trkpt>
      <trkpt lat="43.86528" lon="7.29589">
        <ele>598.55999755859</ele>
        <time>2011-03-20T09:14:38Z</time>
      </trkpt>
      <trkpt lat="43.86524" lon="7.29573">
        <ele>600.96002197266</ele>
        <time>2011-03-20T09:14:48Z</time>
      </trkpt>
      <trkpt lat="43.86523" lon="7.29564">
        <ele>601.44000244141</ele>
        <time>2011-03-20T09:14:52Z</time>
      </trkpt>
      <trkpt lat="43.86516" lon="7.29559">
        <ele>603.84997558594</ele>
        <time>2011-03-20T09:14:59Z</time>
      </trkpt>
      <trkpt lat="43.86505" lon="7.2955">
        <ele>607.21002197266</ele>
        <time>2011-03-20T09:15:11Z</time>
      </trkpt>
      <trkpt lat="43.86503" lon="7.29549">
        <ele>607.21002197266</ele>
        <time>2011-03-20T09:15:13Z</time>
      </trkpt>
      <trkpt lat="43.86499" lon="7.29544">
        <ele>609.60998535156</ele>
        <time>2011-03-20T09:15:19Z</time>
      </trkpt>
      <trkpt lat="43.86497" lon="7.29539">
        <ele>610.57000732422</ele>
        <time>2011-03-20T09:15:23Z</time>
      </trkpt>
      <trkpt lat="43.86494" lon="7.29534">
        <ele>612.97998046875</ele>
        <time>2011-03-20T09:15:28Z</time>
      </trkpt>
      <trkpt lat="43.86493" lon="7.29531">
        <ele>612.97998046875</ele>
        <time>2011-03-20T09:15:31Z</time>
      </trkpt>
      <trkpt lat="43.86489" lon="7.29517">
        <ele>615.38000488281</ele>
        <time>2011-03-20T09:15:41Z</time>
      </trkpt>
      <trkpt lat="43.86483" lon="7.29504">
        <ele>617.78002929688</ele>
        <time>2011-03-20T09:15:51Z</time>
      </trkpt>
      <trkpt lat="43.86479" lon="7.29496">
        <ele>618.75</ele>
        <time>2011-03-20T09:15:57Z</time>
      </trkpt>
      <trkpt lat="43.8647" lon="7.29476">
        <ele>623.07000732422</ele>
        <time>2011-03-20T09:16:11Z</time>
      </trkpt>
      <trkpt lat="43.86465" lon="7.29463">
        <ele>623.54998779297</ele>
        <time>2011-03-20T09:16:19Z</time>
      </trkpt>
      <trkpt lat="43.86459" lon="7.29454">
        <ele>624.98999023438</ele>
        <time>2011-03-20T09:16:25Z</time>
      </trkpt>
      <trkpt lat="43.86465" lon="7.29435">
        <ele>621.63000488281</ele>
        <time>2011-03-20T09:16:31Z</time>
      </trkpt>
      <trkpt lat="43.86483" lon="7.29395">
        <ele>618.26000976562</ele>
        <time>2011-03-20T09:16:40Z</time>
      </trkpt>
      <trkpt lat="43.86485" lon="7.29373">
        <ele>617.29998779297</ele>
        <time>2011-03-20T09:16:48Z</time>
      </trkpt>
      <trkpt lat="43.86483" lon="7.29353">
        <ele>617.29998779297</ele>
        <time>2011-03-20T09:16:54Z</time>
      </trkpt>
      <trkpt lat="43.86492" lon="7.29316">
        <ele>617.78002929688</ele>
        <time>2011-03-20T09:17:04Z</time>
      </trkpt>
      <trkpt lat="43.86501" lon="7.29301">
        <ele>617.29998779297</ele>
        <time>2011-03-20T09:17:14Z</time>
      </trkpt>
      <trkpt lat="43.86502" lon="7.29299">
        <ele>617.78002929688</ele>
        <time>2011-03-20T09:17:24Z</time>
      </trkpt>
      <trkpt lat="43.86499" lon="7.29292">
        <ele>618.75</ele>
        <time>2011-03-20T09:17:35Z</time>
      </trkpt>
      <trkpt lat="43.86502" lon="7.29259">
        <ele>620.66998291016</ele>
        <time>2011-03-20T09:17:50Z</time>
      </trkpt>
      <trkpt lat="43.86498" lon="7.29228">
        <ele>623.54998779297</ele>
        <time>2011-03-20T09:18:02Z</time>
      </trkpt>
      <trkpt lat="43.86494" lon="7.2921">
        <ele>625.46997070312</ele>
        <time>2011-03-20T09:18:09Z</time>
      </trkpt>
      <trkpt lat="43.86518" lon="7.29197">
        <ele>629.32000732422</ele>
        <time>2011-03-20T09:18:21Z</time>
      </trkpt>
      <trkpt lat="43.86526" lon="7.29194">
        <ele>628.84002685547</ele>
        <time>2011-03-20T09:18:25Z</time>
      </trkpt>
      <trkpt lat="43.86541" lon="7.29172">
        <ele>631.71997070312</ele>
        <time>2011-03-20T09:18:36Z</time>
      </trkpt>
      <trkpt lat="43.86555" lon="7.29138">
        <ele>636.04998779297</ele>
        <time>2011-03-20T09:18:51Z</time>
      </trkpt>
      <trkpt lat="43.86556" lon="7.29136">
        <ele>636.04998779297</ele>
        <time>2011-03-20T09:18:52Z</time>
      </trkpt>
      <trkpt lat="43.86573" lon="7.29109">
        <ele>638.92999267578</ele>
        <time>2011-03-20T09:19:04Z</time>
      </trkpt>
      <trkpt lat="43.86599" lon="7.29095">
        <ele>640.85998535156</ele>
        <time>2011-03-20T09:19:16Z</time>
      </trkpt>
      <trkpt lat="43.86613" lon="7.29096">
        <ele>642.29998779297</ele>
        <time>2011-03-20T09:19:23Z</time>
      </trkpt>
      <trkpt lat="43.86639" lon="7.29102">
        <ele>645.17999267578</ele>
        <time>2011-03-20T09:19:36Z</time>
      </trkpt>
      <trkpt lat="43.86646" lon="7.29109">
        <ele>646.14001464844</ele>
        <time>2011-03-20T09:19:40Z</time>
      </trkpt>
      <trkpt lat="43.86655" lon="7.29164">
        <ele>647.59002685547</ele>
        <time>2011-03-20T09:19:55Z</time>
      </trkpt>
      <trkpt lat="43.86667" lon="7.29183">
        <ele>649.51000976562</ele>
        <time>2011-03-20T09:20:05Z</time>
      </trkpt>
      <trkpt lat="43.86679" lon="7.29175">
        <ele>652.39001464844</ele>
        <time>2011-03-20T09:20:13Z</time>
      </trkpt>
      <trkpt lat="43.86685" lon="7.29168">
        <ele>651.90997314453</ele>
        <time>2011-03-20T09:20:17Z</time>
      </trkpt>
      <trkpt lat="43.8669" lon="7.29166">
        <ele>653.34997558594</ele>
        <time>2011-03-20T09:20:20Z</time>
      </trkpt>
      <trkpt lat="43.86701" lon="7.29173">
        <ele>655.76000976562</ele>
        <time>2011-03-20T09:20:27Z</time>
      </trkpt>
      <trkpt lat="43.86721" lon="7.29176">
        <ele>659.11999511719</ele>
        <time>2011-03-20T09:20:38Z</time>
      </trkpt>
      <trkpt lat="43.86736" lon="7.29178">
        <ele>660.55999755859</ele>
        <time>2011-03-20T09:20:47Z</time>
      </trkpt>
      <trkpt lat="43.86757" lon="7.29201">
        <ele>664.89001464844</ele>
        <time>2011-03-20T09:21:00Z</time>
      </trkpt>
      <trkpt lat="43.86758" lon="7.29203">
        <ele>661.03997802734</ele>
        <time>2011-03-20T09:21:01Z</time>
      </trkpt>
      <trkpt lat="43.86761" lon="7.29206">
        <ele>664.40997314453</ele>
        <time>2011-03-20T09:21:02Z</time>
      </trkpt>
      <trkpt lat="43.86787" lon="7.29232">
        <ele>665.84997558594</ele>
        <time>2011-03-20T09:21:15Z</time>
      </trkpt>
      <trkpt lat="43.86809" lon="7.29257">
        <ele>667.77001953125</ele>
        <time>2011-03-20T09:21:27Z</time>
      </trkpt>
      <trkpt lat="43.86824" lon="7.29298">
        <ele>669.21997070312</ele>
        <time>2011-03-20T09:21:40Z</time>
      </trkpt>
      <trkpt lat="43.86843" lon="7.29329">
        <ele>671.14001464844</ele>
        <time>2011-03-20T09:21:53Z</time>
      </trkpt>
      <trkpt lat="43.8685" lon="7.29356">
        <ele>673.53997802734</ele>
        <time>2011-03-20T09:22:04Z</time>
      </trkpt>
      <trkpt lat="43.86862" lon="7.29382">
        <ele>676.41998291016</ele>
        <time>2011-03-20T09:22:15Z</time>
      </trkpt>
      <trkpt lat="43.86881" lon="7.29401">
        <ele>679.78997802734</ele>
        <time>2011-03-20T09:22:29Z</time>
      </trkpt>
      <trkpt lat="43.869" lon="7.29413">
        <ele>682.66998291016</ele>
        <time>2011-03-20T09:22:42Z</time>
      </trkpt>
      <trkpt lat="43.86911" lon="7.29419">
        <ele>684.59997558594</ele>
        <time>2011-03-20T09:22:49Z</time>
      </trkpt>
      <trkpt lat="43.8693" lon="7.29437">
        <ele>687.96002197266</ele>
        <time>2011-03-20T09:23:01Z</time>
      </trkpt>
      <trkpt lat="43.86942" lon="7.29457">
        <ele>690.35998535156</ele>
        <time>2011-03-20T09:23:13Z</time>
      </trkpt>
      <trkpt lat="43.86946" lon="7.29465">
        <ele>691.80999755859</ele>
        <time>2011-03-20T09:23:17Z</time>
      </trkpt>
      <trkpt lat="43.86962" lon="7.29477">
        <ele>694.21002197266</ele>
        <time>2011-03-20T09:23:28Z</time>
      </trkpt>
      <trkpt lat="43.86973" lon="7.29463">
        <ele>690.35998535156</ele>
        <time>2011-03-20T09:23:35Z</time>
      </trkpt>
      <trkpt lat="43.86974" lon="7.2946">
        <ele>690.35998535156</ele>
        <time>2011-03-20T09:23:36Z</time>
      </trkpt>
      <trkpt lat="43.86981" lon="7.29442">
        <ele>687.47998046875</ele>
        <time>2011-03-20T09:23:41Z</time>
      </trkpt>
      <trkpt lat="43.8699" lon="7.29416">
        <ele>684.11999511719</ele>
        <time>2011-03-20T09:23:49Z</time>
      </trkpt>
      <trkpt lat="43.86996" lon="7.29395">
        <ele>681.71002197266</ele>
        <time>2011-03-20T09:23:55Z</time>
      </trkpt>
      <trkpt lat="43.87002" lon="7.29367">
        <ele>681.71002197266</ele>
        <time>2011-03-20T09:24:02Z</time>
      </trkpt>
      <trkpt lat="43.87004" lon="7.29341">
        <ele>682.19000244141</ele>
        <time>2011-03-20T09:24:10Z</time>
      </trkpt>
      <trkpt lat="43.87015" lon="7.29331">
        <ele>682.19000244141</ele>
        <time>2011-03-20T09:24:15Z</time>
      </trkpt>
      <trkpt lat="43.87035" lon="7.29289">
        <ele>682.19000244141</ele>
        <time>2011-03-20T09:24:28Z</time>
      </trkpt>
      <trkpt lat="43.8705" lon="7.29252">
        <ele>683.15002441406</ele>
        <time>2011-03-20T09:24:39Z</time>
      </trkpt>
      <trkpt lat="43.87067" lon="7.29209">
        <ele>683.15002441406</ele>
        <time>2011-03-20T09:24:52Z</time>
      </trkpt>
      <trkpt lat="43.87072" lon="7.29187">
        <ele>682.66998291016</ele>
        <time>2011-03-20T09:24:58Z</time>
      </trkpt>
      <trkpt lat="43.87074" lon="7.2918">
        <ele>683.63000488281</ele>
        <time>2011-03-20T09:25:00Z</time>
      </trkpt>
      <trkpt lat="43.87077" lon="7.29166">
        <ele>684.11999511719</ele>
        <time>2011-03-20T09:25:05Z</time>
      </trkpt>
      <trkpt lat="43.87094" lon="7.29149">
        <ele>684.59997558594</ele>
        <time>2011-03-20T09:25:13Z</time>
      </trkpt>
      <trkpt lat="43.87098" lon="7.29114">
        <ele>686.03997802734</ele>
        <time>2011-03-20T09:25:24Z</time>
      </trkpt>
      <trkpt lat="43.87097" lon="7.29111">
        <ele>686.03997802734</ele>
        <time>2011-03-20T09:25:25Z</time>
      </trkpt>
      <trkpt lat="43.87096" lon="7.29098">
        <ele>686.52001953125</ele>
        <time>2011-03-20T09:25:30Z</time>
      </trkpt>
      <trkpt lat="43.871" lon="7.29088">
        <ele>686.52001953125</ele>
        <time>2011-03-20T09:25:33Z</time>
      </trkpt>
      <trkpt lat="43.87115" lon="7.29088">
        <ele>687</ele>
        <time>2011-03-20T09:25:41Z</time>
      </trkpt>
      <trkpt lat="43.87136" lon="7.29096">
        <ele>687</ele>
        <time>2011-03-20T09:25:51Z</time>
      </trkpt>
      <trkpt lat="43.8715" lon="7.29107">
        <ele>686.03997802734</ele>
        <time>2011-03-20T09:25:57Z</time>
      </trkpt>
      <trkpt lat="43.87166" lon="7.29105">
        <ele>686.52001953125</ele>
        <time>2011-03-20T09:26:04Z</time>
      </trkpt>
      <trkpt lat="43.87177" lon="7.29084">
        <ele>687</ele>
        <time>2011-03-20T09:26:10Z</time>
      </trkpt>
      <trkpt lat="43.87189" lon="7.29049">
        <ele>687</ele>
        <time>2011-03-20T09:26:19Z</time>
      </trkpt>
      <trkpt lat="43.87201" lon="7.29034">
        <ele>686.52001953125</ele>
        <time>2011-03-20T09:26:27Z</time>
      </trkpt>
      <trkpt lat="43.87191" lon="7.29015">
        <ele>687.96002197266</ele>
        <time>2011-03-20T09:26:34Z</time>
      </trkpt>
      <trkpt lat="43.8719" lon="7.28998">
        <ele>688.44000244141</ele>
        <time>2011-03-20T09:26:39Z</time>
      </trkpt>
      <trkpt lat="43.87185" lon="7.28985">
        <ele>689.40002441406</ele>
        <time>2011-03-20T09:26:46Z</time>
      </trkpt>
      <trkpt lat="43.87182" lon="7.28986">
        <ele>690.35998535156</ele>
        <time>2011-03-20T09:26:50Z</time>
      </trkpt>
      <trkpt lat="43.8718" lon="7.28987">
        <ele>691.33001708984</ele>
        <time>2011-03-20T09:26:52Z</time>
      </trkpt>
      <trkpt lat="43.87179" lon="7.2898">
        <ele>693.72998046875</ele>
        <time>2011-03-20T09:26:59Z</time>
      </trkpt>
      <trkpt lat="43.87182" lon="7.28973">
        <ele>695.16998291016</ele>
        <time>2011-03-20T09:27:04Z</time>
      </trkpt>
      <trkpt lat="43.87188" lon="7.28968">
        <ele>697.09002685547</ele>
        <time>2011-03-20T09:27:08Z</time>
      </trkpt>
      <trkpt lat="43.87203" lon="7.28977">
        <ele>699.02001953125</ele>
        <time>2011-03-20T09:27:18Z</time>
      </trkpt>
      <trkpt lat="43.87211" lon="7.28983">
        <ele>697.09002685547</ele>
        <time>2011-03-20T09:27:23Z</time>
      </trkpt>
      <trkpt lat="43.87242" lon="7.28955">
        <ele>696.60998535156</ele>
        <time>2011-03-20T09:27:36Z</time>
      </trkpt>
      <trkpt lat="43.87246" lon="7.28946">
        <ele>695.16998291016</ele>
        <time>2011-03-20T09:27:40Z</time>
      </trkpt>
      <trkpt lat="43.87255" lon="7.28932">
        <ele>691.80999755859</ele>
        <time>2011-03-20T09:27:45Z</time>
      </trkpt>
      <trkpt lat="43.8727" lon="7.2892">
        <ele>694.21002197266</ele>
        <time>2011-03-20T09:27:54Z</time>
      </trkpt>
      <trkpt lat="43.8727" lon="7.28916">
        <ele>695.16998291016</ele>
        <time>2011-03-20T09:27:58Z</time>
      </trkpt>
      <trkpt lat="43.87269" lon="7.28911">
        <ele>697.09002685547</ele>
        <time>2011-03-20T09:28:03Z</time>
      </trkpt>
      <trkpt lat="43.87268" lon="7.28907">
        <ele>698.53002929688</ele>
        <time>2011-03-20T09:28:07Z</time>
      </trkpt>
      <trkpt lat="43.87275" lon="7.28908">
        <ele>701.41998291016</ele>
        <time>2011-03-20T09:28:17Z</time>
      </trkpt>
      <trkpt lat="43.87283" lon="7.28917">
        <ele>704.78002929688</ele>
        <time>2011-03-20T09:28:25Z</time>
      </trkpt>
      <trkpt lat="43.87282" lon="7.28944">
        <ele>706.22998046875</ele>
        <time>2011-03-20T09:28:34Z</time>
      </trkpt>
      <trkpt lat="43.87292" lon="7.28956">
        <ele>708.15002441406</ele>
        <time>2011-03-20T09:28:43Z</time>
      </trkpt>
      <trkpt lat="43.87293" lon="7.2896">
        <ele>710.54998779297</ele>
        <time>2011-03-20T09:28:51Z</time>
      </trkpt>
      <trkpt lat="43.87296" lon="7.28969">
        <ele>713.91998291016</ele>
        <time>2011-03-20T09:29:02Z</time>
      </trkpt>
      <trkpt lat="43.873" lon="7.28963">
        <ele>716.79998779297</ele>
        <time>2011-03-20T09:29:13Z</time>
      </trkpt>
      <trkpt lat="43.87304" lon="7.28957">
        <ele>720.15997314453</ele>
        <time>2011-03-20T09:29:25Z</time>
      </trkpt>
      <trkpt lat="43.87307" lon="7.28965">
        <ele>721.60998535156</ele>
        <time>2011-03-20T09:29:29Z</time>
      </trkpt>
      <trkpt lat="43.8731" lon="7.28984">
        <ele>724.96997070312</ele>
        <time>2011-03-20T09:29:41Z</time>
      </trkpt>
      <trkpt lat="43.8731" lon="7.28986">
        <ele>724.96997070312</ele>
        <time>2011-03-20T09:29:42Z</time>
      </trkpt>
      <trkpt lat="43.87309" lon="7.28995">
        <ele>725.92999267578</ele>
        <time>2011-03-20T09:29:47Z</time>
      </trkpt>
      <trkpt lat="43.87317" lon="7.29006">
        <ele>729.29998779297</ele>
        <time>2011-03-20T09:29:56Z</time>
      </trkpt>
      <trkpt lat="43.87337" lon="7.29034">
        <ele>730.26000976562</ele>
        <time>2011-03-20T09:30:10Z</time>
      </trkpt>
      <trkpt lat="43.87344" lon="7.29042">
        <ele>731.70001220703</ele>
        <time>2011-03-20T09:30:15Z</time>
      </trkpt>
      <trkpt lat="43.87348" lon="7.29056">
        <ele>731.21997070312</ele>
        <time>2011-03-20T09:30:20Z</time>
      </trkpt>
      <trkpt lat="43.87348" lon="7.29063">
        <ele>732.17999267578</ele>
        <time>2011-03-20T09:30:22Z</time>
      </trkpt>
      <trkpt lat="43.87343" lon="7.29079">
        <ele>731.70001220703</ele>
        <time>2011-03-20T09:30:28Z</time>
      </trkpt>
      <trkpt lat="43.87341" lon="7.29104">
        <ele>734.58001708984</ele>
        <time>2011-03-20T09:30:37Z</time>
      </trkpt>
      <trkpt lat="43.87348" lon="7.29117">
        <ele>736.98999023438</ele>
        <time>2011-03-20T09:30:46Z</time>
      </trkpt>
      <trkpt lat="43.87353" lon="7.29138">
        <ele>739.86999511719</ele>
        <time>2011-03-20T09:30:56Z</time>
      </trkpt>
      <trkpt lat="43.87353" lon="7.29139">
        <ele>739.86999511719</ele>
        <time>2011-03-20T09:30:57Z</time>
      </trkpt>
      <trkpt lat="43.8736" lon="7.29146">
        <ele>742.28002929688</ele>
        <time>2011-03-20T09:31:06Z</time>
      </trkpt>
      <trkpt lat="43.87361" lon="7.29148">
        <ele>742.76000976562</ele>
        <time>2011-03-20T09:31:07Z</time>
      </trkpt>
      <trkpt lat="43.87362" lon="7.29151">
        <ele>743.71997070312</ele>
        <time>2011-03-20T09:31:09Z</time>
      </trkpt>
      <trkpt lat="43.87365" lon="7.29157">
        <ele>744.67999267578</ele>
        <time>2011-03-20T09:31:13Z</time>
      </trkpt>
      <trkpt lat="43.8737" lon="7.29164">
        <ele>746.11999511719</ele>
        <time>2011-03-20T09:31:18Z</time>
      </trkpt>
      <trkpt lat="43.87382" lon="7.29171">
        <ele>749.48999023438</ele>
        <time>2011-03-20T09:31:26Z</time>
      </trkpt>
      <trkpt lat="43.87384" lon="7.29171">
        <ele>749.48999023438</ele>
        <time>2011-03-20T09:31:27Z</time>
      </trkpt>
      <trkpt lat="43.87405" lon="7.29167">
        <ele>752.36999511719</ele>
        <time>2011-03-20T09:31:40Z</time>
      </trkpt>
      <trkpt lat="43.8741" lon="7.2916">
        <ele>754.77001953125</ele>
        <time>2011-03-20T09:31:49Z</time>
      </trkpt>
      <trkpt lat="43.87409" lon="7.29158">
        <ele>754.77001953125</ele>
        <time>2011-03-20T09:31:51Z</time>
      </trkpt>
      <trkpt lat="43.87407" lon="7.29155">
        <ele>756.21002197266</ele>
        <time>2011-03-20T09:31:55Z</time>
      </trkpt>
      <trkpt lat="43.87415" lon="7.29144">
        <ele>760.05999755859</ele>
        <time>2011-03-20T09:32:07Z</time>
      </trkpt>
      <trkpt lat="43.87413" lon="7.29137">
        <ele>761.02001953125</ele>
        <time>2011-03-20T09:32:14Z</time>
      </trkpt>
      <trkpt lat="43.8741" lon="7.29132">
        <ele>762.94000244141</ele>
        <time>2011-03-20T09:32:22Z</time>
      </trkpt>
      <trkpt lat="43.8741" lon="7.29127">
        <ele>764.86999511719</ele>
        <time>2011-03-20T09:32:27Z</time>
      </trkpt>
      <trkpt lat="43.87413" lon="7.29118">
        <ele>768.22998046875</ele>
        <time>2011-03-20T09:32:36Z</time>
      </trkpt>
      <trkpt lat="43.87413" lon="7.29115">
        <ele>768.22998046875</ele>
        <time>2011-03-20T09:32:39Z</time>
      </trkpt>
      <trkpt lat="43.87413" lon="7.29108">
        <ele>771.59997558594</ele>
        <time>2011-03-20T09:32:49Z</time>
      </trkpt>
      <trkpt lat="43.87414" lon="7.29096">
        <ele>774.96002197266</ele>
        <time>2011-03-20T09:33:02Z</time>
      </trkpt>
      <trkpt lat="43.87415" lon="7.29087">
        <ele>776.88000488281</ele>
        <time>2011-03-20T09:33:13Z</time>
      </trkpt>
      <trkpt lat="43.87415" lon="7.29086">
        <ele>777.35998535156</ele>
        <time>2011-03-20T09:33:14Z</time>
      </trkpt>
      <trkpt lat="43.8742" lon="7.29083">
        <ele>778.32000732422</ele>
        <time>2011-03-20T09:33:20Z</time>
      </trkpt>
      <trkpt lat="43.87421" lon="7.29064">
        <ele>781.69000244141</ele>
        <time>2011-03-20T09:33:31Z</time>
      </trkpt>
      <trkpt lat="43.87421" lon="7.29054">
        <ele>784.09002685547</ele>
        <time>2011-03-20T09:33:39Z</time>
      </trkpt>
      <trkpt lat="43.87432" lon="7.29027">
        <ele>784.57000732422</ele>
        <time>2011-03-20T09:33:51Z</time>
      </trkpt>
      <trkpt lat="43.87437" lon="7.29018">
        <ele>786.02001953125</ele>
        <time>2011-03-20T09:33:55Z</time>
      </trkpt>
      <trkpt lat="43.87447" lon="7.29009">
        <ele>788.90002441406</ele>
        <time>2011-03-20T09:34:02Z</time>
      </trkpt>
      <trkpt lat="43.87453" lon="7.29004">
        <ele>789.38000488281</ele>
        <time>2011-03-20T09:34:06Z</time>
      </trkpt>
      <trkpt lat="43.87461" lon="7.28996">
        <ele>789.38000488281</ele>
        <time>2011-03-20T09:34:11Z</time>
      </trkpt>
      <trkpt lat="43.87471" lon="7.2898">
        <ele>789.38000488281</ele>
        <time>2011-03-20T09:34:18Z</time>
      </trkpt>
      <trkpt lat="43.87478" lon="7.28971">
        <ele>788.41998291016</ele>
        <time>2011-03-20T09:34:22Z</time>
      </trkpt>
      <trkpt lat="43.87498" lon="7.28956">
        <ele>788.41998291016</ele>
        <time>2011-03-20T09:34:31Z</time>
      </trkpt>
      <trkpt lat="43.87505" lon="7.28956">
        <ele>789.85998535156</ele>
        <time>2011-03-20T09:34:36Z</time>
      </trkpt>
      <trkpt lat="43.87511" lon="7.28949">
        <ele>792.73999023438</ele>
        <time>2011-03-20T09:34:44Z</time>
      </trkpt>
      <trkpt lat="43.87521" lon="7.28946">
        <ele>794.66998291016</ele>
        <time>2011-03-20T09:34:52Z</time>
      </trkpt>
      <trkpt lat="43.87522" lon="7.28945">
        <ele>794.66998291016</ele>
        <time>2011-03-20T09:34:53Z</time>
      </trkpt>
      <trkpt lat="43.87527" lon="7.28943">
        <ele>793.21997070312</ele>
        <time>2011-03-20T09:34:57Z</time>
      </trkpt>
      <trkpt lat="43.87534" lon="7.28946">
        <ele>793.21997070312</ele>
        <time>2011-03-20T09:35:00Z</time>
      </trkpt>
      <trkpt lat="43.87538" lon="7.28958">
        <ele>793.21997070312</ele>
        <time>2011-03-20T09:35:04Z</time>
      </trkpt>
      <trkpt lat="43.87539" lon="7.28968">
        <ele>794.19000244141</ele>
        <time>2011-03-20T09:35:08Z</time>
      </trkpt>
      <trkpt lat="43.8754" lon="7.28974">
        <ele>795.63000488281</ele>
        <time>2011-03-20T09:35:14Z</time>
      </trkpt>
      <trkpt lat="43.87538" lon="7.29">
        <ele>799.46997070312</ele>
        <time>2011-03-20T09:35:28Z</time>
      </trkpt>
      <trkpt lat="43.87541" lon="7.29008">
        <ele>799.46997070312</ele>
        <time>2011-03-20T09:35:31Z</time>
      </trkpt>
      <trkpt lat="43.87545" lon="7.29014">
        <ele>801.88000488281</ele>
        <time>2011-03-20T09:35:35Z</time>
      </trkpt>
      <trkpt lat="43.8755" lon="7.29019">
        <ele>802.84002685547</ele>
        <time>2011-03-20T09:35:40Z</time>
      </trkpt>
      <trkpt lat="43.87561" lon="7.29025">
        <ele>803.79998779297</ele>
        <time>2011-03-20T09:35:50Z</time>
      </trkpt>
      <trkpt lat="43.87564" lon="7.29038">
        <ele>805.71997070312</ele>
        <time>2011-03-20T09:35:57Z</time>
      </trkpt>
      <trkpt lat="43.87572" lon="7.29053">
        <ele>808.60998535156</ele>
        <time>2011-03-20T09:36:09Z</time>
      </trkpt>
      <trkpt lat="43.87581" lon="7.29054">
        <ele>810.53002929688</ele>
        <time>2011-03-20T09:36:19Z</time>
      </trkpt>
      <trkpt lat="43.87583" lon="7.29054">
        <ele>811.01000976562</ele>
        <time>2011-03-20T09:36:21Z</time>
      </trkpt>
      <trkpt lat="43.87589" lon="7.29069">
        <ele>814.36999511719</ele>
        <time>2011-03-20T09:36:35Z</time>
      </trkpt>
      <trkpt lat="43.87595" lon="7.29071">
        <ele>817.26000976562</ele>
        <time>2011-03-20T09:36:44Z</time>
      </trkpt>
      <trkpt lat="43.87595" lon="7.29071">
        <ele>816.78002929688</ele>
        <time>2011-03-20T09:36:45Z</time>
      </trkpt>
      <trkpt lat="43.87602" lon="7.29072">
        <ele>819.17999267578</ele>
        <time>2011-03-20T09:36:54Z</time>
      </trkpt>
      <trkpt lat="43.87604" lon="7.29059">
        <ele>822.54998779297</ele>
        <time>2011-03-20T09:37:05Z</time>
      </trkpt>
      <trkpt lat="43.87604" lon="7.29058">
        <ele>822.54998779297</ele>
        <time>2011-03-20T09:37:06Z</time>
      </trkpt>
      <trkpt lat="43.87605" lon="7.29055">
        <ele>823.03002929688</ele>
        <time>2011-03-20T09:37:10Z</time>
      </trkpt>
      <trkpt lat="43.87608" lon="7.29058">
        <ele>824.95001220703</ele>
        <time>2011-03-20T09:37:14Z</time>
      </trkpt>
      <trkpt lat="43.87625" lon="7.29071">
        <ele>827.83001708984</ele>
        <time>2011-03-20T09:37:27Z</time>
      </trkpt>
      <trkpt lat="43.87627" lon="7.29076">
        <ele>828.78997802734</ele>
        <time>2011-03-20T09:37:31Z</time>
      </trkpt>
      <trkpt lat="43.87631" lon="7.29084">
        <ele>831.20001220703</ele>
        <time>2011-03-20T09:37:40Z</time>
      </trkpt>
      <trkpt lat="43.87629" lon="7.29093">
        <ele>832.64001464844</ele>
        <time>2011-03-20T09:37:47Z</time>
      </trkpt>
      <trkpt lat="43.87632" lon="7.29102">
        <ele>834.55999755859</ele>
        <time>2011-03-20T09:37:54Z</time>
      </trkpt>
      <trkpt lat="43.87642" lon="7.29106">
        <ele>836.47998046875</ele>
        <time>2011-03-20T09:38:03Z</time>
      </trkpt>
      <trkpt lat="43.87645" lon="7.29104">
        <ele>837.92999267578</ele>
        <time>2011-03-20T09:38:07Z</time>
      </trkpt>
      <trkpt lat="43.87643" lon="7.29092">
        <ele>840.80999755859</ele>
        <time>2011-03-20T09:38:18Z</time>
      </trkpt>
      <trkpt lat="43.87645" lon="7.29091">
        <ele>841.77001953125</ele>
        <time>2011-03-20T09:38:21Z</time>
      </trkpt>
      <trkpt lat="43.87646" lon="7.29091">
        <ele>841.77001953125</ele>
        <time>2011-03-20T09:38:23Z</time>
      </trkpt>
      <trkpt lat="43.87655" lon="7.29087">
        <ele>845.61999511719</ele>
        <time>2011-03-20T09:38:36Z</time>
      </trkpt>
      <trkpt lat="43.87661" lon="7.29079">
        <ele>848.02001953125</ele>
        <time>2011-03-20T09:38:47Z</time>
      </trkpt>
      <trkpt lat="43.87662" lon="7.29078">
        <ele>848.5</ele>
        <time>2011-03-20T09:38:49Z</time>
      </trkpt>
      <trkpt lat="43.87671" lon="7.2907">
        <ele>851.86999511719</ele>
        <time>2011-03-20T09:39:02Z</time>
      </trkpt>
      <trkpt lat="43.87675" lon="7.29063">
        <ele>854.75</ele>
        <time>2011-03-20T09:39:14Z</time>
      </trkpt>
      <trkpt lat="43.87675" lon="7.29061">
        <ele>855.71002197266</ele>
        <time>2011-03-20T09:39:16Z</time>
      </trkpt>
      <trkpt lat="43.87677" lon="7.29057">
        <ele>856.66998291016</ele>
        <time>2011-03-20T09:39:21Z</time>
      </trkpt>
      <trkpt lat="43.87675" lon="7.29047">
        <ele>858.10998535156</ele>
        <time>2011-03-20T09:39:28Z</time>
      </trkpt>
      <trkpt lat="43.87671" lon="7.29043">
        <ele>859.08001708984</ele>
        <time>2011-03-20T09:39:33Z</time>
      </trkpt>
      <trkpt lat="43.87667" lon="7.29028">
        <ele>862.91998291016</ele>
        <time>2011-03-20T09:39:47Z</time>
      </trkpt>
      <trkpt lat="43.87665" lon="7.29022">
        <ele>863.88000488281</ele>
        <time>2011-03-20T09:39:53Z</time>
      </trkpt>
      <trkpt lat="43.87666" lon="7.29018">
        <ele>865.32000732422</ele>
        <time>2011-03-20T09:39:59Z</time>
      </trkpt>
      <trkpt lat="43.87669" lon="7.29019">
        <ele>866.28997802734</ele>
        <time>2011-03-20T09:40:02Z</time>
      </trkpt>
      <trkpt lat="43.87683" lon="7.29031">
        <ele>869.16998291016</ele>
        <time>2011-03-20T09:40:16Z</time>
      </trkpt>
      <trkpt lat="43.87691" lon="7.29032">
        <ele>870.13000488281</ele>
        <time>2011-03-20T09:40:23Z</time>
      </trkpt>
      <trkpt lat="43.87694" lon="7.2904">
        <ele>871.09002685547</ele>
        <time>2011-03-20T09:40:28Z</time>
      </trkpt>
      <trkpt lat="43.87709" lon="7.29041">
        <ele>874.46002197266</ele>
        <time>2011-03-20T09:40:41Z</time>
      </trkpt>
      <trkpt lat="43.87715" lon="7.29037">
        <ele>875.90002441406</ele>
        <time>2011-03-20T09:40:48Z</time>
      </trkpt>
      <trkpt lat="43.87726" lon="7.2905">
        <ele>878.78002929688</ele>
        <time>2011-03-20T09:41:01Z</time>
      </trkpt>
      <trkpt lat="43.87735" lon="7.29049">
        <ele>881.19000244141</ele>
        <time>2011-03-20T09:41:11Z</time>
      </trkpt>
      <trkpt lat="43.87742" lon="7.29047">
        <ele>883.10998535156</ele>
        <time>2011-03-20T09:41:18Z</time>
      </trkpt>
      <trkpt lat="43.87744" lon="7.29048">
        <ele>883.10998535156</ele>
        <time>2011-03-20T09:41:20Z</time>
      </trkpt>
      <trkpt lat="43.87746" lon="7.2905">
        <ele>883.10998535156</ele>
        <time>2011-03-20T09:41:22Z</time>
      </trkpt>
      <trkpt lat="43.87754" lon="7.29074">
        <ele>887.42999267578</ele>
        <time>2011-03-20T09:41:37Z</time>
      </trkpt>
      <trkpt lat="43.87763" lon="7.29086">
        <ele>888.88000488281</ele>
        <time>2011-03-20T09:41:43Z</time>
      </trkpt>
      <trkpt lat="43.87775" lon="7.2909">
        <ele>891.28002929688</ele>
        <time>2011-03-20T09:41:51Z</time>
      </trkpt>
      <trkpt lat="43.87783" lon="7.29097">
        <ele>892.71997070312</ele>
        <time>2011-03-20T09:41:57Z</time>
      </trkpt>
      <trkpt lat="43.87786" lon="7.2912">
        <ele>894.64001464844</ele>
        <time>2011-03-20T09:42:06Z</time>
      </trkpt>
      <trkpt lat="43.87796" lon="7.29129">
        <ele>895.60998535156</ele>
        <time>2011-03-20T09:42:12Z</time>
      </trkpt>
      <trkpt lat="43.87818" lon="7.2913">
        <ele>898.48999023438</ele>
        <time>2011-03-20T09:42:25Z</time>
      </trkpt>
      <trkpt lat="43.87835" lon="7.29121">
        <ele>900.89001464844</ele>
        <time>2011-03-20T09:42:35Z</time>
      </trkpt>
      <trkpt lat="43.87838" lon="7.29119">
        <ele>901.36999511719</ele>
        <time>2011-03-20T09:42:37Z</time>
      </trkpt>
      <trkpt lat="43.87862" lon="7.29109">
        <ele>904.26000976562</ele>
        <time>2011-03-20T09:42:50Z</time>
      </trkpt>
      <trkpt lat="43.87895" lon="7.29093">
        <ele>902.82000732422</ele>
        <time>2011-03-20T09:43:04Z</time>
      </trkpt>
      <trkpt lat="43.87922" lon="7.29069">
        <ele>903.78002929688</ele>
        <time>2011-03-20T09:43:18Z</time>
      </trkpt>
      <trkpt lat="43.87943" lon="7.29043">
        <ele>903.78002929688</ele>
        <time>2011-03-20T09:43:30Z</time>
      </trkpt>
      <trkpt lat="43.87955" lon="7.2901">
        <ele>907.14001464844</ele>
        <time>2011-03-20T09:43:43Z</time>
      </trkpt>
      <trkpt lat="43.87962" lon="7.28983">
        <ele>908.09997558594</ele>
        <time>2011-03-20T09:43:53Z</time>
      </trkpt>
      <trkpt lat="43.8797" lon="7.28947">
        <ele>910.98999023438</ele>
        <time>2011-03-20T09:44:06Z</time>
      </trkpt>
      <trkpt lat="43.87979" lon="7.2892">
        <ele>912.90997314453</ele>
        <time>2011-03-20T09:44:17Z</time>
      </trkpt>
      <trkpt lat="43.87986" lon="7.28901">
        <ele>914.83001708984</ele>
        <time>2011-03-20T09:44:25Z</time>
      </trkpt>
      <trkpt lat="43.87992" lon="7.28884">
        <ele>917.71997070312</ele>
        <time>2011-03-20T09:44:33Z</time>
      </trkpt>
      <trkpt lat="43.87998" lon="7.28871">
        <ele>919.64001464844</ele>
        <time>2011-03-20T09:44:40Z</time>
      </trkpt>
      <trkpt lat="43.88012" lon="7.28845">
        <ele>921.55999755859</ele>
        <time>2011-03-20T09:44:52Z</time>
      </trkpt>
      <trkpt lat="43.88015" lon="7.28839">
        <ele>921.55999755859</ele>
        <time>2011-03-20T09:44:55Z</time>
      </trkpt>
      <trkpt lat="43.88017" lon="7.28833">
        <ele>921.55999755859</ele>
        <time>2011-03-20T09:44:58Z</time>
      </trkpt>
      <trkpt lat="43.88018" lon="7.28828">
        <ele>923</ele>
        <time>2011-03-20T09:45:01Z</time>
      </trkpt>
      <trkpt lat="43.88018" lon="7.28819">
        <ele>923.96002197266</ele>
        <time>2011-03-20T09:45:06Z</time>
      </trkpt>
      <trkpt lat="43.88018" lon="7.28812">
        <ele>923</ele>
        <time>2011-03-20T09:45:09Z</time>
      </trkpt>
      <trkpt lat="43.88028" lon="7.28807">
        <ele>923.47998046875</ele>
        <time>2011-03-20T09:45:17Z</time>
      </trkpt>
      <trkpt lat="43.88043" lon="7.28815">
        <ele>924.45001220703</ele>
        <time>2011-03-20T09:45:24Z</time>
      </trkpt>
      <trkpt lat="43.88049" lon="7.28819">
        <ele>926.36999511719</ele>
        <time>2011-03-20T09:45:28Z</time>
      </trkpt>
      <trkpt lat="43.88054" lon="7.2883">
        <ele>924.92999267578</ele>
        <time>2011-03-20T09:45:33Z</time>
      </trkpt>
      <trkpt lat="43.88065" lon="7.28838">
        <ele>924.92999267578</ele>
        <time>2011-03-20T09:45:38Z</time>
      </trkpt>
      <trkpt lat="43.8807" lon="7.28841">
        <ele>925.40997314453</ele>
        <time>2011-03-20T09:45:42Z</time>
      </trkpt>
      <trkpt lat="43.88083" lon="7.28849">
        <ele>927.33001708984</ele>
        <time>2011-03-20T09:45:55Z</time>
      </trkpt>
      <trkpt lat="43.88097" lon="7.28861">
        <ele>927.33001708984</ele>
        <time>2011-03-20T09:46:03Z</time>
      </trkpt>
      <trkpt lat="43.88115" lon="7.28868">
        <ele>927.33001708984</ele>
        <time>2011-03-20T09:46:14Z</time>
      </trkpt>
      <trkpt lat="43.88118" lon="7.28871">
        <ele>930.69000244141</ele>
        <time>2011-03-20T09:46:16Z</time>
      </trkpt>
      <trkpt lat="43.88134" lon="7.28886">
        <ele>931.16998291016</ele>
        <time>2011-03-20T09:46:25Z</time>
      </trkpt>
      <trkpt lat="43.8814" lon="7.28889">
        <ele>932.61999511719</ele>
        <time>2011-03-20T09:46:28Z</time>
      </trkpt>
      <trkpt lat="43.88157" lon="7.28895">
        <ele>932.14001464844</ele>
        <time>2011-03-20T09:46:36Z</time>
      </trkpt>
      <trkpt lat="43.88168" lon="7.28897">
        <ele>933.58001708984</ele>
        <time>2011-03-20T09:46:42Z</time>
      </trkpt>
      <trkpt lat="43.88192" lon="7.28903">
        <ele>938.85998535156</ele>
        <time>2011-03-20T09:46:56Z</time>
      </trkpt>
      <trkpt lat="43.88208" lon="7.28905">
        <ele>939.83001708984</ele>
        <time>2011-03-20T09:47:06Z</time>
      </trkpt>
      <trkpt lat="43.88215" lon="7.28911">
        <ele>939.83001708984</ele>
        <time>2011-03-20T09:47:10Z</time>
      </trkpt>
      <trkpt lat="43.88219" lon="7.28914">
        <ele>938.38000488281</ele>
        <time>2011-03-20T09:47:12Z</time>
      </trkpt>
      <trkpt lat="43.88233" lon="7.2892">
        <ele>936.46002197266</ele>
        <time>2011-03-20T09:47:18Z</time>
      </trkpt>
      <trkpt lat="43.88258" lon="7.28929">
        <ele>938.85998535156</ele>
        <time>2011-03-20T09:47:28Z</time>
      </trkpt>
      <trkpt lat="43.88282" lon="7.28928">
        <ele>940.78997802734</ele>
        <time>2011-03-20T09:47:40Z</time>
      </trkpt>
      <trkpt lat="43.88301" lon="7.28926">
        <ele>942.22998046875</ele>
        <time>2011-03-20T09:47:50Z</time>
      </trkpt>
      <trkpt lat="43.88317" lon="7.28929">
        <ele>945.59002685547</ele>
        <time>2011-03-20T09:48:05Z</time>
      </trkpt>
      <trkpt lat="43.88318" lon="7.2893">
        <ele>945.10998535156</ele>
        <time>2011-03-20T09:48:06Z</time>
      </trkpt>
      <trkpt lat="43.88324" lon="7.28933">
        <ele>948.96002197266</ele>
        <time>2011-03-20T09:48:15Z</time>
      </trkpt>
      <trkpt lat="43.88329" lon="7.28932">
        <ele>947.03997802734</ele>
        <time>2011-03-20T09:48:20Z</time>
      </trkpt>
      <trkpt lat="43.88334" lon="7.28934">
        <ele>948.47998046875</ele>
        <time>2011-03-20T09:48:24Z</time>
      </trkpt>
      <trkpt lat="43.8835" lon="7.28943">
        <ele>952.32000732422</ele>
        <time>2011-03-20T09:48:38Z</time>
      </trkpt>
      <trkpt lat="43.88368" lon="7.28948">
        <ele>956.16998291016</ele>
        <time>2011-03-20T09:48:51Z</time>
      </trkpt>
      <trkpt lat="43.88385" lon="7.28952">
        <ele>958.09002685547</ele>
        <time>2011-03-20T09:49:02Z</time>
      </trkpt>
      <trkpt lat="43.88395" lon="7.28962">
        <ele>958.57000732422</ele>
        <time>2011-03-20T09:49:09Z</time>
      </trkpt>
      <trkpt lat="43.88398" lon="7.28964">
        <ele>957.13000488281</ele>
        <time>2011-03-20T09:49:11Z</time>
      </trkpt>
      <trkpt lat="43.88403" lon="7.28966">
        <ele>960.97998046875</ele>
        <time>2011-03-20T09:49:13Z</time>
      </trkpt>
      <trkpt lat="43.88404" lon="7.28966">
        <ele>959.04998779297</ele>
        <time>2011-03-20T09:49:14Z</time>
      </trkpt>
      <trkpt lat="43.8841" lon="7.28966">
        <ele>959.04998779297</ele>
        <time>2011-03-20T09:49:17Z</time>
      </trkpt>
      <trkpt lat="43.88419" lon="7.28973">
        <ele>958.57000732422</ele>
        <time>2011-03-20T09:49:22Z</time>
      </trkpt>
      <trkpt lat="43.88426" lon="7.28982">
        <ele>960.97998046875</ele>
        <time>2011-03-20T09:49:26Z</time>
      </trkpt>
      <trkpt lat="43.88449" lon="7.29003">
        <ele>961.46002197266</ele>
        <time>2011-03-20T09:49:39Z</time>
      </trkpt>
      <trkpt lat="43.88456" lon="7.29004">
        <ele>960.97998046875</ele>
        <time>2011-03-20T09:49:42Z</time>
      </trkpt>
      <trkpt lat="43.88474" lon="7.29008">
        <ele>964.34002685547</ele>
        <time>2011-03-20T09:49:53Z</time>
      </trkpt>
      <trkpt lat="43.88491" lon="7.29022">
        <ele>968.17999267578</ele>
        <time>2011-03-20T09:50:07Z</time>
      </trkpt>
      <trkpt lat="43.88491" lon="7.29023">
        <ele>967.70001220703</ele>
        <time>2011-03-20T09:50:08Z</time>
      </trkpt>
      <trkpt lat="43.88501" lon="7.29024">
        <ele>971.07000732422</ele>
        <time>2011-03-20T09:50:20Z</time>
      </trkpt>
      <trkpt lat="43.88501" lon="7.29025">
        <ele>971.07000732422</ele>
        <time>2011-03-20T09:50:21Z</time>
      </trkpt>
      <trkpt lat="43.88515" lon="7.29039">
        <ele>973.46997070312</ele>
        <time>2011-03-20T09:50:34Z</time>
      </trkpt>
      <trkpt lat="43.8852" lon="7.29047">
        <ele>975.88000488281</ele>
        <time>2011-03-20T09:50:38Z</time>
      </trkpt>
      <trkpt lat="43.88522" lon="7.29053">
        <ele>973.95001220703</ele>
        <time>2011-03-20T09:50:40Z</time>
      </trkpt>
      <trkpt lat="43.88532" lon="7.29074">
        <ele>972.51000976562</ele>
        <time>2011-03-20T09:50:48Z</time>
      </trkpt>
      <trkpt lat="43.88539" lon="7.29085">
        <ele>969.63000488281</ele>
        <time>2011-03-20T09:50:52Z</time>
      </trkpt>
      <trkpt lat="43.88554" lon="7.2911">
        <ele>965.29998779297</ele>
        <time>2011-03-20T09:51:00Z</time>
      </trkpt>
      <trkpt lat="43.88562" lon="7.29122">
        <ele>961.94000244141</ele>
        <time>2011-03-20T09:51:04Z</time>
      </trkpt>
      <trkpt lat="43.88587" lon="7.29141">
        <ele>962.41998291016</ele>
        <time>2011-03-20T09:51:14Z</time>
      </trkpt>
      <trkpt lat="43.88612" lon="7.29153">
        <ele>963.38000488281</ele>
        <time>2011-03-20T09:51:26Z</time>
      </trkpt>
      <trkpt lat="43.88628" lon="7.29158">
        <ele>959.04998779297</ele>
        <time>2011-03-20T09:51:32Z</time>
      </trkpt>
      <trkpt lat="43.88633" lon="7.2916">
        <ele>962.41998291016</ele>
        <time>2011-03-20T09:51:34Z</time>
      </trkpt>
      <trkpt lat="43.88652" lon="7.2917">
        <ele>962.90002441406</ele>
        <time>2011-03-20T09:51:41Z</time>
      </trkpt>
      <trkpt lat="43.88677" lon="7.29187">
        <ele>963.85998535156</ele>
        <time>2011-03-20T09:51:51Z</time>
      </trkpt>
      <trkpt lat="43.88686" lon="7.29191">
        <ele>961.94000244141</ele>
        <time>2011-03-20T09:51:54Z</time>
      </trkpt>
      <trkpt lat="43.88692" lon="7.29192">
        <ele>961.46002197266</ele>
        <time>2011-03-20T09:51:56Z</time>
      </trkpt>
      <trkpt lat="43.88708" lon="7.29182">
        <ele>959.04998779297</ele>
        <time>2011-03-20T09:52:03Z</time>
      </trkpt>
      <trkpt lat="43.88723" lon="7.29155">
        <ele>955.69000244141</ele>
        <time>2011-03-20T09:52:12Z</time>
      </trkpt>
      <trkpt lat="43.88724" lon="7.29152">
        <ele>956.16998291016</ele>
        <time>2011-03-20T09:52:13Z</time>
      </trkpt>
      <trkpt lat="43.88726" lon="7.2914">
        <ele>958.57000732422</ele>
        <time>2011-03-20T09:52:16Z</time>
      </trkpt>
      <trkpt lat="43.88728" lon="7.29132">
        <ele>954.25</ele>
        <time>2011-03-20T09:52:18Z</time>
      </trkpt>
      <trkpt lat="43.88729" lon="7.29128">
        <ele>956.16998291016</ele>
        <time>2011-03-20T09:52:19Z</time>
      </trkpt>
      <trkpt lat="43.88732" lon="7.29111">
        <ele>952.32000732422</ele>
        <time>2011-03-20T09:52:23Z</time>
      </trkpt>
      <trkpt lat="43.88728" lon="7.29066">
        <ele>947.52001953125</ele>
        <time>2011-03-20T09:52:35Z</time>
      </trkpt>
      <trkpt lat="43.88728" lon="7.29062">
        <ele>947.52001953125</ele>
        <time>2011-03-20T09:52:36Z</time>
      </trkpt>
      <trkpt lat="43.88723" lon="7.29027">
        <ele>942.71002197266</ele>
        <time>2011-03-20T09:52:45Z</time>
      </trkpt>
      <trkpt lat="43.88722" lon="7.29024">
        <ele>943.19000244141</ele>
        <time>2011-03-20T09:52:46Z</time>
      </trkpt>
      <trkpt lat="43.88723" lon="7.29013">
        <ele>941.75</ele>
        <time>2011-03-20T09:52:49Z</time>
      </trkpt>
      <trkpt lat="43.88722" lon="7.29006">
        <ele>939.34997558594</ele>
        <time>2011-03-20T09:52:51Z</time>
      </trkpt>
      <trkpt lat="43.88721" lon="7.28996">
        <ele>935.5</ele>
        <time>2011-03-20T09:52:54Z</time>
      </trkpt>
      <trkpt lat="43.88722" lon="7.28994">
        <ele>935.02001953125</ele>
        <time>2011-03-20T09:52:55Z</time>
      </trkpt>
      <trkpt lat="43.88722" lon="7.28991">
        <ele>935.5</ele>
        <time>2011-03-20T09:52:56Z</time>
      </trkpt>
      <trkpt lat="43.88722" lon="7.28986">
        <ele>932.14001464844</ele>
        <time>2011-03-20T09:52:58Z</time>
      </trkpt>
      <trkpt lat="43.88722" lon="7.28968">
        <ele>928.28997802734</ele>
        <time>2011-03-20T09:53:05Z</time>
      </trkpt>
      <trkpt lat="43.88723" lon="7.2895">
        <ele>924.45001220703</ele>
        <time>2011-03-20T09:53:10Z</time>
      </trkpt>
      <trkpt lat="43.88724" lon="7.28946">
        <ele>924.45001220703</ele>
        <time>2011-03-20T09:53:11Z</time>
      </trkpt>
      <trkpt lat="43.88724" lon="7.28931">
        <ele>924.92999267578</ele>
        <time>2011-03-20T09:53:15Z</time>
      </trkpt>
      <trkpt lat="43.88723" lon="7.28918">
        <ele>928.77001953125</ele>
        <time>2011-03-20T09:53:19Z</time>
      </trkpt>
      <trkpt lat="43.88725" lon="7.28907">
        <ele>925.40997314453</ele>
        <time>2011-03-20T09:53:23Z</time>
      </trkpt>
      <trkpt lat="43.88744" lon="7.2892">
        <ele>918.20001220703</ele>
        <time>2011-03-20T09:53:33Z</time>
      </trkpt>
      <trkpt lat="43.88765" lon="7.28911">
        <ele>926.84997558594</ele>
        <time>2011-03-20T09:53:43Z</time>
      </trkpt>
      <trkpt lat="43.88767" lon="7.28909">
        <ele>926.84997558594</ele>
        <time>2011-03-20T09:53:44Z</time>
      </trkpt>
      <trkpt lat="43.88772" lon="7.28899">
        <ele>928.77001953125</ele>
        <time>2011-03-20T09:53:50Z</time>
      </trkpt>
      <trkpt lat="43.88773" lon="7.28895">
        <ele>926.84997558594</ele>
        <time>2011-03-20T09:53:52Z</time>
      </trkpt>
      <trkpt lat="43.88773" lon="7.28887">
        <ele>929.25</ele>
        <time>2011-03-20T09:53:56Z</time>
      </trkpt>
      <trkpt lat="43.88772" lon="7.28884">
        <ele>924.45001220703</ele>
        <time>2011-03-20T09:53:58Z</time>
      </trkpt>
      <trkpt lat="43.88771" lon="7.28882">
        <ele>928.28997802734</ele>
        <time>2011-03-20T09:53:59Z</time>
      </trkpt>
      <trkpt lat="43.88769" lon="7.28877">
        <ele>931.65002441406</ele>
        <time>2011-03-20T09:54:04Z</time>
      </trkpt>
      <trkpt lat="43.88769" lon="7.28874">
        <ele>932.61999511719</ele>
        <time>2011-03-20T09:54:06Z</time>
      </trkpt>
      <trkpt lat="43.88768" lon="7.28871">
        <ele>933.58001708984</ele>
        <time>2011-03-20T09:54:08Z</time>
      </trkpt>
      <trkpt lat="43.88766" lon="7.28865">
        <ele>933.09997558594</ele>
        <time>2011-03-20T09:54:12Z</time>
      </trkpt>
      <trkpt lat="43.88764" lon="7.28861">
        <ele>930.69000244141</ele>
        <time>2011-03-20T09:54:15Z</time>
      </trkpt>
      <trkpt lat="43.88762" lon="7.28858">
        <ele>935.5</ele>
        <time>2011-03-20T09:54:17Z</time>
      </trkpt>
      <trkpt lat="43.88761" lon="7.28857">
        <ele>933.58001708984</ele>
        <time>2011-03-20T09:54:18Z</time>
      </trkpt>
      <trkpt lat="43.8876" lon="7.28854">
        <ele>935.5</ele>
        <time>2011-03-20T09:54:20Z</time>
      </trkpt>
      <trkpt lat="43.88758" lon="7.28843">
        <ele>938.85998535156</ele>
        <time>2011-03-20T09:54:27Z</time>
      </trkpt>
      <trkpt lat="43.88758" lon="7.28841">
        <ele>936.94000244141</ele>
        <time>2011-03-20T09:54:28Z</time>
      </trkpt>
      <trkpt lat="43.88757" lon="7.28836">
        <ele>935.97998046875</ele>
        <time>2011-03-20T09:54:31Z</time>
      </trkpt>
      <trkpt lat="43.88757" lon="7.28832">
        <ele>938.85998535156</ele>
        <time>2011-03-20T09:54:33Z</time>
      </trkpt>
      <trkpt lat="43.88758" lon="7.2883">
        <ele>938.38000488281</ele>
        <time>2011-03-20T09:54:34Z</time>
      </trkpt>
      <trkpt lat="43.88761" lon="7.28827">
        <ele>936.94000244141</ele>
        <time>2011-03-20T09:54:36Z</time>
      </trkpt>
      <trkpt lat="43.88768" lon="7.28826">
        <ele>940.78997802734</ele>
        <time>2011-03-20T09:54:39Z</time>
      </trkpt>
      <trkpt lat="43.88771" lon="7.28825">
        <ele>937.41998291016</ele>
        <time>2011-03-20T09:54:40Z</time>
      </trkpt>
      <trkpt lat="43.88777" lon="7.28824">
        <ele>940.78997802734</ele>
        <time>2011-03-20T09:54:43Z</time>
      </trkpt>
      <trkpt lat="43.88779" lon="7.28824">
        <ele>937.90002441406</ele>
        <time>2011-03-20T09:54:44Z</time>
      </trkpt>
      <trkpt lat="43.88781" lon="7.28824">
        <ele>941.75</ele>
        <time>2011-03-20T09:54:45Z</time>
      </trkpt>
      <trkpt lat="43.88782" lon="7.28825">
        <ele>938.38000488281</ele>
        <time>2011-03-20T09:54:46Z</time>
      </trkpt>
      <trkpt lat="43.88785" lon="7.28826">
        <ele>942.22998046875</ele>
        <time>2011-03-20T09:54:48Z</time>
      </trkpt>
      <trkpt lat="43.88786" lon="7.28827">
        <ele>942.22998046875</ele>
        <time>2011-03-20T09:54:49Z</time>
      </trkpt>
      <trkpt lat="43.88789" lon="7.28827">
        <ele>937.90002441406</ele>
        <time>2011-03-20T09:54:50Z</time>
      </trkpt>
      <trkpt lat="43.88791" lon="7.28827">
        <ele>938.38000488281</ele>
        <time>2011-03-20T09:54:51Z</time>
      </trkpt>
      <trkpt lat="43.88803" lon="7.28824">
        <ele>938.38000488281</ele>
        <time>2011-03-20T09:54:55Z</time>
      </trkpt>
      <trkpt lat="43.88807" lon="7.2882">
        <ele>935.5</ele>
        <time>2011-03-20T09:54:57Z</time>
      </trkpt>
      <trkpt lat="43.88813" lon="7.28816">
        <ele>940.30999755859</ele>
        <time>2011-03-20T09:55:00Z</time>
      </trkpt>
      <trkpt lat="43.88816" lon="7.28817">
        <ele>937.90002441406</ele>
        <time>2011-03-20T09:55:01Z</time>
      </trkpt>
      <trkpt lat="43.88829" lon="7.28819">
        <ele>935.5</ele>
        <time>2011-03-20T09:55:07Z</time>
      </trkpt>
      <trkpt lat="43.88855" lon="7.28823">
        <ele>936.94000244141</ele>
        <time>2011-03-20T09:55:17Z</time>
      </trkpt>
      <trkpt lat="43.88878" lon="7.28827">
        <ele>941.75</ele>
        <time>2011-03-20T09:55:28Z</time>
      </trkpt>
      <trkpt lat="43.88888" lon="7.2883">
        <ele>938.38000488281</ele>
        <time>2011-03-20T09:55:33Z</time>
      </trkpt>
      <trkpt lat="43.88897" lon="7.28832">
        <ele>941.75</ele>
        <time>2011-03-20T09:55:38Z</time>
      </trkpt>
      <trkpt lat="43.88914" lon="7.28836">
        <ele>945.59002685547</ele>
        <time>2011-03-20T09:55:49Z</time>
      </trkpt>
      <trkpt lat="43.88929" lon="7.28839">
        <ele>948.47998046875</ele>
        <time>2011-03-20T09:56:02Z</time>
      </trkpt>
      <trkpt lat="43.88932" lon="7.2884">
        <ele>949.91998291016</ele>
        <time>2011-03-20T09:56:04Z</time>
      </trkpt>
      <trkpt lat="43.88934" lon="7.2884">
        <ele>948</ele>
        <time>2011-03-20T09:56:06Z</time>
      </trkpt>
      <trkpt lat="43.88942" lon="7.28831">
        <ele>950.40002441406</ele>
        <time>2011-03-20T09:56:12Z</time>
      </trkpt>
      <trkpt lat="43.88948" lon="7.28817">
        <ele>948</ele>
        <time>2011-03-20T09:56:17Z</time>
      </trkpt>
      <trkpt lat="43.8895" lon="7.28811">
        <ele>950.40002441406</ele>
        <time>2011-03-20T09:56:19Z</time>
      </trkpt>
      <trkpt lat="43.88953" lon="7.2879">
        <ele>953.28002929688</ele>
        <time>2011-03-20T09:56:31Z</time>
      </trkpt>
      <trkpt lat="43.88954" lon="7.28785">
        <ele>954.72998046875</ele>
        <time>2011-03-20T09:56:34Z</time>
      </trkpt>
      <trkpt lat="43.88953" lon="7.28782">
        <ele>953.77001953125</ele>
        <time>2011-03-20T09:56:36Z</time>
      </trkpt>
      <trkpt lat="43.88953" lon="7.28778">
        <ele>955.69000244141</ele>
        <time>2011-03-20T09:56:39Z</time>
      </trkpt>
      <trkpt lat="43.88953" lon="7.28777">
        <ele>956.16998291016</ele>
        <time>2011-03-20T09:56:40Z</time>
      </trkpt>
      <trkpt lat="43.88952" lon="7.28772">
        <ele>958.57000732422</ele>
        <time>2011-03-20T09:56:43Z</time>
      </trkpt>
      <trkpt lat="43.88952" lon="7.28771">
        <ele>955.21002197266</ele>
        <time>2011-03-20T09:56:44Z</time>
      </trkpt>
      <trkpt lat="43.88952" lon="7.28763">
        <ele>957.60998535156</ele>
        <time>2011-03-20T09:56:50Z</time>
      </trkpt>
      <trkpt lat="43.88953" lon="7.28755">
        <ele>960.97998046875</ele>
        <time>2011-03-20T09:56:55Z</time>
      </trkpt>
      <trkpt lat="43.88953" lon="7.28754">
        <ele>960.01000976562</ele>
        <time>2011-03-20T09:56:56Z</time>
      </trkpt>
      <trkpt lat="43.88953" lon="7.28751">
        <ele>957.60998535156</ele>
        <time>2011-03-20T09:56:58Z</time>
      </trkpt>
      <trkpt lat="43.88953" lon="7.2875">
        <ele>960.97998046875</ele>
        <time>2011-03-20T09:56:59Z</time>
      </trkpt>
      <trkpt lat="43.88953" lon="7.28749">
        <ele>959.53002929688</ele>
        <time>2011-03-20T09:57:00Z</time>
      </trkpt>
      <trkpt lat="43.88951" lon="7.28739">
        <ele>963.85998535156</ele>
        <time>2011-03-20T09:57:10Z</time>
      </trkpt>
      <trkpt lat="43.8895" lon="7.28738">
        <ele>964.82000732422</ele>
        <time>2011-03-20T09:57:11Z</time>
      </trkpt>
      <trkpt lat="43.8895" lon="7.28733">
        <ele>963.38000488281</ele>
        <time>2011-03-20T09:57:15Z</time>
      </trkpt>
      <trkpt lat="43.8895" lon="7.2873">
        <ele>964.82000732422</ele>
        <time>2011-03-20T09:57:17Z</time>
      </trkpt>
      <trkpt lat="43.8895" lon="7.28727">
        <ele>965.29998779297</ele>
        <time>2011-03-20T09:57:19Z</time>
      </trkpt>
      <trkpt lat="43.88951" lon="7.28724">
        <ele>965.78002929688</ele>
        <time>2011-03-20T09:57:21Z</time>
      </trkpt>
      <trkpt lat="43.88955" lon="7.2872">
        <ele>962.41998291016</ele>
        <time>2011-03-20T09:57:24Z</time>
      </trkpt>
      <trkpt lat="43.88957" lon="7.28718">
        <ele>967.21997070312</ele>
        <time>2011-03-20T09:57:25Z</time>
      </trkpt>
      <trkpt lat="43.88982" lon="7.28691">
        <ele>964.82000732422</ele>
        <time>2011-03-20T09:57:38Z</time>
      </trkpt>
      <trkpt lat="43.88997" lon="7.28674">
        <ele>960.97998046875</ele>
        <time>2011-03-20T09:57:45Z</time>
      </trkpt>
      <trkpt lat="43.89008" lon="7.28669">
        <ele>961.94000244141</ele>
        <time>2011-03-20T09:57:49Z</time>
      </trkpt>
      <trkpt lat="43.89016" lon="7.28672">
        <ele>961.46002197266</ele>
        <time>2011-03-20T09:57:52Z</time>
      </trkpt>
      <trkpt lat="43.89023" lon="7.28678">
        <ele>958.09002685547</ele>
        <time>2011-03-20T09:57:55Z</time>
      </trkpt>
      <trkpt lat="43.8904" lon="7.287">
        <ele>955.69000244141</ele>
        <time>2011-03-20T09:58:03Z</time>
      </trkpt>
      <trkpt lat="43.89053" lon="7.28711">
        <ele>953.77001953125</ele>
        <time>2011-03-20T09:58:08Z</time>
      </trkpt>
      <trkpt lat="43.89066" lon="7.28724">
        <ele>949.91998291016</ele>
        <time>2011-03-20T09:58:13Z</time>
      </trkpt>
      <trkpt lat="43.89079" lon="7.28733">
        <ele>948.96002197266</ele>
        <time>2011-03-20T09:58:18Z</time>
      </trkpt>
      <trkpt lat="43.89082" lon="7.28738">
        <ele>947.03997802734</ele>
        <time>2011-03-20T09:58:21Z</time>
      </trkpt>
      <trkpt lat="43.89069" lon="7.28736">
        <ele>945.59002685547</ele>
        <time>2011-03-20T09:58:26Z</time>
      </trkpt>
      <trkpt lat="43.89056" lon="7.28729">
        <ele>943.19000244141</ele>
        <time>2011-03-20T09:58:31Z</time>
      </trkpt>
      <trkpt lat="43.89058" lon="7.28736">
        <ele>942.71002197266</ele>
        <time>2011-03-20T09:58:35Z</time>
      </trkpt>
      <trkpt lat="43.89078" lon="7.28753">
        <ele>938.85998535156</ele>
        <time>2011-03-20T09:58:42Z</time>
      </trkpt>
      <trkpt lat="43.89102" lon="7.28771">
        <ele>936.46002197266</ele>
        <time>2011-03-20T09:58:51Z</time>
      </trkpt>
      <trkpt lat="43.89104" lon="7.28773">
        <ele>940.30999755859</ele>
        <time>2011-03-20T09:58:52Z</time>
      </trkpt>
      <trkpt lat="43.89111" lon="7.28782">
        <ele>936.94000244141</ele>
        <time>2011-03-20T09:58:56Z</time>
      </trkpt>
      <trkpt lat="43.89117" lon="7.2879">
        <ele>939.83001708984</ele>
        <time>2011-03-20T09:59:00Z</time>
      </trkpt>
      <trkpt lat="43.89142" lon="7.28811">
        <ele>938.38000488281</ele>
        <time>2011-03-20T09:59:11Z</time>
      </trkpt>
      <trkpt lat="43.89148" lon="7.28826">
        <ele>935.02001953125</ele>
        <time>2011-03-20T09:59:15Z</time>
      </trkpt>
      <trkpt lat="43.89149" lon="7.28831">
        <ele>935.5</ele>
        <time>2011-03-20T09:59:16Z</time>
      </trkpt>
      <trkpt lat="43.89154" lon="7.28842">
        <ele>931.65002441406</ele>
        <time>2011-03-20T09:59:19Z</time>
      </trkpt>
      <trkpt lat="43.89155" lon="7.28846">
        <ele>931.65002441406</ele>
        <time>2011-03-20T09:59:20Z</time>
      </trkpt>
      <trkpt lat="43.89162" lon="7.2886">
        <ele>929.72998046875</ele>
        <time>2011-03-20T09:59:24Z</time>
      </trkpt>
      <trkpt lat="43.89168" lon="7.28869">
        <ele>930.69000244141</ele>
        <time>2011-03-20T09:59:27Z</time>
      </trkpt>
      <trkpt lat="43.89179" lon="7.28878">
        <ele>926.36999511719</ele>
        <time>2011-03-20T09:59:31Z</time>
      </trkpt>
      <trkpt lat="43.89189" lon="7.28885">
        <ele>929.25</ele>
        <time>2011-03-20T09:59:35Z</time>
      </trkpt>
      <trkpt lat="43.89222" lon="7.28908">
        <ele>927.33001708984</ele>
        <time>2011-03-20T09:59:49Z</time>
      </trkpt>
      <trkpt lat="43.89224" lon="7.2891">
        <ele>928.28997802734</ele>
        <time>2011-03-20T09:59:50Z</time>
      </trkpt>
      <trkpt lat="43.89235" lon="7.28924">
        <ele>929.72998046875</ele>
        <time>2011-03-20T09:59:57Z</time>
      </trkpt>
      <trkpt lat="43.89242" lon="7.2893">
        <ele>931.16998291016</ele>
        <time>2011-03-20T10:00:04Z</time>
      </trkpt>
      <trkpt lat="43.89242" lon="7.28936">
        <ele>933.09997558594</ele>
        <time>2011-03-20T10:00:08Z</time>
      </trkpt>
      <trkpt lat="43.89243" lon="7.2894">
        <ele>933.09997558594</ele>
        <time>2011-03-20T10:00:10Z</time>
      </trkpt>
      <trkpt lat="43.89246" lon="7.28949">
        <ele>935.97998046875</ele>
        <time>2011-03-20T10:00:17Z</time>
      </trkpt>
      <trkpt lat="43.89244" lon="7.28975">
        <ele>936.94000244141</ele>
        <time>2011-03-20T10:00:28Z</time>
      </trkpt>
      <trkpt lat="43.89242" lon="7.2899">
        <ele>936.46002197266</ele>
        <time>2011-03-20T10:00:33Z</time>
      </trkpt>
      <trkpt lat="43.89245" lon="7.29001">
        <ele>935.02001953125</ele>
        <time>2011-03-20T10:00:36Z</time>
      </trkpt>
      <trkpt lat="43.89246" lon="7.29008">
        <ele>932.14001464844</ele>
        <time>2011-03-20T10:00:38Z</time>
      </trkpt>
      <trkpt lat="43.89246" lon="7.29011">
        <ele>933.58001708984</ele>
        <time>2011-03-20T10:00:39Z</time>
      </trkpt>
      <trkpt lat="43.89245" lon="7.29015">
        <ele>932.61999511719</ele>
        <time>2011-03-20T10:00:40Z</time>
      </trkpt>
      <trkpt lat="43.89251" lon="7.29037">
        <ele>930.21002197266</ele>
        <time>2011-03-20T10:00:48Z</time>
      </trkpt>
      <trkpt lat="43.89256" lon="7.29049">
        <ele>928.28997802734</ele>
        <time>2011-03-20T10:00:51Z</time>
      </trkpt>
      <trkpt lat="43.89258" lon="7.29061">
        <ele>925.89001464844</ele>
        <time>2011-03-20T10:00:54Z</time>
      </trkpt>
      <trkpt lat="43.8926" lon="7.29075">
        <ele>925.40997314453</ele>
        <time>2011-03-20T10:00:58Z</time>
      </trkpt>
      <trkpt lat="43.89264" lon="7.29081">
        <ele>923.47998046875</ele>
        <time>2011-03-20T10:01:00Z</time>
      </trkpt>
      <trkpt lat="43.89279" lon="7.29098">
        <ele>922.52001953125</ele>
        <time>2011-03-20T10:01:07Z</time>
      </trkpt>
      <trkpt lat="43.89288" lon="7.29103">
        <ele>919.64001464844</ele>
        <time>2011-03-20T10:01:10Z</time>
      </trkpt>
      <trkpt lat="43.89292" lon="7.29108">
        <ele>918.67999267578</ele>
        <time>2011-03-20T10:01:12Z</time>
      </trkpt>
      <trkpt lat="43.89307" lon="7.29138">
        <ele>915.30999755859</ele>
        <time>2011-03-20T10:01:21Z</time>
      </trkpt>
      <trkpt lat="43.89323" lon="7.29148">
        <ele>911.95001220703</ele>
        <time>2011-03-20T10:01:27Z</time>
      </trkpt>
      <trkpt lat="43.89334" lon="7.2916">
        <ele>908.58001708984</ele>
        <time>2011-03-20T10:01:32Z</time>
      </trkpt>
      <trkpt lat="43.89348" lon="7.29174">
        <ele>905.70001220703</ele>
        <time>2011-03-20T10:01:37Z</time>
      </trkpt>
      <trkpt lat="43.8935" lon="7.29177">
        <ele>905.70001220703</ele>
        <time>2011-03-20T10:01:38Z</time>
      </trkpt>
      <trkpt lat="43.89366" lon="7.29204">
        <ele>902.33001708984</ele>
        <time>2011-03-20T10:01:46Z</time>
      </trkpt>
      <trkpt lat="43.89368" lon="7.29207">
        <ele>902.33001708984</ele>
        <time>2011-03-20T10:01:47Z</time>
      </trkpt>
      <trkpt lat="43.8939" lon="7.2923">
        <ele>899.92999267578</ele>
        <time>2011-03-20T10:01:57Z</time>
      </trkpt>
      <trkpt lat="43.89413" lon="7.29251">
        <ele>898.48999023438</ele>
        <time>2011-03-20T10:02:07Z</time>
      </trkpt>
      <trkpt lat="43.89428" lon="7.29262">
        <ele>895.11999511719</ele>
        <time>2011-03-20T10:02:13Z</time>
      </trkpt>
      <trkpt lat="43.89437" lon="7.29271">
        <ele>891.76000976562</ele>
        <time>2011-03-20T10:02:17Z</time>
      </trkpt>
      <trkpt lat="43.89466" lon="7.29279">
        <ele>891.76000976562</ele>
        <time>2011-03-20T10:02:27Z</time>
      </trkpt>
      <trkpt lat="43.89495" lon="7.29284">
        <ele>889.84002685547</ele>
        <time>2011-03-20T10:02:37Z</time>
      </trkpt>
      <trkpt lat="43.89504" lon="7.2928">
        <ele>887.90997314453</ele>
        <time>2011-03-20T10:02:40Z</time>
      </trkpt>
      <trkpt lat="43.89506" lon="7.29279">
        <ele>891.28002929688</ele>
        <time>2011-03-20T10:02:41Z</time>
      </trkpt>
      <trkpt lat="43.89509" lon="7.29277">
        <ele>887.90997314453</ele>
        <time>2011-03-20T10:02:42Z</time>
      </trkpt>
      <trkpt lat="43.89518" lon="7.29293">
        <ele>886.46997070312</ele>
        <time>2011-03-20T10:02:50Z</time>
      </trkpt>
      <trkpt lat="43.89537" lon="7.29325">
        <ele>889.35998535156</ele>
        <time>2011-03-20T10:03:01Z</time>
      </trkpt>
      <trkpt lat="43.89541" lon="7.2933">
        <ele>888.40002441406</ele>
        <time>2011-03-20T10:03:03Z</time>
      </trkpt>
      <trkpt lat="43.89544" lon="7.29336">
        <ele>889.35998535156</ele>
        <time>2011-03-20T10:03:05Z</time>
      </trkpt>
      <trkpt lat="43.89548" lon="7.29342">
        <ele>885.51000976562</ele>
        <time>2011-03-20T10:03:07Z</time>
      </trkpt>
      <trkpt lat="43.89556" lon="7.29352">
        <ele>888.40002441406</ele>
        <time>2011-03-20T10:03:11Z</time>
      </trkpt>
      <trkpt lat="43.89562" lon="7.29373">
        <ele>888.40002441406</ele>
        <time>2011-03-20T10:03:17Z</time>
      </trkpt>
      <trkpt lat="43.8955" lon="7.29395">
        <ele>887.42999267578</ele>
        <time>2011-03-20T10:03:24Z</time>
      </trkpt>
      <trkpt lat="43.89545" lon="7.2941">
        <ele>887.90997314453</ele>
        <time>2011-03-20T10:03:29Z</time>
      </trkpt>
      <trkpt lat="43.89551" lon="7.29422">
        <ele>889.35998535156</ele>
        <time>2011-03-20T10:03:33Z</time>
      </trkpt>
      <trkpt lat="43.8956" lon="7.29458">
        <ele>888.40002441406</ele>
        <time>2011-03-20T10:03:44Z</time>
      </trkpt>
      <trkpt lat="43.89572" lon="7.29489">
        <ele>890.32000732422</ele>
        <time>2011-03-20T10:03:55Z</time>
      </trkpt>
      <trkpt lat="43.89574" lon="7.29494">
        <ele>891.76000976562</ele>
        <time>2011-03-20T10:03:57Z</time>
      </trkpt>
      <trkpt lat="43.89564" lon="7.2952">
        <ele>895.60998535156</ele>
        <time>2011-03-20T10:04:07Z</time>
      </trkpt>
      <trkpt lat="43.89563" lon="7.29522">
        <ele>895.60998535156</ele>
        <time>2011-03-20T10:04:08Z</time>
      </trkpt>
      <trkpt lat="43.89556" lon="7.29549">
        <ele>894.15997314453</ele>
        <time>2011-03-20T10:04:18Z</time>
      </trkpt>
      <trkpt lat="43.89547" lon="7.29565">
        <ele>897.53002929688</ele>
        <time>2011-03-20T10:04:25Z</time>
      </trkpt>
      <trkpt lat="43.89547" lon="7.29568">
        <ele>897.04998779297</ele>
        <time>2011-03-20T10:04:26Z</time>
      </trkpt>
      <trkpt lat="43.89547" lon="7.29579">
        <ele>897.04998779297</ele>
        <time>2011-03-20T10:04:30Z</time>
      </trkpt>
      <trkpt lat="43.89532" lon="7.29594">
        <ele>896.57000732422</ele>
        <time>2011-03-20T10:04:37Z</time>
      </trkpt>
      <trkpt lat="43.89529" lon="7.29598">
        <ele>899.45001220703</ele>
        <time>2011-03-20T10:04:39Z</time>
      </trkpt>
      <trkpt lat="43.89528" lon="7.29603">
        <ele>897.04998779297</ele>
        <time>2011-03-20T10:04:41Z</time>
      </trkpt>
      <trkpt lat="43.89528" lon="7.29607">
        <ele>898.48999023438</ele>
        <time>2011-03-20T10:04:42Z</time>
      </trkpt>
      <trkpt lat="43.89519" lon="7.29624">
        <ele>897.04998779297</ele>
        <time>2011-03-20T10:04:48Z</time>
      </trkpt>
      <trkpt lat="43.89506" lon="7.29634">
        <ele>892.71997070312</ele>
        <time>2011-03-20T10:04:53Z</time>
      </trkpt>
      <trkpt lat="43.89503" lon="7.29635">
        <ele>896.09002685547</ele>
        <time>2011-03-20T10:04:54Z</time>
      </trkpt>
      <trkpt lat="43.89483" lon="7.29647">
        <ele>893.20001220703</ele>
        <time>2011-03-20T10:05:02Z</time>
      </trkpt>
      <trkpt lat="43.89475" lon="7.29652">
        <ele>891.28002929688</ele>
        <time>2011-03-20T10:05:05Z</time>
      </trkpt>
      <trkpt lat="43.8946" lon="7.29665">
        <ele>888.40002441406</ele>
        <time>2011-03-20T10:05:11Z</time>
      </trkpt>
      <trkpt lat="43.89451" lon="7.29679">
        <ele>887.90997314453</ele>
        <time>2011-03-20T10:05:16Z</time>
      </trkpt>
      <trkpt lat="43.89421" lon="7.29679">
        <ele>880.21997070312</ele>
        <time>2011-03-20T10:05:25Z</time>
      </trkpt>
      <trkpt lat="43.89404" lon="7.2968">
        <ele>878.78002929688</ele>
        <time>2011-03-20T10:05:31Z</time>
      </trkpt>
      <trkpt lat="43.89392" lon="7.29686">
        <ele>874.46002197266</ele>
        <time>2011-03-20T10:05:35Z</time>
      </trkpt>
      <trkpt lat="43.8939" lon="7.29688">
        <ele>874.46002197266</ele>
        <time>2011-03-20T10:05:36Z</time>
      </trkpt>
      <trkpt lat="43.89381" lon="7.29691">
        <ele>875.90002441406</ele>
        <time>2011-03-20T10:05:39Z</time>
      </trkpt>
      <trkpt lat="43.89375" lon="7.29692">
        <ele>873.01000976562</ele>
        <time>2011-03-20T10:05:41Z</time>
      </trkpt>
      <trkpt lat="43.89368" lon="7.29694">
        <ele>872.04998779297</ele>
        <time>2011-03-20T10:05:43Z</time>
      </trkpt>
      <trkpt lat="43.89346" lon="7.29698">
        <ele>866.28997802734</ele>
        <time>2011-03-20T10:05:50Z</time>
      </trkpt>
      <trkpt lat="43.89343" lon="7.29699">
        <ele>869.16998291016</ele>
        <time>2011-03-20T10:05:51Z</time>
      </trkpt>
      <trkpt lat="43.8934" lon="7.29699">
        <ele>865.79998779297</ele>
        <time>2011-03-20T10:05:52Z</time>
      </trkpt>
      <trkpt lat="43.89337" lon="7.297">
        <ele>870.60998535156</ele>
        <time>2011-03-20T10:05:53Z</time>
      </trkpt>
      <trkpt lat="43.89334" lon="7.297">
        <ele>866.28997802734</ele>
        <time>2011-03-20T10:05:54Z</time>
      </trkpt>
      <trkpt lat="43.89318" lon="7.29703">
        <ele>862.44000244141</ele>
        <time>2011-03-20T10:05:59Z</time>
      </trkpt>
      <trkpt lat="43.89314" lon="7.29703">
        <ele>866.28997802734</ele>
        <time>2011-03-20T10:06:00Z</time>
      </trkpt>
      <trkpt lat="43.89308" lon="7.29703">
        <ele>862.91998291016</ele>
        <time>2011-03-20T10:06:02Z</time>
      </trkpt>
      <trkpt lat="43.89305" lon="7.29704">
        <ele>863.40002441406</ele>
        <time>2011-03-20T10:06:03Z</time>
      </trkpt>
      <trkpt lat="43.89289" lon="7.29708">
        <ele>859.08001708984</ele>
        <time>2011-03-20T10:06:08Z</time>
      </trkpt>
      <trkpt lat="43.89272" lon="7.29712">
        <ele>857.15002441406</ele>
        <time>2011-03-20T10:06:14Z</time>
      </trkpt>
      <trkpt lat="43.89254" lon="7.29719">
        <ele>850.41998291016</ele>
        <time>2011-03-20T10:06:20Z</time>
      </trkpt>
      <trkpt lat="43.89251" lon="7.2972">
        <ele>853.78997802734</ele>
        <time>2011-03-20T10:06:21Z</time>
      </trkpt>
      <trkpt lat="43.8923" lon="7.29732">
        <ele>852.34997558594</ele>
        <time>2011-03-20T10:06:28Z</time>
      </trkpt>
      <trkpt lat="43.89214" lon="7.29739">
        <ele>847.05999755859</ele>
        <time>2011-03-20T10:06:33Z</time>
      </trkpt>
      <trkpt lat="43.89211" lon="7.29741">
        <ele>848.02001953125</ele>
        <time>2011-03-20T10:06:34Z</time>
      </trkpt>
      <trkpt lat="43.89207" lon="7.29745">
        <ele>848.97998046875</ele>
        <time>2011-03-20T10:06:36Z</time>
      </trkpt>
      <trkpt lat="43.89204" lon="7.29765">
        <ele>844.17999267578</ele>
        <time>2011-03-20T10:06:41Z</time>
      </trkpt>
      <trkpt lat="43.89203" lon="7.29769">
        <ele>845.61999511719</ele>
        <time>2011-03-20T10:06:42Z</time>
      </trkpt>
      <trkpt lat="43.89203" lon="7.29784">
        <ele>842.25</ele>
        <time>2011-03-20T10:06:46Z</time>
      </trkpt>
      <trkpt lat="43.89203" lon="7.29788">
        <ele>843.21002197266</ele>
        <time>2011-03-20T10:06:47Z</time>
      </trkpt>
      <trkpt lat="43.89203" lon="7.29804">
        <ele>840.33001708984</ele>
        <time>2011-03-20T10:06:51Z</time>
      </trkpt>
      <trkpt lat="43.892" lon="7.29812">
        <ele>837.92999267578</ele>
        <time>2011-03-20T10:06:55Z</time>
      </trkpt>
      <trkpt lat="43.89191" lon="7.29789">
        <ele>836.47998046875</ele>
        <time>2011-03-20T10:07:01Z</time>
      </trkpt>
      <trkpt lat="43.8919" lon="7.29785">
        <ele>836.47998046875</ele>
        <time>2011-03-20T10:07:02Z</time>
      </trkpt>
      <trkpt lat="43.89184" lon="7.29758">
        <ele>833.11999511719</ele>
        <time>2011-03-20T10:07:09Z</time>
      </trkpt>
      <trkpt lat="43.8918" lon="7.29734">
        <ele>828.30999755859</ele>
        <time>2011-03-20T10:07:15Z</time>
      </trkpt>
      <trkpt lat="43.8918" lon="7.2973">
        <ele>833.11999511719</ele>
        <time>2011-03-20T10:07:16Z</time>
      </trkpt>
      <trkpt lat="43.89178" lon="7.29719">
        <ele>830.23999023438</ele>
        <time>2011-03-20T10:07:19Z</time>
      </trkpt>
      <trkpt lat="43.89187" lon="7.29705">
        <ele>827.34997558594</ele>
        <time>2011-03-20T10:07:24Z</time>
      </trkpt>
      <trkpt lat="43.89195" lon="7.29697">
        <ele>828.30999755859</ele>
        <time>2011-03-20T10:07:27Z</time>
      </trkpt>
      <trkpt lat="43.892" lon="7.29692">
        <ele>825.42999267578</ele>
        <time>2011-03-20T10:07:29Z</time>
      </trkpt>
      <trkpt lat="43.89215" lon="7.29671">
        <ele>822.54998779297</ele>
        <time>2011-03-20T10:07:36Z</time>
      </trkpt>
      <trkpt lat="43.89229" lon="7.29654">
        <ele>820.61999511719</ele>
        <time>2011-03-20T10:07:42Z</time>
      </trkpt>
      <trkpt lat="43.89245" lon="7.29638">
        <ele>817.73999023438</ele>
        <time>2011-03-20T10:07:49Z</time>
      </trkpt>
      <trkpt lat="43.89252" lon="7.29631">
        <ele>815.82000732422</ele>
        <time>2011-03-20T10:07:52Z</time>
      </trkpt>
      <trkpt lat="43.89263" lon="7.2962">
        <ele>812.45001220703</ele>
        <time>2011-03-20T10:07:57Z</time>
      </trkpt>
      <trkpt lat="43.89277" lon="7.29606">
        <ele>811.96997070312</ele>
        <time>2011-03-20T10:08:03Z</time>
      </trkpt>
      <trkpt lat="43.89278" lon="7.29602">
        <ele>812.92999267578</ele>
        <time>2011-03-20T10:08:08Z</time>
      </trkpt>
      <trkpt lat="43.8927" lon="7.29606">
        <ele>807.64001464844</ele>
        <time>2011-03-20T10:08:11Z</time>
      </trkpt>
      <trkpt lat="43.89257" lon="7.2961">
        <ele>804.76000976562</ele>
        <time>2011-03-20T10:08:15Z</time>
      </trkpt>
      <trkpt lat="43.89244" lon="7.29614">
        <ele>805.71997070312</ele>
        <time>2011-03-20T10:08:19Z</time>
      </trkpt>
      <trkpt lat="43.89239" lon="7.29615">
        <ele>802.35998535156</ele>
        <time>2011-03-20T10:08:21Z</time>
      </trkpt>
      <trkpt lat="43.89236" lon="7.29615">
        <ele>804.28002929688</ele>
        <time>2011-03-20T10:08:22Z</time>
      </trkpt>
      <trkpt lat="43.89224" lon="7.29617">
        <ele>800.44000244141</ele>
        <time>2011-03-20T10:08:27Z</time>
      </trkpt>
      <trkpt lat="43.89213" lon="7.2962">
        <ele>797.54998779297</ele>
        <time>2011-03-20T10:08:31Z</time>
      </trkpt>
      <trkpt lat="43.89187" lon="7.29625">
        <ele>793.21997070312</ele>
        <time>2011-03-20T10:08:40Z</time>
      </trkpt>
      <trkpt lat="43.89184" lon="7.29625">
        <ele>793.71002197266</ele>
        <time>2011-03-20T10:08:41Z</time>
      </trkpt>
      <trkpt lat="43.89169" lon="7.29629">
        <ele>789.85998535156</ele>
        <time>2011-03-20T10:08:46Z</time>
      </trkpt>
      <trkpt lat="43.89148" lon="7.29634">
        <ele>786.5</ele>
        <time>2011-03-20T10:08:53Z</time>
      </trkpt>
      <trkpt lat="43.89127" lon="7.29639">
        <ele>783.60998535156</ele>
        <time>2011-03-20T10:09:00Z</time>
      </trkpt>
      <trkpt lat="43.89124" lon="7.2964">
        <ele>783.60998535156</ele>
        <time>2011-03-20T10:09:01Z</time>
      </trkpt>
      <trkpt lat="43.89105" lon="7.2965">
        <ele>781.69000244141</ele>
        <time>2011-03-20T10:09:07Z</time>
      </trkpt>
      <trkpt lat="43.89099" lon="7.29652">
        <ele>779.28997802734</ele>
        <time>2011-03-20T10:09:09Z</time>
      </trkpt>
      <trkpt lat="43.89087" lon="7.29664">
        <ele>774.96002197266</ele>
        <time>2011-03-20T10:09:15Z</time>
      </trkpt>
      <trkpt lat="43.89082" lon="7.29674">
        <ele>775.44000244141</ele>
        <time>2011-03-20T10:09:18Z</time>
      </trkpt>
      <trkpt lat="43.89081" lon="7.29689">
        <ele>774.47998046875</ele>
        <time>2011-03-20T10:09:22Z</time>
      </trkpt>
      <trkpt lat="43.89082" lon="7.29697">
        <ele>772.55999755859</ele>
        <time>2011-03-20T10:09:24Z</time>
      </trkpt>
      <trkpt lat="43.89082" lon="7.2971">
        <ele>769.19000244141</ele>
        <time>2011-03-20T10:09:27Z</time>
      </trkpt>
      <trkpt lat="43.89082" lon="7.29714">
        <ele>773.52001953125</ele>
        <time>2011-03-20T10:09:28Z</time>
      </trkpt>
      <trkpt lat="43.8908" lon="7.29722">
        <ele>769.19000244141</ele>
        <time>2011-03-20T10:09:30Z</time>
      </trkpt>
      <trkpt lat="43.89082" lon="7.2975">
        <ele>765.83001708984</ele>
        <time>2011-03-20T10:09:37Z</time>
      </trkpt>
      <trkpt lat="43.89084" lon="7.29778">
        <ele>761.97998046875</ele>
        <time>2011-03-20T10:09:44Z</time>
      </trkpt>
      <trkpt lat="43.89087" lon="7.29799">
        <ele>761.97998046875</ele>
        <time>2011-03-20T10:09:49Z</time>
      </trkpt>
      <trkpt lat="43.89076" lon="7.29811">
        <ele>761.97998046875</ele>
        <time>2011-03-20T10:09:55Z</time>
      </trkpt>
      <trkpt lat="43.89052" lon="7.29837">
        <ele>757.17999267578</ele>
        <time>2011-03-20T10:10:05Z</time>
      </trkpt>
      <trkpt lat="43.89042" lon="7.29865">
        <ele>755.72998046875</ele>
        <time>2011-03-20T10:10:13Z</time>
      </trkpt>
      <trkpt lat="43.8903" lon="7.29923">
        <ele>753.80999755859</ele>
        <time>2011-03-20T10:10:27Z</time>
      </trkpt>
      <trkpt lat="43.89019" lon="7.29961">
        <ele>752.84997558594</ele>
        <time>2011-03-20T10:10:37Z</time>
      </trkpt>
      <trkpt lat="43.89004" lon="7.30017">
        <ele>751.89001464844</ele>
        <time>2011-03-20T10:10:51Z</time>
      </trkpt>
      <trkpt lat="43.88997" lon="7.30067">
        <ele>753.80999755859</ele>
        <time>2011-03-20T10:11:03Z</time>
      </trkpt>
      <trkpt lat="43.88993" lon="7.30093">
        <ele>751.89001464844</ele>
        <time>2011-03-20T10:11:10Z</time>
      </trkpt>
      <trkpt lat="43.88993" lon="7.30143">
        <ele>748.03997802734</ele>
        <time>2011-03-20T10:11:22Z</time>
      </trkpt>
      <trkpt lat="43.89" lon="7.30189">
        <ele>746.59997558594</ele>
        <time>2011-03-20T10:11:33Z</time>
      </trkpt>
      <trkpt lat="43.89002" lon="7.30197">
        <ele>744.67999267578</ele>
        <time>2011-03-20T10:11:35Z</time>
      </trkpt>
      <trkpt lat="43.89002" lon="7.30208">
        <ele>742.76000976562</ele>
        <time>2011-03-20T10:11:39Z</time>
      </trkpt>
      <trkpt lat="43.8899" lon="7.30215">
        <ele>739.86999511719</ele>
        <time>2011-03-20T10:11:43Z</time>
      </trkpt>
      <trkpt lat="43.88984" lon="7.3022">
        <ele>739.39001464844</ele>
        <time>2011-03-20T10:11:45Z</time>
      </trkpt>
      <trkpt lat="43.8897" lon="7.30237">
        <ele>734.58001708984</ele>
        <time>2011-03-20T10:11:51Z</time>
      </trkpt>
      <trkpt lat="43.88968" lon="7.3024">
        <ele>735.07000732422</ele>
        <time>2011-03-20T10:11:52Z</time>
      </trkpt>
      <trkpt lat="43.88959" lon="7.30252">
        <ele>734.09997558594</ele>
        <time>2011-03-20T10:11:56Z</time>
      </trkpt>
      <trkpt lat="43.88953" lon="7.30261">
        <ele>732.65997314453</ele>
        <time>2011-03-20T10:11:59Z</time>
      </trkpt>
      <trkpt lat="43.88948" lon="7.30272">
        <ele>731.70001220703</ele>
        <time>2011-03-20T10:12:02Z</time>
      </trkpt>
      <trkpt lat="43.88945" lon="7.30279">
        <ele>730.26000976562</ele>
        <time>2011-03-20T10:12:04Z</time>
      </trkpt>
      <trkpt lat="43.88942" lon="7.30286">
        <ele>727.36999511719</ele>
        <time>2011-03-20T10:12:06Z</time>
      </trkpt>
      <trkpt lat="43.88943" lon="7.30307">
        <ele>725.92999267578</ele>
        <time>2011-03-20T10:12:12Z</time>
      </trkpt>
      <trkpt lat="43.88963" lon="7.30327">
        <ele>722.57000732422</ele>
        <time>2011-03-20T10:12:21Z</time>
      </trkpt>
      <trkpt lat="43.88968" lon="7.30331">
        <ele>720.65002441406</ele>
        <time>2011-03-20T10:12:23Z</time>
      </trkpt>
      <trkpt lat="43.88984" lon="7.30347">
        <ele>716.32000732422</ele>
        <time>2011-03-20T10:12:29Z</time>
      </trkpt>
      <trkpt lat="43.88986" lon="7.3035">
        <ele>715.84002685547</ele>
        <time>2011-03-20T10:12:30Z</time>
      </trkpt>
      <trkpt lat="43.88996" lon="7.30364">
        <ele>713.44000244141</ele>
        <time>2011-03-20T10:12:34Z</time>
      </trkpt>
      <trkpt lat="43.89007" lon="7.30382">
        <ele>710.54998779297</ele>
        <time>2011-03-20T10:12:39Z</time>
      </trkpt>
      <trkpt lat="43.89014" lon="7.30396">
        <ele>709.59002685547</ele>
        <time>2011-03-20T10:12:44Z</time>
      </trkpt>
      <trkpt lat="43.89013" lon="7.304">
        <ele>708.15002441406</ele>
        <time>2011-03-20T10:12:49Z</time>
      </trkpt>
      <trkpt lat="43.89013" lon="7.30399">
        <ele>709.59002685547</ele>
        <time>2011-03-20T10:13:00Z</time>
      </trkpt>
      <trkpt lat="43.89011" lon="7.30401">
        <ele>707.66998291016</ele>
        <time>2011-03-20T10:13:22Z</time>
      </trkpt>
      <trkpt lat="43.89011" lon="7.30401">
        <ele>708.15002441406</ele>
        <time>2011-03-20T10:13:25Z</time>
      </trkpt>
      <trkpt lat="43.89006" lon="7.30399">
        <ele>707.66998291016</ele>
        <time>2011-03-20T10:13:30Z</time>
      </trkpt>
      <trkpt lat="43.89001" lon="7.30401">
        <ele>705.26000976562</ele>
        <time>2011-03-20T10:13:34Z</time>
      </trkpt>
      <trkpt lat="43.89003" lon="7.30408">
        <ele>702.38000488281</ele>
        <time>2011-03-20T10:13:37Z</time>
      </trkpt>
      <trkpt lat="43.89008" lon="7.30417">
        <ele>704.29998779297</ele>
        <time>2011-03-20T10:13:40Z</time>
      </trkpt>
      <trkpt lat="43.89014" lon="7.3043">
        <ele>704.29998779297</ele>
        <time>2011-03-20T10:13:44Z</time>
      </trkpt>
      <trkpt lat="43.89032" lon="7.30469">
        <ele>703.82000732422</ele>
        <time>2011-03-20T10:13:55Z</time>
      </trkpt>
      <trkpt lat="43.89047" lon="7.30502">
        <ele>704.29998779297</ele>
        <time>2011-03-20T10:14:05Z</time>
      </trkpt>
      <trkpt lat="43.89046" lon="7.30531">
        <ele>700.94000244141</ele>
        <time>2011-03-20T10:14:12Z</time>
      </trkpt>
      <trkpt lat="43.89043" lon="7.30572">
        <ele>700.46002197266</ele>
        <time>2011-03-20T10:14:22Z</time>
      </trkpt>
      <trkpt lat="43.89034" lon="7.30598">
        <ele>697.09002685547</ele>
        <time>2011-03-20T10:14:29Z</time>
      </trkpt>
      <trkpt lat="43.8903" lon="7.30605">
        <ele>694.69000244141</ele>
        <time>2011-03-20T10:14:32Z</time>
      </trkpt>
      <trkpt lat="43.89029" lon="7.30601">
        <ele>693.25</ele>
        <time>2011-03-20T10:14:34Z</time>
      </trkpt>
      <trkpt lat="43.89028" lon="7.30597">
        <ele>693.25</ele>
        <time>2011-03-20T10:14:35Z</time>
      </trkpt>
      <trkpt lat="43.89027" lon="7.30582">
        <ele>691.80999755859</ele>
        <time>2011-03-20T10:14:39Z</time>
      </trkpt>
      <trkpt lat="43.89025" lon="7.30587">
        <ele>688.44000244141</ele>
        <time>2011-03-20T10:14:42Z</time>
      </trkpt>
      <trkpt lat="43.89024" lon="7.30591">
        <ele>688.91998291016</ele>
        <time>2011-03-20T10:14:43Z</time>
      </trkpt>
      <trkpt lat="43.89017" lon="7.30606">
        <ele>686.52001953125</ele>
        <time>2011-03-20T10:14:47Z</time>
      </trkpt>
      <trkpt lat="43.8901" lon="7.30619">
        <ele>685.08001708984</ele>
        <time>2011-03-20T10:14:51Z</time>
      </trkpt>
      <trkpt lat="43.89004" lon="7.30637">
        <ele>681.22998046875</ele>
        <time>2011-03-20T10:14:56Z</time>
      </trkpt>
      <trkpt lat="43.89002" lon="7.30667">
        <ele>680.75</ele>
        <time>2011-03-20T10:15:04Z</time>
      </trkpt>
      <trkpt lat="43.89004" lon="7.30671">
        <ele>677.39001464844</ele>
        <time>2011-03-20T10:15:05Z</time>
      </trkpt>
      <trkpt lat="43.89018" lon="7.3069">
        <ele>676.41998291016</ele>
        <time>2011-03-20T10:15:12Z</time>
      </trkpt>
      <trkpt lat="43.89024" lon="7.30699">
        <ele>675.94000244141</ele>
        <time>2011-03-20T10:15:15Z</time>
      </trkpt>
      <trkpt lat="43.89033" lon="7.30702">
        <ele>673.53997802734</ele>
        <time>2011-03-20T10:15:19Z</time>
      </trkpt>
      <trkpt lat="43.89051" lon="7.30686">
        <ele>671.14001464844</ele>
        <time>2011-03-20T10:15:26Z</time>
      </trkpt>
      <trkpt lat="43.89056" lon="7.30687">
        <ele>672.09997558594</ele>
        <time>2011-03-20T10:15:30Z</time>
      </trkpt>
      <trkpt lat="43.89034" lon="7.30723">
        <ele>665.84997558594</ele>
        <time>2011-03-20T10:15:42Z</time>
      </trkpt>
      <trkpt lat="43.89024" lon="7.30734">
        <ele>664.89001464844</ele>
        <time>2011-03-20T10:15:46Z</time>
      </trkpt>
      <trkpt lat="43.89017" lon="7.30731">
        <ele>661.03997802734</ele>
        <time>2011-03-20T10:15:49Z</time>
      </trkpt>
      <trkpt lat="43.89017" lon="7.30732">
        <ele>658.15997314453</ele>
        <time>2011-03-20T10:15:54Z</time>
      </trkpt>
      <trkpt lat="43.89021" lon="7.30738">
        <ele>656.23999023438</ele>
        <time>2011-03-20T10:15:56Z</time>
      </trkpt>
      <trkpt lat="43.89033" lon="7.30742">
        <ele>656.71997070312</ele>
        <time>2011-03-20T10:16:00Z</time>
      </trkpt>
      <trkpt lat="43.89038" lon="7.30743">
        <ele>655.28002929688</ele>
        <time>2011-03-20T10:16:04Z</time>
      </trkpt>
      <trkpt lat="43.89034" lon="7.30748">
        <ele>653.34997558594</ele>
        <time>2011-03-20T10:16:06Z</time>
      </trkpt>
      <trkpt lat="43.89015" lon="7.30748">
        <ele>652.39001464844</ele>
        <time>2011-03-20T10:16:12Z</time>
      </trkpt>
      <trkpt lat="43.89007" lon="7.3074">
        <ele>650.95001220703</ele>
        <time>2011-03-20T10:16:15Z</time>
      </trkpt>
      <trkpt lat="43.88992" lon="7.30724">
        <ele>648.54998779297</ele>
        <time>2011-03-20T10:16:21Z</time>
      </trkpt>
      <trkpt lat="43.88988" lon="7.30721">
        <ele>647.59002685547</ele>
        <time>2011-03-20T10:16:23Z</time>
      </trkpt>
      <trkpt lat="43.88987" lon="7.3072">
        <ele>646.14001464844</ele>
        <time>2011-03-20T10:16:24Z</time>
      </trkpt>
      <trkpt lat="43.88996" lon="7.30733">
        <ele>644.70001220703</ele>
        <time>2011-03-20T10:16:29Z</time>
      </trkpt>
      <trkpt lat="43.89017" lon="7.30762">
        <ele>643.73999023438</ele>
        <time>2011-03-20T10:16:39Z</time>
      </trkpt>
      <trkpt lat="43.89024" lon="7.30791">
        <ele>642.29998779297</ele>
        <time>2011-03-20T10:16:46Z</time>
      </trkpt>
      <trkpt lat="43.8903" lon="7.30798">
        <ele>639.40997314453</ele>
        <time>2011-03-20T10:16:49Z</time>
      </trkpt>
      <trkpt lat="43.89037" lon="7.30791">
        <ele>639.89001464844</ele>
        <time>2011-03-20T10:16:52Z</time>
      </trkpt>
      <trkpt lat="43.89045" lon="7.30772">
        <ele>637.48999023438</ele>
        <time>2011-03-20T10:16:57Z</time>
      </trkpt>
      <trkpt lat="43.89046" lon="7.30786">
        <ele>636.53002929688</ele>
        <time>2011-03-20T10:17:05Z</time>
      </trkpt>
      <trkpt lat="43.89045" lon="7.30793">
        <ele>635.09002685547</ele>
        <time>2011-03-20T10:17:07Z</time>
      </trkpt>
      <trkpt lat="43.89043" lon="7.3081">
        <ele>631.23999023438</ele>
        <time>2011-03-20T10:17:12Z</time>
      </trkpt>
      <trkpt lat="43.89026" lon="7.3082">
        <ele>631.23999023438</ele>
        <time>2011-03-20T10:17:18Z</time>
      </trkpt>
      <trkpt lat="43.89009" lon="7.3081">
        <ele>627.40002441406</ele>
        <time>2011-03-20T10:17:23Z</time>
      </trkpt>
      <trkpt lat="43.89003" lon="7.30798">
        <ele>624.51000976562</ele>
        <time>2011-03-20T10:17:26Z</time>
      </trkpt>
      <trkpt lat="43.89001" lon="7.30794">
        <ele>626.44000244141</ele>
        <time>2011-03-20T10:17:27Z</time>
      </trkpt>
      <trkpt lat="43.88993" lon="7.30779">
        <ele>624.03002929688</ele>
        <time>2011-03-20T10:17:32Z</time>
      </trkpt>
      <trkpt lat="43.8899" lon="7.30773">
        <ele>622.10998535156</ele>
        <time>2011-03-20T10:17:34Z</time>
      </trkpt>
      <trkpt lat="43.88994" lon="7.30792">
        <ele>619.22998046875</ele>
        <time>2011-03-20T10:17:42Z</time>
      </trkpt>
      <trkpt lat="43.88999" lon="7.30813">
        <ele>617.29998779297</ele>
        <time>2011-03-20T10:17:47Z</time>
      </trkpt>
      <trkpt lat="43.88994" lon="7.30815">
        <ele>616.82000732422</ele>
        <time>2011-03-20T10:17:52Z</time>
      </trkpt>
      <trkpt lat="43.88987" lon="7.30803">
        <ele>613.94000244141</ele>
        <time>2011-03-20T10:17:56Z</time>
      </trkpt>
      <trkpt lat="43.88984" lon="7.30797">
        <ele>610.57000732422</ele>
        <time>2011-03-20T10:17:58Z</time>
      </trkpt>
      <trkpt lat="43.88982" lon="7.30794">
        <ele>611.53997802734</ele>
        <time>2011-03-20T10:17:59Z</time>
      </trkpt>
      <trkpt lat="43.8898" lon="7.30789">
        <ele>612.02001953125</ele>
        <time>2011-03-20T10:18:01Z</time>
      </trkpt>
      <trkpt lat="43.88982" lon="7.308">
        <ele>609.13000488281</ele>
        <time>2011-03-20T10:18:06Z</time>
      </trkpt>
      <trkpt lat="43.88987" lon="7.30817">
        <ele>606.25</ele>
        <time>2011-03-20T10:18:10Z</time>
      </trkpt>
      <trkpt lat="43.88984" lon="7.30823">
        <ele>604.80999755859</ele>
        <time>2011-03-20T10:18:14Z</time>
      </trkpt>
      <trkpt lat="43.8898" lon="7.30813">
        <ele>604.80999755859</ele>
        <time>2011-03-20T10:18:17Z</time>
      </trkpt>
      <trkpt lat="43.88974" lon="7.30797">
        <ele>604.33001708984</ele>
        <time>2011-03-20T10:18:21Z</time>
      </trkpt>
      <trkpt lat="43.88974" lon="7.30811">
        <ele>598.08001708984</ele>
        <time>2011-03-20T10:18:28Z</time>
      </trkpt>
      <trkpt lat="43.88974" lon="7.3082">
        <ele>598.55999755859</ele>
        <time>2011-03-20T10:18:30Z</time>
      </trkpt>
      <trkpt lat="43.8897" lon="7.30825">
        <ele>595.19000244141</ele>
        <time>2011-03-20T10:18:37Z</time>
      </trkpt>
      <trkpt lat="43.88968" lon="7.30821">
        <ele>596.15002441406</ele>
        <time>2011-03-20T10:18:38Z</time>
      </trkpt>
      <trkpt lat="43.8896" lon="7.30803">
        <ele>591.83001708984</ele>
        <time>2011-03-20T10:18:43Z</time>
      </trkpt>
      <trkpt lat="43.88956" lon="7.30787">
        <ele>590.86999511719</ele>
        <time>2011-03-20T10:18:47Z</time>
      </trkpt>
      <trkpt lat="43.88949" lon="7.30774">
        <ele>588.46002197266</ele>
        <time>2011-03-20T10:18:52Z</time>
      </trkpt>
      <trkpt lat="43.88945" lon="7.3077">
        <ele>588.46002197266</ele>
        <time>2011-03-20T10:18:54Z</time>
      </trkpt>
      <trkpt lat="43.88942" lon="7.30767">
        <ele>587.5</ele>
        <time>2011-03-20T10:18:56Z</time>
      </trkpt>
      <trkpt lat="43.88938" lon="7.30766">
        <ele>586.53997802734</ele>
        <time>2011-03-20T10:18:58Z</time>
      </trkpt>
      <trkpt lat="43.88937" lon="7.30773">
        <ele>585.09997558594</ele>
        <time>2011-03-20T10:19:01Z</time>
      </trkpt>
      <trkpt lat="43.88954" lon="7.30818">
        <ele>582.70001220703</ele>
        <time>2011-03-20T10:19:12Z</time>
      </trkpt>
      <trkpt lat="43.88972" lon="7.30858">
        <ele>580.77001953125</ele>
        <time>2011-03-20T10:19:24Z</time>
      </trkpt>
      <trkpt lat="43.88986" lon="7.3087">
        <ele>582.21997070312</ele>
        <time>2011-03-20T10:19:30Z</time>
      </trkpt>
      <trkpt lat="43.88989" lon="7.30874">
        <ele>578.84997558594</ele>
        <time>2011-03-20T10:19:32Z</time>
      </trkpt>
      <trkpt lat="43.88989" lon="7.30876">
        <ele>579.80999755859</ele>
        <time>2011-03-20T10:19:33Z</time>
      </trkpt>
      <trkpt lat="43.88982" lon="7.30876">
        <ele>578.84997558594</ele>
        <time>2011-03-20T10:19:37Z</time>
      </trkpt>
      <trkpt lat="43.88981" lon="7.30886">
        <ele>573.08001708984</ele>
        <time>2011-03-20T10:19:43Z</time>
      </trkpt>
      <trkpt lat="43.88976" lon="7.30888">
        <ele>571.15997314453</ele>
        <time>2011-03-20T10:19:49Z</time>
      </trkpt>
      <trkpt lat="43.88972" lon="7.30905">
        <ele>565.39001464844</ele>
        <time>2011-03-20T10:19:56Z</time>
      </trkpt>
      <trkpt lat="43.8897" lon="7.30909">
        <ele>564.42999267578</ele>
        <time>2011-03-20T10:19:58Z</time>
      </trkpt>
      <trkpt lat="43.88964" lon="7.30905">
        <ele>561.07000732422</ele>
        <time>2011-03-20T10:20:02Z</time>
      </trkpt>
      <trkpt lat="43.88961" lon="7.309">
        <ele>558.65997314453</ele>
        <time>2011-03-20T10:20:04Z</time>
      </trkpt>
      <trkpt lat="43.88956" lon="7.30899">
        <ele>560.10998535156</ele>
        <time>2011-03-20T10:20:06Z</time>
      </trkpt>
      <trkpt lat="43.8895" lon="7.30901">
        <ele>557.21997070312</ele>
        <time>2011-03-20T10:20:08Z</time>
      </trkpt>
      <trkpt lat="43.88947" lon="7.30903">
        <ele>557.70001220703</ele>
        <time>2011-03-20T10:20:09Z</time>
      </trkpt>
      <trkpt lat="43.88943" lon="7.3091">
        <ele>562.03002929688</ele>
        <time>2011-03-20T10:20:12Z</time>
      </trkpt>
      <trkpt lat="43.88944" lon="7.30912">
        <ele>560.10998535156</ele>
        <time>2011-03-20T10:20:13Z</time>
      </trkpt>
      <trkpt lat="43.8895" lon="7.30923">
        <ele>562.98999023438</ele>
        <time>2011-03-20T10:20:17Z</time>
      </trkpt>
      <trkpt lat="43.88954" lon="7.30932">
        <ele>564.42999267578</ele>
        <time>2011-03-20T10:20:21Z</time>
      </trkpt>
      <trkpt lat="43.88954" lon="7.30936">
        <ele>561.54998779297</ele>
        <time>2011-03-20T10:20:23Z</time>
      </trkpt>
      <trkpt lat="43.88954" lon="7.30943">
        <ele>564.42999267578</ele>
        <time>2011-03-20T10:20:27Z</time>
      </trkpt>
      <trkpt lat="43.88959" lon="7.30948">
        <ele>564.42999267578</ele>
        <time>2011-03-20T10:20:33Z</time>
      </trkpt>
      <trkpt lat="43.88961" lon="7.30948">
        <ele>564.42999267578</ele>
        <time>2011-03-20T10:20:35Z</time>
      </trkpt>
      <trkpt lat="43.88961" lon="7.30951">
        <ele>566.83001708984</ele>
        <time>2011-03-20T10:20:43Z</time>
      </trkpt>
      <trkpt lat="43.88958" lon="7.30952">
        <ele>565.86999511719</ele>
        <time>2011-03-20T10:20:45Z</time>
      </trkpt>
      <trkpt lat="43.88958" lon="7.30952">
        <ele>565.86999511719</ele>
        <time>2011-03-20T10:20:46Z</time>
      </trkpt>
      <trkpt lat="43.88954" lon="7.30952">
        <ele>568.28002929688</ele>
        <time>2011-03-20T10:20:49Z</time>
      </trkpt>
      <trkpt lat="43.88947" lon="7.30942">
        <ele>566.83001708984</ele>
        <time>2011-03-20T10:20:54Z</time>
      </trkpt>
      <trkpt lat="43.88943" lon="7.30922">
        <ele>571.15997314453</ele>
        <time>2011-03-20T10:21:01Z</time>
      </trkpt>
      <trkpt lat="43.88942" lon="7.3092">
        <ele>570.67999267578</ele>
        <time>2011-03-20T10:21:02Z</time>
      </trkpt>
      <trkpt lat="43.88944" lon="7.30904">
        <ele>573.55999755859</ele>
        <time>2011-03-20T10:21:11Z</time>
      </trkpt>
      <trkpt lat="43.88947" lon="7.30907">
        <ele>572.59997558594</ele>
        <time>2011-03-20T10:21:14Z</time>
      </trkpt>
      <trkpt lat="43.88948" lon="7.3091">
        <ele>574.03997802734</ele>
        <time>2011-03-20T10:21:16Z</time>
      </trkpt>
      <trkpt lat="43.88952" lon="7.3092">
        <ele>576.45001220703</ele>
        <time>2011-03-20T10:21:24Z</time>
      </trkpt>
      <trkpt lat="43.88953" lon="7.30921">
        <ele>576.92999267578</ele>
        <time>2011-03-20T10:21:25Z</time>
      </trkpt>
      <trkpt lat="43.88955" lon="7.3094">
        <ele>577.89001464844</ele>
        <time>2011-03-20T10:21:41Z</time>
      </trkpt>
      <trkpt lat="43.88955" lon="7.30939">
        <ele>579.80999755859</ele>
        <time>2011-03-20T10:21:42Z</time>
      </trkpt>
      <trkpt lat="43.88942" lon="7.30913">
        <ele>582.70001220703</ele>
        <time>2011-03-20T10:21:54Z</time>
      </trkpt>
      <trkpt lat="43.88941" lon="7.30911">
        <ele>580.77001953125</ele>
        <time>2011-03-20T10:21:55Z</time>
      </trkpt>
      <trkpt lat="43.88929" lon="7.3088">
        <ele>582.21997070312</ele>
        <time>2011-03-20T10:22:06Z</time>
      </trkpt>
      <trkpt lat="43.88911" lon="7.30868">
        <ele>581.25</ele>
        <time>2011-03-20T10:22:11Z</time>
      </trkpt>
      <trkpt lat="43.88903" lon="7.30865">
        <ele>583.65997314453</ele>
        <time>2011-03-20T10:22:15Z</time>
      </trkpt>
      <trkpt lat="43.88901" lon="7.30869">
        <ele>583.17999267578</ele>
        <time>2011-03-20T10:22:16Z</time>
      </trkpt>
      <trkpt lat="43.88889" lon="7.30888">
        <ele>584.61999511719</ele>
        <time>2011-03-20T10:22:22Z</time>
      </trkpt>
      <trkpt lat="43.88881" lon="7.30901">
        <ele>585.58001708984</ele>
        <time>2011-03-20T10:22:26Z</time>
      </trkpt>
      <trkpt lat="43.88866" lon="7.30922">
        <ele>585.09997558594</ele>
        <time>2011-03-20T10:22:32Z</time>
      </trkpt>
      <trkpt lat="43.8886" lon="7.30931">
        <ele>584.14001464844</ele>
        <time>2011-03-20T10:22:36Z</time>
      </trkpt>
      <trkpt lat="43.88852" lon="7.30943">
        <ele>587.5</ele>
        <time>2011-03-20T10:22:42Z</time>
      </trkpt>
      <trkpt lat="43.88843" lon="7.30952">
        <ele>589.42999267578</ele>
        <time>2011-03-20T10:22:47Z</time>
      </trkpt>
      <trkpt lat="43.88838" lon="7.30957">
        <ele>586.53997802734</ele>
        <time>2011-03-20T10:22:50Z</time>
      </trkpt>
      <trkpt lat="43.88833" lon="7.30961">
        <ele>588.95001220703</ele>
        <time>2011-03-20T10:22:53Z</time>
      </trkpt>
      <trkpt lat="43.88825" lon="7.30974">
        <ele>590.39001464844</ele>
        <time>2011-03-20T10:23:00Z</time>
      </trkpt>
      <trkpt lat="43.88819" lon="7.30981">
        <ele>592.78997802734</ele>
        <time>2011-03-20T10:23:05Z</time>
      </trkpt>
      <trkpt lat="43.88808" lon="7.30993">
        <ele>593.75</ele>
        <time>2011-03-20T10:23:13Z</time>
      </trkpt>
      <trkpt lat="43.88796" lon="7.31005">
        <ele>594.22998046875</ele>
        <time>2011-03-20T10:23:24Z</time>
      </trkpt>
      <trkpt lat="43.88784" lon="7.31013">
        <ele>595.19000244141</ele>
        <time>2011-03-20T10:23:35Z</time>
      </trkpt>
      <trkpt lat="43.8877" lon="7.31003">
        <ele>599.03997802734</ele>
        <time>2011-03-20T10:23:47Z</time>
      </trkpt>
      <trkpt lat="43.88769" lon="7.31001">
        <ele>598.08001708984</ele>
        <time>2011-03-20T10:23:48Z</time>
      </trkpt>
      <trkpt lat="43.88764" lon="7.30993">
        <ele>600</ele>
        <time>2011-03-20T10:23:54Z</time>
      </trkpt>
      <trkpt lat="43.88758" lon="7.30989">
        <ele>599.03997802734</ele>
        <time>2011-03-20T10:23:59Z</time>
      </trkpt>
      <trkpt lat="43.88755" lon="7.3099">
        <ele>600.96002197266</ele>
        <time>2011-03-20T10:24:03Z</time>
      </trkpt>
      <trkpt lat="43.88765" lon="7.31008">
        <ele>602.88000488281</ele>
        <time>2011-03-20T10:24:20Z</time>
      </trkpt>
      <trkpt lat="43.88763" lon="7.31008">
        <ele>603.84997558594</ele>
        <time>2011-03-20T10:24:22Z</time>
      </trkpt>
      <trkpt lat="43.88757" lon="7.31">
        <ele>605.77001953125</ele>
        <time>2011-03-20T10:24:29Z</time>
      </trkpt>
      <trkpt lat="43.88753" lon="7.31">
        <ele>606.72998046875</ele>
        <time>2011-03-20T10:24:33Z</time>
      </trkpt>
      <trkpt lat="43.88739" lon="7.3102">
        <ele>608.65002441406</ele>
        <time>2011-03-20T10:24:44Z</time>
      </trkpt>
      <trkpt lat="43.88721" lon="7.31031">
        <ele>610.57000732422</ele>
        <time>2011-03-20T10:24:55Z</time>
      </trkpt>
      <trkpt lat="43.8871" lon="7.31046">
        <ele>614.41998291016</ele>
        <time>2011-03-20T10:25:05Z</time>
      </trkpt>
      <trkpt lat="43.8871" lon="7.31047">
        <ele>613.94000244141</ele>
        <time>2011-03-20T10:25:07Z</time>
      </trkpt>
      <trkpt lat="43.88727" lon="7.31037">
        <ele>618.26000976562</ele>
        <time>2011-03-20T10:25:24Z</time>
      </trkpt>
      <trkpt lat="43.88742" lon="7.31034">
        <ele>619.22998046875</ele>
        <time>2011-03-20T10:25:37Z</time>
      </trkpt>
      <trkpt lat="43.88748" lon="7.3103">
        <ele>619.71002197266</ele>
        <time>2011-03-20T10:25:42Z</time>
      </trkpt>
      <trkpt lat="43.8875" lon="7.31029">
        <ele>619.22998046875</ele>
        <time>2011-03-20T10:25:44Z</time>
      </trkpt>
      <trkpt lat="43.88754" lon="7.31029">
        <ele>621.15002441406</ele>
        <time>2011-03-20T10:25:49Z</time>
      </trkpt>
      <trkpt lat="43.88747" lon="7.31032">
        <ele>623.07000732422</ele>
        <time>2011-03-20T10:25:56Z</time>
      </trkpt>
      <trkpt lat="43.88747" lon="7.31033">
        <ele>624.03002929688</ele>
        <time>2011-03-20T10:25:57Z</time>
      </trkpt>
      <trkpt lat="43.8874" lon="7.31039">
        <ele>624.98999023438</ele>
        <time>2011-03-20T10:26:04Z</time>
      </trkpt>
      <trkpt lat="43.88735" lon="7.31045">
        <ele>624.98999023438</ele>
        <time>2011-03-20T10:26:09Z</time>
      </trkpt>
      <trkpt lat="43.88736" lon="7.31057">
        <ele>629.79998779297</ele>
        <time>2011-03-20T10:26:17Z</time>
      </trkpt>
      <trkpt lat="43.88736" lon="7.31058">
        <ele>626.91998291016</ele>
        <time>2011-03-20T10:26:18Z</time>
      </trkpt>
      <trkpt lat="43.88737" lon="7.3106">
        <ele>627.40002441406</ele>
        <time>2011-03-20T10:26:20Z</time>
      </trkpt>
      <trkpt lat="43.88742" lon="7.31062">
        <ele>630.76000976562</ele>
        <time>2011-03-20T10:26:24Z</time>
      </trkpt>
      <trkpt lat="43.88744" lon="7.31068">
        <ele>629.32000732422</ele>
        <time>2011-03-20T10:26:28Z</time>
      </trkpt>
      <trkpt lat="43.88743" lon="7.31076">
        <ele>629.32000732422</ele>
        <time>2011-03-20T10:26:31Z</time>
      </trkpt>
      <trkpt lat="43.88743" lon="7.31078">
        <ele>631.23999023438</ele>
        <time>2011-03-20T10:26:32Z</time>
      </trkpt>
      <trkpt lat="43.88746" lon="7.31097">
        <ele>634.13000488281</ele>
        <time>2011-03-20T10:26:39Z</time>
      </trkpt>
      <trkpt lat="43.8875" lon="7.31104">
        <ele>631.71997070312</ele>
        <time>2011-03-20T10:26:42Z</time>
      </trkpt>
      <trkpt lat="43.88767" lon="7.31107">
        <ele>635.09002685547</ele>
        <time>2011-03-20T10:26:51Z</time>
      </trkpt>
      <trkpt lat="43.88793" lon="7.31104">
        <ele>638.45001220703</ele>
        <time>2011-03-20T10:27:04Z</time>
      </trkpt>
      <trkpt lat="43.88795" lon="7.31104">
        <ele>638.45001220703</ele>
        <time>2011-03-20T10:27:05Z</time>
      </trkpt>
      <trkpt lat="43.88806" lon="7.31101">
        <ele>638.92999267578</ele>
        <time>2011-03-20T10:27:10Z</time>
      </trkpt>
      <trkpt lat="43.88809" lon="7.31106">
        <ele>639.89001464844</ele>
        <time>2011-03-20T10:27:15Z</time>
      </trkpt>
      <trkpt lat="43.88808" lon="7.31107">
        <ele>638.45001220703</ele>
        <time>2011-03-20T10:27:16Z</time>
      </trkpt>
      <trkpt lat="43.88802" lon="7.31114">
        <ele>644.21997070312</ele>
        <time>2011-03-20T10:27:24Z</time>
      </trkpt>
      <trkpt lat="43.88802" lon="7.31115">
        <ele>640.85998535156</ele>
        <time>2011-03-20T10:27:25Z</time>
      </trkpt>
      <trkpt lat="43.888" lon="7.31116">
        <ele>644.21997070312</ele>
        <time>2011-03-20T10:27:31Z</time>
      </trkpt>
      <trkpt lat="43.88798" lon="7.31115">
        <ele>642.78002929688</ele>
        <time>2011-03-20T10:27:34Z</time>
      </trkpt>
      <trkpt lat="43.88796" lon="7.31116">
        <ele>644.70001220703</ele>
        <time>2011-03-20T10:27:36Z</time>
      </trkpt>
      <trkpt lat="43.88795" lon="7.31121">
        <ele>648.54998779297</ele>
        <time>2011-03-20T10:27:43Z</time>
      </trkpt>
      <trkpt lat="43.88795" lon="7.31121">
        <ele>647.59002685547</ele>
        <time>2011-03-20T10:27:44Z</time>
      </trkpt>
      <trkpt lat="43.8879" lon="7.31122">
        <ele>651.90997314453</ele>
        <time>2011-03-20T10:27:54Z</time>
      </trkpt>
      <trkpt lat="43.88789" lon="7.31122">
        <ele>648.54998779297</ele>
        <time>2011-03-20T10:27:55Z</time>
      </trkpt>
      <trkpt lat="43.88787" lon="7.31124">
        <ele>651.90997314453</ele>
        <time>2011-03-20T10:27:58Z</time>
      </trkpt>
      <trkpt lat="43.88785" lon="7.31125">
        <ele>653.34997558594</ele>
        <time>2011-03-20T10:28:00Z</time>
      </trkpt>
      <trkpt lat="43.88782" lon="7.31126">
        <ele>653.34997558594</ele>
        <time>2011-03-20T10:28:03Z</time>
      </trkpt>
      <trkpt lat="43.88779" lon="7.31129">
        <ele>654.79998779297</ele>
        <time>2011-03-20T10:28:07Z</time>
      </trkpt>
      <trkpt lat="43.88773" lon="7.31134">
        <ele>655.76000976562</ele>
        <time>2011-03-20T10:28:16Z</time>
      </trkpt>
      <trkpt lat="43.88766" lon="7.31143">
        <ele>661.03997802734</ele>
        <time>2011-03-20T10:28:29Z</time>
      </trkpt>
      <trkpt lat="43.88765" lon="7.31144">
        <ele>659.11999511719</ele>
        <time>2011-03-20T10:28:30Z</time>
      </trkpt>
      <trkpt lat="43.88764" lon="7.31151">
        <ele>662.96997070312</ele>
        <time>2011-03-20T10:28:38Z</time>
      </trkpt>
      <trkpt lat="43.88765" lon="7.31152">
        <ele>662.48999023438</ele>
        <time>2011-03-20T10:28:40Z</time>
      </trkpt>
      <trkpt lat="43.88768" lon="7.31153">
        <ele>661.03997802734</ele>
        <time>2011-03-20T10:28:43Z</time>
      </trkpt>
      <trkpt lat="43.88768" lon="7.31157">
        <ele>662.48999023438</ele>
        <time>2011-03-20T10:28:46Z</time>
      </trkpt>
      <trkpt lat="43.88768" lon="7.31165">
        <ele>665.84997558594</ele>
        <time>2011-03-20T10:28:53Z</time>
      </trkpt>
      <trkpt lat="43.88768" lon="7.31166">
        <ele>664.40997314453</ele>
        <time>2011-03-20T10:28:55Z</time>
      </trkpt>
      <trkpt lat="43.88762" lon="7.3117">
        <ele>668.25</ele>
        <time>2011-03-20T10:29:02Z</time>
      </trkpt>
      <trkpt lat="43.88758" lon="7.31171">
        <ele>668.72998046875</ele>
        <time>2011-03-20T10:29:07Z</time>
      </trkpt>
      <trkpt lat="43.88752" lon="7.3118">
        <ele>672.09997558594</ele>
        <time>2011-03-20T10:29:22Z</time>
      </trkpt>
      <trkpt lat="43.88751" lon="7.3118">
        <ele>668.72998046875</ele>
        <time>2011-03-20T10:29:23Z</time>
      </trkpt>
      <trkpt lat="43.88751" lon="7.31181">
        <ele>672.09997558594</ele>
        <time>2011-03-20T10:29:24Z</time>
      </trkpt>
      <trkpt lat="43.88744" lon="7.31193">
        <ele>676.41998291016</ele>
        <time>2011-03-20T10:29:39Z</time>
      </trkpt>
      <trkpt lat="43.88744" lon="7.31193">
        <ele>675.94000244141</ele>
        <time>2011-03-20T10:29:40Z</time>
      </trkpt>
      <trkpt lat="43.88738" lon="7.31201">
        <ele>679.78997802734</ele>
        <time>2011-03-20T10:29:52Z</time>
      </trkpt>
      <trkpt lat="43.88728" lon="7.31197">
        <ele>680.75</ele>
        <time>2011-03-20T10:30:07Z</time>
      </trkpt>
      <trkpt lat="43.88726" lon="7.31197">
        <ele>682.19000244141</ele>
        <time>2011-03-20T10:30:09Z</time>
      </trkpt>
      <trkpt lat="43.8872" lon="7.31197">
        <ele>683.63000488281</ele>
        <time>2011-03-20T10:30:15Z</time>
      </trkpt>
      <trkpt lat="43.88714" lon="7.31198">
        <ele>684.59997558594</ele>
        <time>2011-03-20T10:30:22Z</time>
      </trkpt>
      <trkpt lat="43.88712" lon="7.31196">
        <ele>687.96002197266</ele>
        <time>2011-03-20T10:30:27Z</time>
      </trkpt>
      <trkpt lat="43.88708" lon="7.31191">
        <ele>687</ele>
        <time>2011-03-20T10:30:37Z</time>
      </trkpt>
      <trkpt lat="43.88707" lon="7.31193">
        <ele>690.35998535156</ele>
        <time>2011-03-20T10:30:40Z</time>
      </trkpt>
      <trkpt lat="43.88707" lon="7.31196">
        <ele>687</ele>
        <time>2011-03-20T10:31:00Z</time>
      </trkpt>
      <trkpt lat="43.88707" lon="7.31196">
        <ele>689.40002441406</ele>
        <time>2011-03-20T10:31:01Z</time>
      </trkpt>
      <trkpt lat="43.88707" lon="7.31196">
        <ele>690.84002685547</ele>
        <time>2011-03-20T10:31:03Z</time>
      </trkpt>
      <trkpt lat="43.88705" lon="7.31196">
        <ele>694.21002197266</ele>
        <time>2011-03-20T10:31:08Z</time>
      </trkpt>
      <trkpt lat="43.88704" lon="7.31201">
        <ele>694.21002197266</ele>
        <time>2011-03-20T10:31:22Z</time>
      </trkpt>
      <trkpt lat="43.887" lon="7.31199">
        <ele>698.53002929688</ele>
        <time>2011-03-20T10:31:28Z</time>
      </trkpt>
      <trkpt lat="43.887" lon="7.31199">
        <ele>697.57000732422</ele>
        <time>2011-03-20T10:31:29Z</time>
      </trkpt>
      <trkpt lat="43.88698" lon="7.31208">
        <ele>702.85998535156</ele>
        <time>2011-03-20T10:31:40Z</time>
      </trkpt>
      <trkpt lat="43.88698" lon="7.31208">
        <ele>702.38000488281</ele>
        <time>2011-03-20T10:31:41Z</time>
      </trkpt>
      <trkpt lat="43.88699" lon="7.31212">
        <ele>702.85998535156</ele>
        <time>2011-03-20T10:31:46Z</time>
      </trkpt>
      <trkpt lat="43.887" lon="7.31223">
        <ele>705.75</ele>
        <time>2011-03-20T10:31:57Z</time>
      </trkpt>
      <trkpt lat="43.88703" lon="7.31232">
        <ele>707.19000244141</ele>
        <time>2011-03-20T10:32:05Z</time>
      </trkpt>
      <trkpt lat="43.88707" lon="7.31238">
        <ele>707.19000244141</ele>
        <time>2011-03-20T10:32:13Z</time>
      </trkpt>
      <trkpt lat="43.88709" lon="7.31237">
        <ele>710.07000732422</ele>
        <time>2011-03-20T10:32:16Z</time>
      </trkpt>
      <trkpt lat="43.8871" lon="7.31237">
        <ele>709.10998535156</ele>
        <time>2011-03-20T10:32:17Z</time>
      </trkpt>
      <trkpt lat="43.8872" lon="7.31244">
        <ele>711.98999023438</ele>
        <time>2011-03-20T10:32:27Z</time>
      </trkpt>
      <trkpt lat="43.88721" lon="7.31247">
        <ele>711.03002929688</ele>
        <time>2011-03-20T10:32:30Z</time>
      </trkpt>
      <trkpt lat="43.88721" lon="7.31261">
        <ele>715.84002685547</ele>
        <time>2011-03-20T10:32:43Z</time>
      </trkpt>
      <trkpt lat="43.8872" lon="7.31264">
        <ele>717.76000976562</ele>
        <time>2011-03-20T10:32:47Z</time>
      </trkpt>
      <trkpt lat="43.88717" lon="7.31267">
        <ele>717.76000976562</ele>
        <time>2011-03-20T10:32:52Z</time>
      </trkpt>
      <trkpt lat="43.88715" lon="7.31269">
        <ele>720.65002441406</ele>
        <time>2011-03-20T10:32:56Z</time>
      </trkpt>
      <trkpt lat="43.88714" lon="7.31276">
        <ele>723.04998779297</ele>
        <time>2011-03-20T10:33:04Z</time>
      </trkpt>
      <trkpt lat="43.8871" lon="7.31285">
        <ele>724.96997070312</ele>
        <time>2011-03-20T10:33:19Z</time>
      </trkpt>
      <trkpt lat="43.8871" lon="7.31285">
        <ele>724.01000976562</ele>
        <time>2011-03-20T10:33:21Z</time>
      </trkpt>
      <trkpt lat="43.88711" lon="7.31283">
        <ele>724.96997070312</ele>
        <time>2011-03-20T10:33:29Z</time>
      </trkpt>
      <trkpt lat="43.88702" lon="7.31281">
        <ele>728.82000732422</ele>
        <time>2011-03-20T10:33:40Z</time>
      </trkpt>
      <trkpt lat="43.88696" lon="7.31288">
        <ele>732.17999267578</ele>
        <time>2011-03-20T10:33:58Z</time>
      </trkpt>
      <trkpt lat="43.88697" lon="7.31297">
        <ele>735.54998779297</ele>
        <time>2011-03-20T10:34:09Z</time>
      </trkpt>
      <trkpt lat="43.88694" lon="7.31305">
        <ele>738.42999267578</ele>
        <time>2011-03-20T10:34:23Z</time>
      </trkpt>
      <trkpt lat="43.88687" lon="7.31302">
        <ele>740.34997558594</ele>
        <time>2011-03-20T10:34:34Z</time>
      </trkpt>
      <trkpt lat="43.88681" lon="7.313">
        <ele>743.71997070312</ele>
        <time>2011-03-20T10:34:43Z</time>
      </trkpt>
      <trkpt lat="43.88674" lon="7.31293">
        <ele>746.59997558594</ele>
        <time>2011-03-20T10:34:55Z</time>
      </trkpt>
      <trkpt lat="43.88667" lon="7.31285">
        <ele>750.92999267578</ele>
        <time>2011-03-20T10:35:10Z</time>
      </trkpt>
      <trkpt lat="43.88663" lon="7.31283">
        <ele>749</ele>
        <time>2011-03-20T10:35:17Z</time>
      </trkpt>
      <trkpt lat="43.88663" lon="7.31284">
        <ele>751.89001464844</ele>
        <time>2011-03-20T10:35:28Z</time>
      </trkpt>
      <trkpt lat="43.8866" lon="7.31284">
        <ele>752.84997558594</ele>
        <time>2011-03-20T10:35:36Z</time>
      </trkpt>
      <trkpt lat="43.88656" lon="7.31288">
        <ele>755.72998046875</ele>
        <time>2011-03-20T10:35:44Z</time>
      </trkpt>
      <trkpt lat="43.88646" lon="7.31297">
        <ele>759.09997558594</ele>
        <time>2011-03-20T10:36:00Z</time>
      </trkpt>
      <trkpt lat="43.88644" lon="7.31299">
        <ele>759.09997558594</ele>
        <time>2011-03-20T10:36:04Z</time>
      </trkpt>
      <trkpt lat="43.88642" lon="7.31301">
        <ele>761.02001953125</ele>
        <time>2011-03-20T10:36:12Z</time>
      </trkpt>
      <trkpt lat="43.88639" lon="7.31304">
        <ele>761.97998046875</ele>
        <time>2011-03-20T10:36:19Z</time>
      </trkpt>
      <trkpt lat="43.88638" lon="7.31304">
        <ele>765.34997558594</ele>
        <time>2011-03-20T10:36:22Z</time>
      </trkpt>
      <trkpt lat="43.88629" lon="7.31296">
        <ele>769.19000244141</ele>
        <time>2011-03-20T10:36:37Z</time>
      </trkpt>
      <trkpt lat="43.88618" lon="7.31301">
        <ele>771.10998535156</ele>
        <time>2011-03-20T10:36:52Z</time>
      </trkpt>
      <trkpt lat="43.88615" lon="7.31301">
        <ele>770.63000488281</ele>
        <time>2011-03-20T10:36:56Z</time>
      </trkpt>
      <trkpt lat="43.88599" lon="7.313">
        <ele>774.47998046875</ele>
        <time>2011-03-20T10:37:15Z</time>
      </trkpt>
      <trkpt lat="43.88597" lon="7.313">
        <ele>773.03997802734</ele>
        <time>2011-03-20T10:37:17Z</time>
      </trkpt>
      <trkpt lat="43.88596" lon="7.313">
        <ele>773.03997802734</ele>
        <time>2011-03-20T10:37:18Z</time>
      </trkpt>
      <trkpt lat="43.88582" lon="7.31283">
        <ele>778.32000732422</ele>
        <time>2011-03-20T10:37:34Z</time>
      </trkpt>
      <trkpt lat="43.88573" lon="7.31276">
        <ele>781.69000244141</ele>
        <time>2011-03-20T10:37:45Z</time>
      </trkpt>
      <trkpt lat="43.8857" lon="7.31274">
        <ele>778.32000732422</ele>
        <time>2011-03-20T10:37:47Z</time>
      </trkpt>
      <trkpt lat="43.88559" lon="7.31264">
        <ele>782.16998291016</ele>
        <time>2011-03-20T10:37:55Z</time>
      </trkpt>
      <trkpt lat="43.88552" lon="7.31252">
        <ele>783.13000488281</ele>
        <time>2011-03-20T10:38:01Z</time>
      </trkpt>
      <trkpt lat="43.88548" lon="7.31243">
        <ele>784.09002685547</ele>
        <time>2011-03-20T10:38:05Z</time>
      </trkpt>
      <trkpt lat="43.88545" lon="7.31236">
        <ele>785.04998779297</ele>
        <time>2011-03-20T10:38:09Z</time>
      </trkpt>
      <trkpt lat="43.88537" lon="7.31227">
        <ele>786.5</ele>
        <time>2011-03-20T10:38:16Z</time>
      </trkpt>
      <trkpt lat="43.88532" lon="7.31226">
        <ele>785.04998779297</ele>
        <time>2011-03-20T10:38:21Z</time>
      </trkpt>
      <trkpt lat="43.88523" lon="7.31238">
        <ele>781.21002197266</ele>
        <time>2011-03-20T10:38:28Z</time>
      </trkpt>
      <trkpt lat="43.88522" lon="7.31242">
        <ele>785.04998779297</ele>
        <time>2011-03-20T10:38:29Z</time>
      </trkpt>
      <trkpt lat="43.88517" lon="7.31249">
        <ele>782.65002441406</ele>
        <time>2011-03-20T10:38:32Z</time>
      </trkpt>
      <trkpt lat="43.88514" lon="7.31265">
        <ele>780.72998046875</ele>
        <time>2011-03-20T10:38:40Z</time>
      </trkpt>
      <trkpt lat="43.88515" lon="7.31267">
        <ele>781.21002197266</ele>
        <time>2011-03-20T10:38:41Z</time>
      </trkpt>
      <trkpt lat="43.8852" lon="7.31271">
        <ele>776.40002441406</ele>
        <time>2011-03-20T10:38:44Z</time>
      </trkpt>
      <trkpt lat="43.88522" lon="7.31273">
        <ele>777.84002685547</ele>
        <time>2011-03-20T10:38:45Z</time>
      </trkpt>
      <trkpt lat="43.88525" lon="7.31276">
        <ele>774.96002197266</ele>
        <time>2011-03-20T10:38:47Z</time>
      </trkpt>
      <trkpt lat="43.8853" lon="7.3128">
        <ele>774.47998046875</ele>
        <time>2011-03-20T10:38:51Z</time>
      </trkpt>
      <trkpt lat="43.88531" lon="7.31283">
        <ele>773.52001953125</ele>
        <time>2011-03-20T10:38:54Z</time>
      </trkpt>
      <trkpt lat="43.88534" lon="7.31292">
        <ele>767.27001953125</ele>
        <time>2011-03-20T10:38:59Z</time>
      </trkpt>
      <trkpt lat="43.8854" lon="7.31304">
        <ele>764.39001464844</ele>
        <time>2011-03-20T10:39:04Z</time>
      </trkpt>
      <trkpt lat="43.88541" lon="7.31307">
        <ele>766.30999755859</ele>
        <time>2011-03-20T10:39:05Z</time>
      </trkpt>
      <trkpt lat="43.88545" lon="7.31324">
        <ele>762.46002197266</ele>
        <time>2011-03-20T10:39:10Z</time>
      </trkpt>
      <trkpt lat="43.88546" lon="7.31328">
        <ele>762.46002197266</ele>
        <time>2011-03-20T10:39:11Z</time>
      </trkpt>
      <trkpt lat="43.88546" lon="7.31343">
        <ele>758.14001464844</ele>
        <time>2011-03-20T10:39:15Z</time>
      </trkpt>
      <trkpt lat="43.88549" lon="7.31373">
        <ele>756.69000244141</ele>
        <time>2011-03-20T10:39:23Z</time>
      </trkpt>
      <trkpt lat="43.88549" lon="7.31394">
        <ele>752.84997558594</ele>
        <time>2011-03-20T10:39:28Z</time>
      </trkpt>
      <trkpt lat="43.88548" lon="7.31406">
        <ele>752.84997558594</ele>
        <time>2011-03-20T10:39:31Z</time>
      </trkpt>
      <trkpt lat="43.88547" lon="7.31415">
        <ele>749.96997070312</ele>
        <time>2011-03-20T10:39:34Z</time>
      </trkpt>
      <trkpt lat="43.88546" lon="7.31418">
        <ele>749.48999023438</ele>
        <time>2011-03-20T10:39:35Z</time>
      </trkpt>
      <trkpt lat="43.88543" lon="7.31426">
        <ele>747.55999755859</ele>
        <time>2011-03-20T10:39:38Z</time>
      </trkpt>
      <trkpt lat="43.88538" lon="7.3143">
        <ele>747.08001708984</ele>
        <time>2011-03-20T10:39:42Z</time>
      </trkpt>
      <trkpt lat="43.88535" lon="7.31424">
        <ele>745.15997314453</ele>
        <time>2011-03-20T10:39:45Z</time>
      </trkpt>
      <trkpt lat="43.88534" lon="7.31421">
        <ele>742.28002929688</ele>
        <time>2011-03-20T10:39:46Z</time>
      </trkpt>
      <trkpt lat="43.8853" lon="7.31415">
        <ele>744.67999267578</ele>
        <time>2011-03-20T10:39:53Z</time>
      </trkpt>
      <trkpt lat="43.88528" lon="7.31414">
        <ele>744.67999267578</ele>
        <time>2011-03-20T10:39:58Z</time>
      </trkpt>
      <trkpt lat="43.88527" lon="7.31414">
        <ele>742.76000976562</ele>
        <time>2011-03-20T10:40:00Z</time>
      </trkpt>
      <trkpt lat="43.88527" lon="7.31414">
        <ele>746.11999511719</ele>
        <time>2011-03-20T10:40:01Z</time>
      </trkpt>
      <trkpt lat="43.88526" lon="7.31415">
        <ele>744.20001220703</ele>
        <time>2011-03-20T10:40:02Z</time>
      </trkpt>
      <trkpt lat="43.88527" lon="7.31423">
        <ele>748.03997802734</ele>
        <time>2011-03-20T10:40:10Z</time>
      </trkpt>
      <trkpt lat="43.88525" lon="7.31422">
        <ele>750.45001220703</ele>
        <time>2011-03-20T10:40:18Z</time>
      </trkpt>
      <trkpt lat="43.88525" lon="7.31422">
        <ele>747.08001708984</ele>
        <time>2011-03-20T10:40:19Z</time>
      </trkpt>
      <trkpt lat="43.88524" lon="7.31421">
        <ele>750.45001220703</ele>
        <time>2011-03-20T10:40:20Z</time>
      </trkpt>
      <trkpt lat="43.88518" lon="7.31413">
        <ele>753.80999755859</ele>
        <time>2011-03-20T10:40:29Z</time>
      </trkpt>
      <trkpt lat="43.88511" lon="7.31406">
        <ele>757.65997314453</ele>
        <time>2011-03-20T10:40:41Z</time>
      </trkpt>
      <trkpt lat="43.8851" lon="7.31405">
        <ele>757.65997314453</ele>
        <time>2011-03-20T10:40:42Z</time>
      </trkpt>
      <trkpt lat="43.88507" lon="7.31398">
        <ele>757.17999267578</ele>
        <time>2011-03-20T10:40:47Z</time>
      </trkpt>
      <trkpt lat="43.88507" lon="7.31393">
        <ele>756.69000244141</ele>
        <time>2011-03-20T10:40:49Z</time>
      </trkpt>
      <trkpt lat="43.885" lon="7.31384">
        <ele>759.09997558594</ele>
        <time>2011-03-20T10:40:58Z</time>
      </trkpt>
      <trkpt lat="43.88494" lon="7.31386">
        <ele>755.72998046875</ele>
        <time>2011-03-20T10:41:00Z</time>
      </trkpt>
      <trkpt lat="43.88484" lon="7.3139">
        <ele>760.05999755859</ele>
        <time>2011-03-20T10:41:03Z</time>
      </trkpt>
      <trkpt lat="43.88481" lon="7.3139">
        <ele>759.09997558594</ele>
        <time>2011-03-20T10:41:04Z</time>
      </trkpt>
      <trkpt lat="43.88467" lon="7.31392">
        <ele>759.58001708984</ele>
        <time>2011-03-20T10:41:10Z</time>
      </trkpt>
      <trkpt lat="43.88462" lon="7.31392">
        <ele>758.61999511719</ele>
        <time>2011-03-20T10:41:12Z</time>
      </trkpt>
      <trkpt lat="43.88449" lon="7.314">
        <ele>757.17999267578</ele>
        <time>2011-03-20T10:41:19Z</time>
      </trkpt>
      <trkpt lat="43.88444" lon="7.31408">
        <ele>758.14001464844</ele>
        <time>2011-03-20T10:41:22Z</time>
      </trkpt>
      <trkpt lat="43.88436" lon="7.3141">
        <ele>757.65997314453</ele>
        <time>2011-03-20T10:41:26Z</time>
      </trkpt>
      <trkpt lat="43.88428" lon="7.31402">
        <ele>761.5</ele>
        <time>2011-03-20T10:41:32Z</time>
      </trkpt>
      <trkpt lat="43.88427" lon="7.314">
        <ele>761.5</ele>
        <time>2011-03-20T10:41:33Z</time>
      </trkpt>
      <trkpt lat="43.88408" lon="7.31394">
        <ele>760.53997802734</ele>
        <time>2011-03-20T10:41:46Z</time>
      </trkpt>
      <trkpt lat="43.88405" lon="7.31396">
        <ele>764.86999511719</ele>
        <time>2011-03-20T10:41:48Z</time>
      </trkpt>
      <trkpt lat="43.88401" lon="7.314">
        <ele>764.39001464844</ele>
        <time>2011-03-20T10:41:52Z</time>
      </trkpt>
      <trkpt lat="43.88398" lon="7.31404">
        <ele>764.86999511719</ele>
        <time>2011-03-20T10:41:56Z</time>
      </trkpt>
      <trkpt lat="43.88396" lon="7.31406">
        <ele>763.90002441406</ele>
        <time>2011-03-20T10:41:59Z</time>
      </trkpt>
      <trkpt lat="43.88392" lon="7.31405">
        <ele>765.34997558594</ele>
        <time>2011-03-20T10:42:02Z</time>
      </trkpt>
      <trkpt lat="43.88385" lon="7.31404">
        <ele>768.22998046875</ele>
        <time>2011-03-20T10:42:08Z</time>
      </trkpt>
      <trkpt lat="43.88375" lon="7.31397">
        <ele>769.19000244141</ele>
        <time>2011-03-20T10:42:17Z</time>
      </trkpt>
      <trkpt lat="43.88372" lon="7.31396">
        <ele>771.10998535156</ele>
        <time>2011-03-20T10:42:19Z</time>
      </trkpt>
      <trkpt lat="43.88367" lon="7.31398">
        <ele>768.22998046875</ele>
        <time>2011-03-20T10:42:23Z</time>
      </trkpt>
      <trkpt lat="43.88357" lon="7.31398">
        <ele>772.08001708984</ele>
        <time>2011-03-20T10:42:31Z</time>
      </trkpt>
      <trkpt lat="43.88354" lon="7.31398">
        <ele>773.52001953125</ele>
        <time>2011-03-20T10:42:34Z</time>
      </trkpt>
      <trkpt lat="43.88332" lon="7.314">
        <ele>773.03997802734</ele>
        <time>2011-03-20T10:42:46Z</time>
      </trkpt>
      <trkpt lat="43.88323" lon="7.31397">
        <ele>776.88000488281</ele>
        <time>2011-03-20T10:42:51Z</time>
      </trkpt>
      <trkpt lat="43.88321" lon="7.31396">
        <ele>772.55999755859</ele>
        <time>2011-03-20T10:42:52Z</time>
      </trkpt>
      <trkpt lat="43.88319" lon="7.31396">
        <ele>775.44000244141</ele>
        <time>2011-03-20T10:42:53Z</time>
      </trkpt>
      <trkpt lat="43.88318" lon="7.31396">
        <ele>772.08001708984</ele>
        <time>2011-03-20T10:42:54Z</time>
      </trkpt>
      <trkpt lat="43.88316" lon="7.31397">
        <ele>775.91998291016</ele>
        <time>2011-03-20T10:42:55Z</time>
      </trkpt>
      <trkpt lat="43.88308" lon="7.314">
        <ele>778.80999755859</ele>
        <time>2011-03-20T10:43:04Z</time>
      </trkpt>
      <trkpt lat="43.88303" lon="7.31401">
        <ele>778.32000732422</ele>
        <time>2011-03-20T10:43:10Z</time>
      </trkpt>
      <trkpt lat="43.88299" lon="7.31401">
        <ele>781.69000244141</ele>
        <time>2011-03-20T10:43:15Z</time>
      </trkpt>
      <trkpt lat="43.88292" lon="7.31401">
        <ele>786.02001953125</ele>
        <time>2011-03-20T10:43:23Z</time>
      </trkpt>
      <trkpt lat="43.88291" lon="7.314">
        <ele>781.21002197266</ele>
        <time>2011-03-20T10:43:24Z</time>
      </trkpt>
      <trkpt lat="43.88287" lon="7.314">
        <ele>784.09002685547</ele>
        <time>2011-03-20T10:43:28Z</time>
      </trkpt>
      <trkpt lat="43.88282" lon="7.31401">
        <ele>784.09002685547</ele>
        <time>2011-03-20T10:43:33Z</time>
      </trkpt>
      <trkpt lat="43.88279" lon="7.31403">
        <ele>787.46002197266</ele>
        <time>2011-03-20T10:43:36Z</time>
      </trkpt>
      <trkpt lat="43.88279" lon="7.31403">
        <ele>783.13000488281</ele>
        <time>2011-03-20T10:43:37Z</time>
      </trkpt>
      <trkpt lat="43.88278" lon="7.31404">
        <ele>789.38000488281</ele>
        <time>2011-03-20T10:43:38Z</time>
      </trkpt>
      <trkpt lat="43.88274" lon="7.31409">
        <ele>789.38000488281</ele>
        <time>2011-03-20T10:43:43Z</time>
      </trkpt>
      <trkpt lat="43.88273" lon="7.3141">
        <ele>785.04998779297</ele>
        <time>2011-03-20T10:43:44Z</time>
      </trkpt>
      <trkpt lat="43.88272" lon="7.31411">
        <ele>786.02001953125</ele>
        <time>2011-03-20T10:43:45Z</time>
      </trkpt>
      <trkpt lat="43.88271" lon="7.31413">
        <ele>788.41998291016</ele>
        <time>2011-03-20T10:43:47Z</time>
      </trkpt>
      <trkpt lat="43.8826" lon="7.31435">
        <ele>787.94000244141</ele>
        <time>2011-03-20T10:43:59Z</time>
      </trkpt>
      <trkpt lat="43.88259" lon="7.31437">
        <ele>787.46002197266</ele>
        <time>2011-03-20T10:44:00Z</time>
      </trkpt>
      <trkpt lat="43.88255" lon="7.31441">
        <ele>790.82000732422</ele>
        <time>2011-03-20T10:44:02Z</time>
      </trkpt>
      <trkpt lat="43.88251" lon="7.31443">
        <ele>789.85998535156</ele>
        <time>2011-03-20T10:44:04Z</time>
      </trkpt>
      <trkpt lat="43.88247" lon="7.31445">
        <ele>792.26000976562</ele>
        <time>2011-03-20T10:44:06Z</time>
      </trkpt>
      <trkpt lat="43.88239" lon="7.31444">
        <ele>789.38000488281</ele>
        <time>2011-03-20T10:44:11Z</time>
      </trkpt>
      <trkpt lat="43.88233" lon="7.31441">
        <ele>791.29998779297</ele>
        <time>2011-03-20T10:44:14Z</time>
      </trkpt>
      <trkpt lat="43.88223" lon="7.31436">
        <ele>794.19000244141</ele>
        <time>2011-03-20T10:44:19Z</time>
      </trkpt>
      <trkpt lat="43.88221" lon="7.31435">
        <ele>791.29998779297</ele>
        <time>2011-03-20T10:44:20Z</time>
      </trkpt>
      <trkpt lat="43.88211" lon="7.31427">
        <ele>794.66998291016</ele>
        <time>2011-03-20T10:44:25Z</time>
      </trkpt>
      <trkpt lat="43.88202" lon="7.31425">
        <ele>792.73999023438</ele>
        <time>2011-03-20T10:44:29Z</time>
      </trkpt>
      <trkpt lat="43.88187" lon="7.31427">
        <ele>797.54998779297</ele>
        <time>2011-03-20T10:44:36Z</time>
      </trkpt>
      <trkpt lat="43.88182" lon="7.31428">
        <ele>791.78002929688</ele>
        <time>2011-03-20T10:44:38Z</time>
      </trkpt>
      <trkpt lat="43.88179" lon="7.31429">
        <ele>794.19000244141</ele>
        <time>2011-03-20T10:44:39Z</time>
      </trkpt>
      <trkpt lat="43.8815" lon="7.31436">
        <ele>793.21997070312</ele>
        <time>2011-03-20T10:44:52Z</time>
      </trkpt>
      <trkpt lat="43.88134" lon="7.31429">
        <ele>792.73999023438</ele>
        <time>2011-03-20T10:44:59Z</time>
      </trkpt>
      <trkpt lat="43.8813" lon="7.31428">
        <ele>795.63000488281</ele>
        <time>2011-03-20T10:45:01Z</time>
      </trkpt>
      <trkpt lat="43.88126" lon="7.3144">
        <ele>792.26000976562</ele>
        <time>2011-03-20T10:45:08Z</time>
      </trkpt>
      <trkpt lat="43.88121" lon="7.31465">
        <ele>788.41998291016</ele>
        <time>2011-03-20T10:45:18Z</time>
      </trkpt>
      <trkpt lat="43.88121" lon="7.31468">
        <ele>789.85998535156</ele>
        <time>2011-03-20T10:45:19Z</time>
      </trkpt>
      <trkpt lat="43.8812" lon="7.31471">
        <ele>787.46002197266</ele>
        <time>2011-03-20T10:45:20Z</time>
      </trkpt>
      <trkpt lat="43.88115" lon="7.31473">
        <ele>785.53002929688</ele>
        <time>2011-03-20T10:45:24Z</time>
      </trkpt>
      <trkpt lat="43.88112" lon="7.3147">
        <ele>782.16998291016</ele>
        <time>2011-03-20T10:45:26Z</time>
      </trkpt>
      <trkpt lat="43.88099" lon="7.31477">
        <ele>780.25</ele>
        <time>2011-03-20T10:45:32Z</time>
      </trkpt>
      <trkpt lat="43.88095" lon="7.31475">
        <ele>778.80999755859</ele>
        <time>2011-03-20T10:45:34Z</time>
      </trkpt>
      <trkpt lat="43.88091" lon="7.31471">
        <ele>774.96002197266</ele>
        <time>2011-03-20T10:45:38Z</time>
      </trkpt>
      <trkpt lat="43.88091" lon="7.31471">
        <ele>776.88000488281</ele>
        <time>2011-03-20T10:45:39Z</time>
      </trkpt>
      <trkpt lat="43.88092" lon="7.31471">
        <ele>776.88000488281</ele>
        <time>2011-03-20T10:45:42Z</time>
      </trkpt>
      <trkpt lat="43.88094" lon="7.31472">
        <ele>776.40002441406</ele>
        <time>2011-03-20T10:45:44Z</time>
      </trkpt>
      <trkpt lat="43.88096" lon="7.31475">
        <ele>782.16998291016</ele>
        <time>2011-03-20T10:45:46Z</time>
      </trkpt>
      <trkpt lat="43.88098" lon="7.31484">
        <ele>776.40002441406</ele>
        <time>2011-03-20T10:45:50Z</time>
      </trkpt>
      <trkpt lat="43.88098" lon="7.31487">
        <ele>778.32000732422</ele>
        <time>2011-03-20T10:45:51Z</time>
      </trkpt>
      <trkpt lat="43.88098" lon="7.31504">
        <ele>777.84002685547</ele>
        <time>2011-03-20T10:45:56Z</time>
      </trkpt>
      <trkpt lat="43.88096" lon="7.31528">
        <ele>782.16998291016</ele>
        <time>2011-03-20T10:46:04Z</time>
      </trkpt>
      <trkpt lat="43.88096" lon="7.31535">
        <ele>779.28997802734</ele>
        <time>2011-03-20T10:46:06Z</time>
      </trkpt>
      <trkpt lat="43.88096" lon="7.31538">
        <ele>779.28997802734</ele>
        <time>2011-03-20T10:46:07Z</time>
      </trkpt>
      <trkpt lat="43.88094" lon="7.31565">
        <ele>783.13000488281</ele>
        <time>2011-03-20T10:46:16Z</time>
      </trkpt>
      <trkpt lat="43.88094" lon="7.31568">
        <ele>783.13000488281</ele>
        <time>2011-03-20T10:46:17Z</time>
      </trkpt>
      <trkpt lat="43.88092" lon="7.31585">
        <ele>778.32000732422</ele>
        <time>2011-03-20T10:46:22Z</time>
      </trkpt>
      <trkpt lat="43.88092" lon="7.31589">
        <ele>779.28997802734</ele>
        <time>2011-03-20T10:46:23Z</time>
      </trkpt>
      <trkpt lat="43.88083" lon="7.31629">
        <ele>777.84002685547</ele>
        <time>2011-03-20T10:46:35Z</time>
      </trkpt>
      <trkpt lat="43.88083" lon="7.31635">
        <ele>778.32000732422</ele>
        <time>2011-03-20T10:46:37Z</time>
      </trkpt>
      <trkpt lat="43.88076" lon="7.31672">
        <ele>772.55999755859</ele>
        <time>2011-03-20T10:46:48Z</time>
      </trkpt>
      <trkpt lat="43.88075" lon="7.31676">
        <ele>775.91998291016</ele>
        <time>2011-03-20T10:46:49Z</time>
      </trkpt>
      <trkpt lat="43.88073" lon="7.31682">
        <ele>774.47998046875</ele>
        <time>2011-03-20T10:46:51Z</time>
      </trkpt>
      <trkpt lat="43.88078" lon="7.31717">
        <ele>772.55999755859</ele>
        <time>2011-03-20T10:47:02Z</time>
      </trkpt>
      <trkpt lat="43.88079" lon="7.31721">
        <ele>776.88000488281</ele>
        <time>2011-03-20T10:47:03Z</time>
      </trkpt>
      <trkpt lat="43.88079" lon="7.31725">
        <ele>773.52001953125</ele>
        <time>2011-03-20T10:47:04Z</time>
      </trkpt>
      <trkpt lat="43.8808" lon="7.31736">
        <ele>774.96002197266</ele>
        <time>2011-03-20T10:47:07Z</time>
      </trkpt>
      <trkpt lat="43.88081" lon="7.31752">
        <ele>771.59997558594</ele>
        <time>2011-03-20T10:47:12Z</time>
      </trkpt>
      <trkpt lat="43.88079" lon="7.31768">
        <ele>770.15002441406</ele>
        <time>2011-03-20T10:47:17Z</time>
      </trkpt>
      <trkpt lat="43.8808" lon="7.31776">
        <ele>769.19000244141</ele>
        <time>2011-03-20T10:47:20Z</time>
      </trkpt>
      <trkpt lat="43.8808" lon="7.31779">
        <ele>770.15002441406</ele>
        <time>2011-03-20T10:47:21Z</time>
      </trkpt>
      <trkpt lat="43.88079" lon="7.31787">
        <ele>766.30999755859</ele>
        <time>2011-03-20T10:47:24Z</time>
      </trkpt>
      <trkpt lat="43.88079" lon="7.3179">
        <ele>765.83001708984</ele>
        <time>2011-03-20T10:47:25Z</time>
      </trkpt>
      <trkpt lat="43.88079" lon="7.31801">
        <ele>765.34997558594</ele>
        <time>2011-03-20T10:47:30Z</time>
      </trkpt>
      <trkpt lat="43.88078" lon="7.31822">
        <ele>761.5</ele>
        <time>2011-03-20T10:47:36Z</time>
      </trkpt>
      <trkpt lat="43.88078" lon="7.3183">
        <ele>761.97998046875</ele>
        <time>2011-03-20T10:47:38Z</time>
      </trkpt>
      <trkpt lat="43.88077" lon="7.3184">
        <ele>760.05999755859</ele>
        <time>2011-03-20T10:47:41Z</time>
      </trkpt>
      <trkpt lat="43.88077" lon="7.31856">
        <ele>761.5</ele>
        <time>2011-03-20T10:47:46Z</time>
      </trkpt>
      <trkpt lat="43.88078" lon="7.31862">
        <ele>761.5</ele>
        <time>2011-03-20T10:47:48Z</time>
      </trkpt>
      <trkpt lat="43.88081" lon="7.3187">
        <ele>757.65997314453</ele>
        <time>2011-03-20T10:47:51Z</time>
      </trkpt>
      <trkpt lat="43.88081" lon="7.31873">
        <ele>761.02001953125</ele>
        <time>2011-03-20T10:47:52Z</time>
      </trkpt>
      <trkpt lat="43.88079" lon="7.31888">
        <ele>757.65997314453</ele>
        <time>2011-03-20T10:47:58Z</time>
      </trkpt>
      <trkpt lat="43.88074" lon="7.3189">
        <ele>754.28997802734</ele>
        <time>2011-03-20T10:48:00Z</time>
      </trkpt>
      <trkpt lat="43.8807" lon="7.31892">
        <ele>757.17999267578</ele>
        <time>2011-03-20T10:48:02Z</time>
      </trkpt>
      <trkpt lat="43.88065" lon="7.31894">
        <ele>760.05999755859</ele>
        <time>2011-03-20T10:48:04Z</time>
      </trkpt>
      <trkpt lat="43.88056" lon="7.31904">
        <ele>760.05999755859</ele>
        <time>2011-03-20T10:48:10Z</time>
      </trkpt>
      <trkpt lat="43.88054" lon="7.31915">
        <ele>761.5</ele>
        <time>2011-03-20T10:48:14Z</time>
      </trkpt>
      <trkpt lat="43.88057" lon="7.31941">
        <ele>758.61999511719</ele>
        <time>2011-03-20T10:48:26Z</time>
      </trkpt>
      <trkpt lat="43.88061" lon="7.31946">
        <ele>762.46002197266</ele>
        <time>2011-03-20T10:48:29Z</time>
      </trkpt>
      <trkpt lat="43.88062" lon="7.31949">
        <ele>761.97998046875</ele>
        <time>2011-03-20T10:48:30Z</time>
      </trkpt>
      <trkpt lat="43.88065" lon="7.31962">
        <ele>765.34997558594</ele>
        <time>2011-03-20T10:48:41Z</time>
      </trkpt>
      <trkpt lat="43.88066" lon="7.31963">
        <ele>763.90002441406</ele>
        <time>2011-03-20T10:48:42Z</time>
      </trkpt>
      <trkpt lat="43.88067" lon="7.31967">
        <ele>765.34997558594</ele>
        <time>2011-03-20T10:48:46Z</time>
      </trkpt>
      <trkpt lat="43.88068" lon="7.31972">
        <ele>764.86999511719</ele>
        <time>2011-03-20T10:48:50Z</time>
      </trkpt>
      <trkpt lat="43.88066" lon="7.31982">
        <ele>768.22998046875</ele>
        <time>2011-03-20T10:48:58Z</time>
      </trkpt>
      <trkpt lat="43.88066" lon="7.31983">
        <ele>768.22998046875</ele>
        <time>2011-03-20T10:48:59Z</time>
      </trkpt>
      <trkpt lat="43.88065" lon="7.31985">
        <ele>769.66998291016</ele>
        <time>2011-03-20T10:49:01Z</time>
      </trkpt>
      <trkpt lat="43.88065" lon="7.31988">
        <ele>772.08001708984</ele>
        <time>2011-03-20T10:49:04Z</time>
      </trkpt>
      <trkpt lat="43.88067" lon="7.32">
        <ele>772.08001708984</ele>
        <time>2011-03-20T10:49:13Z</time>
      </trkpt>
      <trkpt lat="43.88071" lon="7.32011">
        <ele>773.52001953125</ele>
        <time>2011-03-20T10:49:21Z</time>
      </trkpt>
      <trkpt lat="43.88077" lon="7.32037">
        <ele>773.03997802734</ele>
        <time>2011-03-20T10:49:32Z</time>
      </trkpt>
      <trkpt lat="43.88076" lon="7.32042">
        <ele>774</ele>
        <time>2011-03-20T10:49:35Z</time>
      </trkpt>
      <trkpt lat="43.88075" lon="7.32044">
        <ele>772.08001708984</ele>
        <time>2011-03-20T10:49:37Z</time>
      </trkpt>
      <trkpt lat="43.88073" lon="7.32045">
        <ele>775.44000244141</ele>
        <time>2011-03-20T10:49:39Z</time>
      </trkpt>
      <trkpt lat="43.88071" lon="7.32047">
        <ele>772.08001708984</ele>
        <time>2011-03-20T10:49:41Z</time>
      </trkpt>
      <trkpt lat="43.88069" lon="7.32049">
        <ele>776.40002441406</ele>
        <time>2011-03-20T10:49:44Z</time>
      </trkpt>
      <trkpt lat="43.88064" lon="7.32055">
        <ele>776.40002441406</ele>
        <time>2011-03-20T10:49:52Z</time>
      </trkpt>
      <trkpt lat="43.88062" lon="7.32055">
        <ele>773.52001953125</ele>
        <time>2011-03-20T10:49:54Z</time>
      </trkpt>
      <trkpt lat="43.88059" lon="7.32056">
        <ele>776.88000488281</ele>
        <time>2011-03-20T10:49:56Z</time>
      </trkpt>
      <trkpt lat="43.88056" lon="7.3206">
        <ele>778.80999755859</ele>
        <time>2011-03-20T10:49:59Z</time>
      </trkpt>
      <trkpt lat="43.88055" lon="7.32062">
        <ele>781.21002197266</ele>
        <time>2011-03-20T10:50:01Z</time>
      </trkpt>
      <trkpt lat="43.88053" lon="7.32064">
        <ele>777.84002685547</ele>
        <time>2011-03-20T10:50:03Z</time>
      </trkpt>
      <trkpt lat="43.88052" lon="7.32064">
        <ele>778.32000732422</ele>
        <time>2011-03-20T10:50:04Z</time>
      </trkpt>
      <trkpt lat="43.88049" lon="7.32066">
        <ele>779.28997802734</ele>
        <time>2011-03-20T10:50:06Z</time>
      </trkpt>
      <trkpt lat="43.88048" lon="7.32066">
        <ele>777.84002685547</ele>
        <time>2011-03-20T10:50:07Z</time>
      </trkpt>
      <trkpt lat="43.88047" lon="7.32077">
        <ele>781.69000244141</ele>
        <time>2011-03-20T10:50:16Z</time>
      </trkpt>
      <trkpt lat="43.88048" lon="7.32084">
        <ele>783.60998535156</ele>
        <time>2011-03-20T10:50:22Z</time>
      </trkpt>
      <trkpt lat="43.88048" lon="7.32086">
        <ele>781.21002197266</ele>
        <time>2011-03-20T10:50:24Z</time>
      </trkpt>
      <trkpt lat="43.88047" lon="7.32089">
        <ele>783.60998535156</ele>
        <time>2011-03-20T10:50:26Z</time>
      </trkpt>
      <trkpt lat="43.88043" lon="7.32094">
        <ele>785.04998779297</ele>
        <time>2011-03-20T10:50:31Z</time>
      </trkpt>
      <trkpt lat="43.88042" lon="7.32095">
        <ele>783.60998535156</ele>
        <time>2011-03-20T10:50:33Z</time>
      </trkpt>
      <trkpt lat="43.88042" lon="7.32099">
        <ele>787.46002197266</ele>
        <time>2011-03-20T10:50:36Z</time>
      </trkpt>
      <trkpt lat="43.88042" lon="7.321">
        <ele>786.5</ele>
        <time>2011-03-20T10:50:37Z</time>
      </trkpt>
      <trkpt lat="43.88041" lon="7.32109">
        <ele>783.13000488281</ele>
        <time>2011-03-20T10:50:43Z</time>
      </trkpt>
      <trkpt lat="43.88042" lon="7.32117">
        <ele>791.29998779297</ele>
        <time>2011-03-20T10:50:49Z</time>
      </trkpt>
      <trkpt lat="43.88041" lon="7.32118">
        <ele>790.34002685547</ele>
        <time>2011-03-20T10:50:50Z</time>
      </trkpt>
      <trkpt lat="43.88041" lon="7.32128">
        <ele>787.46002197266</ele>
        <time>2011-03-20T10:50:57Z</time>
      </trkpt>
      <trkpt lat="43.88041" lon="7.32129">
        <ele>790.82000732422</ele>
        <time>2011-03-20T10:50:58Z</time>
      </trkpt>
      <trkpt lat="43.88041" lon="7.32131">
        <ele>787.94000244141</ele>
        <time>2011-03-20T10:51:01Z</time>
      </trkpt>
      <trkpt lat="43.8804" lon="7.32132">
        <ele>790.82000732422</ele>
        <time>2011-03-20T10:51:02Z</time>
      </trkpt>
      <trkpt lat="43.88039" lon="7.32133">
        <ele>794.19000244141</ele>
        <time>2011-03-20T10:51:05Z</time>
      </trkpt>
      <trkpt lat="43.88039" lon="7.32134">
        <ele>790.82000732422</ele>
        <time>2011-03-20T10:51:06Z</time>
      </trkpt>
      <trkpt lat="43.88038" lon="7.32135">
        <ele>795.63000488281</ele>
        <time>2011-03-20T10:51:07Z</time>
      </trkpt>
      <trkpt lat="43.88036" lon="7.32137">
        <ele>793.21997070312</ele>
        <time>2011-03-20T10:51:10Z</time>
      </trkpt>
      <trkpt lat="43.88031" lon="7.32141">
        <ele>794.66998291016</ele>
        <time>2011-03-20T10:51:14Z</time>
      </trkpt>
      <trkpt lat="43.88025" lon="7.32145">
        <ele>792.73999023438</ele>
        <time>2011-03-20T10:51:20Z</time>
      </trkpt>
      <trkpt lat="43.88019" lon="7.32149">
        <ele>796.10998535156</ele>
        <time>2011-03-20T10:51:26Z</time>
      </trkpt>
      <trkpt lat="43.88014" lon="7.32153">
        <ele>796.59002685547</ele>
        <time>2011-03-20T10:51:31Z</time>
      </trkpt>
      <trkpt lat="43.88013" lon="7.32158">
        <ele>797.54998779297</ele>
        <time>2011-03-20T10:51:35Z</time>
      </trkpt>
      <trkpt lat="43.88012" lon="7.32164">
        <ele>800.91998291016</ele>
        <time>2011-03-20T10:51:41Z</time>
      </trkpt>
      <trkpt lat="43.8801" lon="7.32165">
        <ele>800.44000244141</ele>
        <time>2011-03-20T10:51:42Z</time>
      </trkpt>
      <trkpt lat="43.8801" lon="7.32167">
        <ele>799.46997070312</ele>
        <time>2011-03-20T10:51:43Z</time>
      </trkpt>
      <trkpt lat="43.87997" lon="7.32178">
        <ele>798.51000976562</ele>
        <time>2011-03-20T10:51:56Z</time>
      </trkpt>
      <trkpt lat="43.87996" lon="7.3218">
        <ele>798.03002929688</ele>
        <time>2011-03-20T10:51:57Z</time>
      </trkpt>
      <trkpt lat="43.8799" lon="7.32195">
        <ele>798.51000976562</ele>
        <time>2011-03-20T10:52:03Z</time>
      </trkpt>
      <trkpt lat="43.87983" lon="7.32211">
        <ele>798.03002929688</ele>
        <time>2011-03-20T10:52:09Z</time>
      </trkpt>
      <trkpt lat="43.87983" lon="7.3222">
        <ele>799.46997070312</ele>
        <time>2011-03-20T10:52:12Z</time>
      </trkpt>
      <trkpt lat="43.87982" lon="7.32225">
        <ele>799.46997070312</ele>
        <time>2011-03-20T10:52:15Z</time>
      </trkpt>
      <trkpt lat="43.87968" lon="7.32248">
        <ele>798.51000976562</ele>
        <time>2011-03-20T10:52:25Z</time>
      </trkpt>
      <trkpt lat="43.87963" lon="7.32252">
        <ele>798.03002929688</ele>
        <time>2011-03-20T10:52:27Z</time>
      </trkpt>
      <trkpt lat="43.87953" lon="7.3226">
        <ele>798.51000976562</ele>
        <time>2011-03-20T10:52:32Z</time>
      </trkpt>
      <trkpt lat="43.87942" lon="7.32268">
        <ele>797.07000732422</ele>
        <time>2011-03-20T10:52:37Z</time>
      </trkpt>
      <trkpt lat="43.87939" lon="7.3227">
        <ele>796.10998535156</ele>
        <time>2011-03-20T10:52:39Z</time>
      </trkpt>
      <trkpt lat="43.87935" lon="7.32271">
        <ele>795.15002441406</ele>
        <time>2011-03-20T10:52:41Z</time>
      </trkpt>
      <trkpt lat="43.8793" lon="7.3227">
        <ele>794.19000244141</ele>
        <time>2011-03-20T10:52:43Z</time>
      </trkpt>
      <trkpt lat="43.87918" lon="7.32273">
        <ele>793.21997070312</ele>
        <time>2011-03-20T10:52:49Z</time>
      </trkpt>
      <trkpt lat="43.87905" lon="7.32279">
        <ele>789.85998535156</ele>
        <time>2011-03-20T10:52:55Z</time>
      </trkpt>
      <trkpt lat="43.87894" lon="7.32287">
        <ele>787.46002197266</ele>
        <time>2011-03-20T10:53:00Z</time>
      </trkpt>
      <trkpt lat="43.87891" lon="7.3229">
        <ele>787.46002197266</ele>
        <time>2011-03-20T10:53:02Z</time>
      </trkpt>
      <trkpt lat="43.87878" lon="7.323">
        <ele>787.46002197266</ele>
        <time>2011-03-20T10:53:10Z</time>
      </trkpt>
      <trkpt lat="43.87849" lon="7.32313">
        <ele>785.53002929688</ele>
        <time>2011-03-20T10:53:23Z</time>
      </trkpt>
      <trkpt lat="43.87835" lon="7.32327">
        <ele>788.41998291016</ele>
        <time>2011-03-20T10:53:34Z</time>
      </trkpt>
      <trkpt lat="43.87835" lon="7.32328">
        <ele>788.90002441406</ele>
        <time>2011-03-20T10:53:35Z</time>
      </trkpt>
      <trkpt lat="43.87834" lon="7.3233">
        <ele>788.90002441406</ele>
        <time>2011-03-20T10:53:37Z</time>
      </trkpt>
      <trkpt lat="43.87824" lon="7.32337">
        <ele>788.41998291016</ele>
        <time>2011-03-20T10:53:44Z</time>
      </trkpt>
      <trkpt lat="43.87801" lon="7.3235">
        <ele>786.02001953125</ele>
        <time>2011-03-20T10:53:56Z</time>
      </trkpt>
      <trkpt lat="43.87796" lon="7.32351">
        <ele>784.57000732422</ele>
        <time>2011-03-20T10:53:58Z</time>
      </trkpt>
      <trkpt lat="43.87788" lon="7.32349">
        <ele>782.65002441406</ele>
        <time>2011-03-20T10:54:01Z</time>
      </trkpt>
      <trkpt lat="43.87785" lon="7.32349">
        <ele>782.16998291016</ele>
        <time>2011-03-20T10:54:02Z</time>
      </trkpt>
      <trkpt lat="43.87769" lon="7.32345">
        <ele>781.69000244141</ele>
        <time>2011-03-20T10:54:07Z</time>
      </trkpt>
      <trkpt lat="43.87751" lon="7.32336">
        <ele>782.65002441406</ele>
        <time>2011-03-20T10:54:15Z</time>
      </trkpt>
      <trkpt lat="43.87737" lon="7.32336">
        <ele>784.57000732422</ele>
        <time>2011-03-20T10:54:22Z</time>
      </trkpt>
      <trkpt lat="43.87714" lon="7.32339">
        <ele>786.5</ele>
        <time>2011-03-20T10:54:34Z</time>
      </trkpt>
      <trkpt lat="43.87692" lon="7.32334">
        <ele>784.09002685547</ele>
        <time>2011-03-20T10:54:43Z</time>
      </trkpt>
      <trkpt lat="43.87669" lon="7.32323">
        <ele>784.57000732422</ele>
        <time>2011-03-20T10:54:54Z</time>
      </trkpt>
      <trkpt lat="43.87656" lon="7.32318">
        <ele>784.57000732422</ele>
        <time>2011-03-20T10:55:00Z</time>
      </trkpt>
      <trkpt lat="43.87645" lon="7.32318">
        <ele>784.09002685547</ele>
        <time>2011-03-20T10:55:05Z</time>
      </trkpt>
      <trkpt lat="43.87623" lon="7.32315">
        <ele>785.53002929688</ele>
        <time>2011-03-20T10:55:15Z</time>
      </trkpt>
      <trkpt lat="43.87611" lon="7.32309">
        <ele>786.02001953125</ele>
        <time>2011-03-20T10:55:21Z</time>
      </trkpt>
      <trkpt lat="43.87589" lon="7.32325">
        <ele>781.21002197266</ele>
        <time>2011-03-20T10:55:34Z</time>
      </trkpt>
      <trkpt lat="43.87567" lon="7.32345">
        <ele>781.69000244141</ele>
        <time>2011-03-20T10:55:45Z</time>
      </trkpt>
      <trkpt lat="43.8756" lon="7.3235">
        <ele>781.69000244141</ele>
        <time>2011-03-20T10:55:49Z</time>
      </trkpt>
      <trkpt lat="43.87536" lon="7.32353">
        <ele>783.60998535156</ele>
        <time>2011-03-20T10:56:07Z</time>
      </trkpt>
      <trkpt lat="43.87517" lon="7.32362">
        <ele>785.04998779297</ele>
        <time>2011-03-20T10:56:23Z</time>
      </trkpt>
      <trkpt lat="43.87502" lon="7.32369">
        <ele>787.46002197266</ele>
        <time>2011-03-20T10:56:40Z</time>
      </trkpt>
      <trkpt lat="43.87499" lon="7.32368">
        <ele>789.38000488281</ele>
        <time>2011-03-20T10:56:43Z</time>
      </trkpt>
      <trkpt lat="43.87484" lon="7.32359">
        <ele>790.34002685547</ele>
        <time>2011-03-20T10:56:58Z</time>
      </trkpt>
      <trkpt lat="43.87461" lon="7.32354">
        <ele>792.73999023438</ele>
        <time>2011-03-20T10:57:16Z</time>
      </trkpt>
      <trkpt lat="43.87445" lon="7.32353">
        <ele>795.63000488281</ele>
        <time>2011-03-20T10:57:30Z</time>
      </trkpt>
      <trkpt lat="43.8744" lon="7.3236">
        <ele>798.98999023438</ele>
        <time>2011-03-20T10:57:42Z</time>
      </trkpt>
      <trkpt lat="43.87439" lon="7.32371">
        <ele>799.95001220703</ele>
        <time>2011-03-20T10:58:08Z</time>
      </trkpt>
      <trkpt lat="43.87439" lon="7.32373">
        <ele>800.44000244141</ele>
        <time>2011-03-20T10:58:10Z</time>
      </trkpt>
      <trkpt lat="43.87436" lon="7.32381">
        <ele>798.98999023438</ele>
        <time>2011-03-20T10:58:15Z</time>
      </trkpt>
      <trkpt lat="43.87422" lon="7.32424">
        <ele>796.10998535156</ele>
        <time>2011-03-20T10:58:28Z</time>
      </trkpt>
      <trkpt lat="43.87387" lon="7.32453">
        <ele>794.66998291016</ele>
        <time>2011-03-20T10:58:42Z</time>
      </trkpt>
      <trkpt lat="43.87385" lon="7.32456">
        <ele>795.15002441406</ele>
        <time>2011-03-20T10:58:43Z</time>
      </trkpt>
      <trkpt lat="43.87377" lon="7.32471">
        <ele>793.71002197266</ele>
        <time>2011-03-20T10:58:48Z</time>
      </trkpt>
      <trkpt lat="43.87372" lon="7.32484">
        <ele>794.19000244141</ele>
        <time>2011-03-20T10:58:52Z</time>
      </trkpt>
      <trkpt lat="43.87358" lon="7.32528">
        <ele>794.19000244141</ele>
        <time>2011-03-20T10:59:06Z</time>
      </trkpt>
      <trkpt lat="43.87347" lon="7.32568">
        <ele>793.71002197266</ele>
        <time>2011-03-20T10:59:18Z</time>
      </trkpt>
      <trkpt lat="43.87334" lon="7.32602">
        <ele>794.66998291016</ele>
        <time>2011-03-20T10:59:29Z</time>
      </trkpt>
      <trkpt lat="43.87315" lon="7.3264">
        <ele>794.66998291016</ele>
        <time>2011-03-20T10:59:43Z</time>
      </trkpt>
      <trkpt lat="43.87313" lon="7.32643">
        <ele>795.63000488281</ele>
        <time>2011-03-20T10:59:44Z</time>
      </trkpt>
      <trkpt lat="43.87303" lon="7.32687">
        <ele>793.71002197266</ele>
        <time>2011-03-20T10:59:57Z</time>
      </trkpt>
      <trkpt lat="43.87304" lon="7.3269">
        <ele>793.21997070312</ele>
        <time>2011-03-20T10:59:58Z</time>
      </trkpt>
      <trkpt lat="43.87337" lon="7.32707">
        <ele>794.19000244141</ele>
        <time>2011-03-20T11:00:13Z</time>
      </trkpt>
      <trkpt lat="43.8736" lon="7.32709">
        <ele>793.71002197266</ele>
        <time>2011-03-20T11:00:23Z</time>
      </trkpt>
      <trkpt lat="43.87381" lon="7.32716">
        <ele>791.78002929688</ele>
        <time>2011-03-20T11:00:32Z</time>
      </trkpt>
      <trkpt lat="43.87389" lon="7.32723">
        <ele>791.29998779297</ele>
        <time>2011-03-20T11:00:36Z</time>
      </trkpt>
      <trkpt lat="43.874" lon="7.3273">
        <ele>791.29998779297</ele>
        <time>2011-03-20T11:00:41Z</time>
      </trkpt>
      <trkpt lat="43.87409" lon="7.32728">
        <ele>791.78002929688</ele>
        <time>2011-03-20T11:00:45Z</time>
      </trkpt>
      <trkpt lat="43.87412" lon="7.32723">
        <ele>791.29998779297</ele>
        <time>2011-03-20T11:00:47Z</time>
      </trkpt>
      <trkpt lat="43.87416" lon="7.32719">
        <ele>790.82000732422</ele>
        <time>2011-03-20T11:00:49Z</time>
      </trkpt>
      <trkpt lat="43.87429" lon="7.32722">
        <ele>791.29998779297</ele>
        <time>2011-03-20T11:00:56Z</time>
      </trkpt>
      <trkpt lat="43.87436" lon="7.32728">
        <ele>789.85998535156</ele>
        <time>2011-03-20T11:00:59Z</time>
      </trkpt>
      <trkpt lat="43.87447" lon="7.32737">
        <ele>789.85998535156</ele>
        <time>2011-03-20T11:01:04Z</time>
      </trkpt>
      <trkpt lat="43.87464" lon="7.32741">
        <ele>787.46002197266</ele>
        <time>2011-03-20T11:01:11Z</time>
      </trkpt>
      <trkpt lat="43.87476" lon="7.3274">
        <ele>787.94000244141</ele>
        <time>2011-03-20T11:01:17Z</time>
      </trkpt>
      <trkpt lat="43.87486" lon="7.3275">
        <ele>786.02001953125</ele>
        <time>2011-03-20T11:01:23Z</time>
      </trkpt>
      <trkpt lat="43.87489" lon="7.32755">
        <ele>784.57000732422</ele>
        <time>2011-03-20T11:01:25Z</time>
      </trkpt>
      <trkpt lat="43.87495" lon="7.3276">
        <ele>786.5</ele>
        <time>2011-03-20T11:01:29Z</time>
      </trkpt>
      <trkpt lat="43.87509" lon="7.3276">
        <ele>784.57000732422</ele>
        <time>2011-03-20T11:01:38Z</time>
      </trkpt>
      <trkpt lat="43.87514" lon="7.32761">
        <ele>786.5</ele>
        <time>2011-03-20T11:01:43Z</time>
      </trkpt>
      <trkpt lat="43.8752" lon="7.32776">
        <ele>784.57000732422</ele>
        <time>2011-03-20T11:01:53Z</time>
      </trkpt>
      <trkpt lat="43.87523" lon="7.32793">
        <ele>785.04998779297</ele>
        <time>2011-03-20T11:02:00Z</time>
      </trkpt>
      <trkpt lat="43.87519" lon="7.32813">
        <ele>785.53002929688</ele>
        <time>2011-03-20T11:02:07Z</time>
      </trkpt>
      <trkpt lat="43.87518" lon="7.32834">
        <ele>786.02001953125</ele>
        <time>2011-03-20T11:02:13Z</time>
      </trkpt>
      <trkpt lat="43.87522" lon="7.32875">
        <ele>785.53002929688</ele>
        <time>2011-03-20T11:02:28Z</time>
      </trkpt>
      <trkpt lat="43.87524" lon="7.32879">
        <ele>787.94000244141</ele>
        <time>2011-03-20T11:02:30Z</time>
      </trkpt>
      <trkpt lat="43.87526" lon="7.32882">
        <ele>785.04998779297</ele>
        <time>2011-03-20T11:02:32Z</time>
      </trkpt>
      <trkpt lat="43.8753" lon="7.32895">
        <ele>786.02001953125</ele>
        <time>2011-03-20T11:02:39Z</time>
      </trkpt>
      <trkpt lat="43.87531" lon="7.32919">
        <ele>784.57000732422</ele>
        <time>2011-03-20T11:02:54Z</time>
      </trkpt>
      <trkpt lat="43.87532" lon="7.32927">
        <ele>784.57000732422</ele>
        <time>2011-03-20T11:02:58Z</time>
      </trkpt>
      <trkpt lat="43.87536" lon="7.32935">
        <ele>787.46002197266</ele>
        <time>2011-03-20T11:03:06Z</time>
      </trkpt>
      <trkpt lat="43.87536" lon="7.32938">
        <ele>786.5</ele>
        <time>2011-03-20T11:03:09Z</time>
      </trkpt>
      <trkpt lat="43.87539" lon="7.32961">
        <ele>785.53002929688</ele>
        <time>2011-03-20T11:03:20Z</time>
      </trkpt>
      <trkpt lat="43.87541" lon="7.32969">
        <ele>783.60998535156</ele>
        <time>2011-03-20T11:03:23Z</time>
      </trkpt>
      <trkpt lat="43.87548" lon="7.32981">
        <ele>786.5</ele>
        <time>2011-03-20T11:03:28Z</time>
      </trkpt>
      <trkpt lat="43.87551" lon="7.32991">
        <ele>787.94000244141</ele>
        <time>2011-03-20T11:03:35Z</time>
      </trkpt>
      <trkpt lat="43.87555" lon="7.33004">
        <ele>788.90002441406</ele>
        <time>2011-03-20T11:03:44Z</time>
      </trkpt>
      <trkpt lat="43.87555" lon="7.33005">
        <ele>788.90002441406</ele>
        <time>2011-03-20T11:03:45Z</time>
      </trkpt>
      <trkpt lat="43.87556" lon="7.33011">
        <ele>790.34002685547</ele>
        <time>2011-03-20T11:03:49Z</time>
      </trkpt>
      <trkpt lat="43.87564" lon="7.33021">
        <ele>792.26000976562</ele>
        <time>2011-03-20T11:03:59Z</time>
      </trkpt>
      <trkpt lat="43.87566" lon="7.33025">
        <ele>792.26000976562</ele>
        <time>2011-03-20T11:04:02Z</time>
      </trkpt>
      <trkpt lat="43.87566" lon="7.33035">
        <ele>792.73999023438</ele>
        <time>2011-03-20T11:04:09Z</time>
      </trkpt>
      <trkpt lat="43.87566" lon="7.3304">
        <ele>794.19000244141</ele>
        <time>2011-03-20T11:04:13Z</time>
      </trkpt>
      <trkpt lat="43.87568" lon="7.33054">
        <ele>794.66998291016</ele>
        <time>2011-03-20T11:04:22Z</time>
      </trkpt>
      <trkpt lat="43.87573" lon="7.33076">
        <ele>796.10998535156</ele>
        <time>2011-03-20T11:04:36Z</time>
      </trkpt>
      <trkpt lat="43.87589" lon="7.33083">
        <ele>798.51000976562</ele>
        <time>2011-03-20T11:04:51Z</time>
      </trkpt>
      <trkpt lat="43.87598" lon="7.3308">
        <ele>798.98999023438</ele>
        <time>2011-03-20T11:04:58Z</time>
      </trkpt>
      <trkpt lat="43.87616" lon="7.33079">
        <ele>799.46997070312</ele>
        <time>2011-03-20T11:05:15Z</time>
      </trkpt>
      <trkpt lat="43.8763" lon="7.33087">
        <ele>800.44000244141</ele>
        <time>2011-03-20T11:05:28Z</time>
      </trkpt>
      <trkpt lat="43.8764" lon="7.33081">
        <ele>802.84002685547</ele>
        <time>2011-03-20T11:05:38Z</time>
      </trkpt>
      <trkpt lat="43.87654" lon="7.33057">
        <ele>803.32000732422</ele>
        <time>2011-03-20T11:05:57Z</time>
      </trkpt>
      <trkpt lat="43.87658" lon="7.33052">
        <ele>802.84002685547</ele>
        <time>2011-03-20T11:06:03Z</time>
      </trkpt>
      <trkpt lat="43.87662" lon="7.3304">
        <ele>802.84002685547</ele>
        <time>2011-03-20T11:06:11Z</time>
      </trkpt>
      <trkpt lat="43.87685" lon="7.33034">
        <ele>801.40002441406</ele>
        <time>2011-03-20T11:06:24Z</time>
      </trkpt>
      <trkpt lat="43.87693" lon="7.33027">
        <ele>803.32000732422</ele>
        <time>2011-03-20T11:06:29Z</time>
      </trkpt>
      <trkpt lat="43.87717" lon="7.33022">
        <ele>804.76000976562</ele>
        <time>2011-03-20T11:06:43Z</time>
      </trkpt>
      <trkpt lat="43.87735" lon="7.3302">
        <ele>806.67999267578</ele>
        <time>2011-03-20T11:06:56Z</time>
      </trkpt>
      <trkpt lat="43.87737" lon="7.3302">
        <ele>806.20001220703</ele>
        <time>2011-03-20T11:06:57Z</time>
      </trkpt>
      <trkpt lat="43.87742" lon="7.33019">
        <ele>805.71997070312</ele>
        <time>2011-03-20T11:07:01Z</time>
      </trkpt>
      <trkpt lat="43.87751" lon="7.33013">
        <ele>805.71997070312</ele>
        <time>2011-03-20T11:07:08Z</time>
      </trkpt>
      <trkpt lat="43.87753" lon="7.33011">
        <ele>806.67999267578</ele>
        <time>2011-03-20T11:07:10Z</time>
      </trkpt>
      <trkpt lat="43.87759" lon="7.33007">
        <ele>807.15997314453</ele>
        <time>2011-03-20T11:07:15Z</time>
      </trkpt>
      <trkpt lat="43.87764" lon="7.33006">
        <ele>808.60998535156</ele>
        <time>2011-03-20T11:07:20Z</time>
      </trkpt>
      <trkpt lat="43.87773" lon="7.33008">
        <ele>808.60998535156</ele>
        <time>2011-03-20T11:07:26Z</time>
      </trkpt>
      <trkpt lat="43.87783" lon="7.33002">
        <ele>811.48999023438</ele>
        <time>2011-03-20T11:07:32Z</time>
      </trkpt>
      <trkpt lat="43.87788" lon="7.32998">
        <ele>811.48999023438</ele>
        <time>2011-03-20T11:07:38Z</time>
      </trkpt>
      <trkpt lat="43.8779" lon="7.32994">
        <ele>812.92999267578</ele>
        <time>2011-03-20T11:07:42Z</time>
      </trkpt>
      <trkpt lat="43.87791" lon="7.32993">
        <ele>811.96997070312</ele>
        <time>2011-03-20T11:07:44Z</time>
      </trkpt>
      <trkpt lat="43.87809" lon="7.32984">
        <ele>812.92999267578</ele>
        <time>2011-03-20T11:07:59Z</time>
      </trkpt>
      <trkpt lat="43.8781" lon="7.32984">
        <ele>811.96997070312</ele>
        <time>2011-03-20T11:08:01Z</time>
      </trkpt>
      <trkpt lat="43.87831" lon="7.32994">
        <ele>811.48999023438</ele>
        <time>2011-03-20T11:08:12Z</time>
      </trkpt>
      <trkpt lat="43.87844" lon="7.32992">
        <ele>812.45001220703</ele>
        <time>2011-03-20T11:08:18Z</time>
      </trkpt>
      <trkpt lat="43.87854" lon="7.32996">
        <ele>813.40997314453</ele>
        <time>2011-03-20T11:08:30Z</time>
      </trkpt>
      <trkpt lat="43.87857" lon="7.33002">
        <ele>811.96997070312</ele>
        <time>2011-03-20T11:08:33Z</time>
      </trkpt>
      <trkpt lat="43.87868" lon="7.33016">
        <ele>811.48999023438</ele>
        <time>2011-03-20T11:08:40Z</time>
      </trkpt>
      <trkpt lat="43.8788" lon="7.33021">
        <ele>809.57000732422</ele>
        <time>2011-03-20T11:08:46Z</time>
      </trkpt>
      <trkpt lat="43.87899" lon="7.33035">
        <ele>808.13000488281</ele>
        <time>2011-03-20T11:08:56Z</time>
      </trkpt>
      <trkpt lat="43.87901" lon="7.33037">
        <ele>808.60998535156</ele>
        <time>2011-03-20T11:08:57Z</time>
      </trkpt>
      <trkpt lat="43.87917" lon="7.33042">
        <ele>808.13000488281</ele>
        <time>2011-03-20T11:09:03Z</time>
      </trkpt>
      <trkpt lat="43.87931" lon="7.33077">
        <ele>809.57000732422</ele>
        <time>2011-03-20T11:09:15Z</time>
      </trkpt>
      <trkpt lat="43.87953" lon="7.3311">
        <ele>809.57000732422</ele>
        <time>2011-03-20T11:09:30Z</time>
      </trkpt>
      <trkpt lat="43.87972" lon="7.33128">
        <ele>810.04998779297</ele>
        <time>2011-03-20T11:09:40Z</time>
      </trkpt>
      <trkpt lat="43.87988" lon="7.33135">
        <ele>808.13000488281</ele>
        <time>2011-03-20T11:09:46Z</time>
      </trkpt>
      <trkpt lat="43.88" lon="7.33137">
        <ele>804.76000976562</ele>
        <time>2011-03-20T11:09:51Z</time>
      </trkpt>
      <trkpt lat="43.88013" lon="7.33143">
        <ele>801.40002441406</ele>
        <time>2011-03-20T11:09:56Z</time>
      </trkpt>
      <trkpt lat="43.88033" lon="7.33159">
        <ele>800.44000244141</ele>
        <time>2011-03-20T11:10:06Z</time>
      </trkpt>
      <trkpt lat="43.8805" lon="7.33171">
        <ele>800.91998291016</ele>
        <time>2011-03-20T11:10:14Z</time>
      </trkpt>
      <trkpt lat="43.88074" lon="7.33173">
        <ele>801.88000488281</ele>
        <time>2011-03-20T11:10:26Z</time>
      </trkpt>
      <trkpt lat="43.88093" lon="7.33182">
        <ele>803.32000732422</ele>
        <time>2011-03-20T11:10:38Z</time>
      </trkpt>
      <trkpt lat="43.88119" lon="7.33199">
        <ele>803.32000732422</ele>
        <time>2011-03-20T11:10:50Z</time>
      </trkpt>
      <trkpt lat="43.88137" lon="7.33224">
        <ele>802.35998535156</ele>
        <time>2011-03-20T11:11:00Z</time>
      </trkpt>
      <trkpt lat="43.88135" lon="7.33261">
        <ele>805.23999023438</ele>
        <time>2011-03-20T11:11:13Z</time>
      </trkpt>
      <trkpt lat="43.88133" lon="7.33297">
        <ele>804.76000976562</ele>
        <time>2011-03-20T11:11:24Z</time>
      </trkpt>
      <trkpt lat="43.88131" lon="7.33308">
        <ele>803.32000732422</ele>
        <time>2011-03-20T11:11:27Z</time>
      </trkpt>
      <trkpt lat="43.88125" lon="7.33321">
        <ele>801.88000488281</ele>
        <time>2011-03-20T11:11:31Z</time>
      </trkpt>
      <trkpt lat="43.88111" lon="7.33345">
        <ele>798.51000976562</ele>
        <time>2011-03-20T11:11:39Z</time>
      </trkpt>
      <trkpt lat="43.88091" lon="7.33379">
        <ele>797.54998779297</ele>
        <time>2011-03-20T11:11:50Z</time>
      </trkpt>
      <trkpt lat="43.88071" lon="7.33418">
        <ele>798.03002929688</ele>
        <time>2011-03-20T11:12:03Z</time>
      </trkpt>
      <trkpt lat="43.88063" lon="7.33438">
        <ele>798.98999023438</ele>
        <time>2011-03-20T11:12:10Z</time>
      </trkpt>
      <trkpt lat="43.88045" lon="7.33473">
        <ele>800.91998291016</ele>
        <time>2011-03-20T11:12:23Z</time>
      </trkpt>
      <trkpt lat="43.88042" lon="7.33484">
        <ele>801.88000488281</ele>
        <time>2011-03-20T11:12:27Z</time>
      </trkpt>
      <trkpt lat="43.88026" lon="7.33524">
        <ele>801.88000488281</ele>
        <time>2011-03-20T11:12:40Z</time>
      </trkpt>
      <trkpt lat="43.87997" lon="7.33554">
        <ele>800.44000244141</ele>
        <time>2011-03-20T11:12:53Z</time>
      </trkpt>
      <trkpt lat="43.8797" lon="7.33582">
        <ele>798.51000976562</ele>
        <time>2011-03-20T11:13:05Z</time>
      </trkpt>
      <trkpt lat="43.87942" lon="7.33617">
        <ele>796.59002685547</ele>
        <time>2011-03-20T11:13:18Z</time>
      </trkpt>
      <trkpt lat="43.87921" lon="7.33651">
        <ele>793.21997070312</ele>
        <time>2011-03-20T11:13:29Z</time>
      </trkpt>
      <trkpt lat="43.87909" lon="7.3366">
        <ele>791.78002929688</ele>
        <time>2011-03-20T11:13:39Z</time>
      </trkpt>
      <trkpt lat="43.87906" lon="7.33668">
        <ele>793.21997070312</ele>
        <time>2011-03-20T11:14:02Z</time>
      </trkpt>
      <trkpt lat="43.87906" lon="7.33669">
        <ele>791.78002929688</ele>
        <time>2011-03-20T11:14:54Z</time>
      </trkpt>
      <trkpt lat="43.87904" lon="7.33674">
        <ele>791.29998779297</ele>
        <time>2011-03-20T11:14:58Z</time>
      </trkpt>
      <trkpt lat="43.87901" lon="7.33678">
        <ele>790.82000732422</ele>
        <time>2011-03-20T11:15:00Z</time>
      </trkpt>
      <trkpt lat="43.87873" lon="7.3371">
        <ele>786.97998046875</ele>
        <time>2011-03-20T11:15:13Z</time>
      </trkpt>
      <trkpt lat="43.87869" lon="7.33716">
        <ele>786.5</ele>
        <time>2011-03-20T11:15:15Z</time>
      </trkpt>
      <trkpt lat="43.87858" lon="7.33739">
        <ele>783.13000488281</ele>
        <time>2011-03-20T11:15:22Z</time>
      </trkpt>
      <trkpt lat="43.87846" lon="7.33771">
        <ele>779.77001953125</ele>
        <time>2011-03-20T11:15:31Z</time>
      </trkpt>
      <trkpt lat="43.87842" lon="7.33782">
        <ele>778.32000732422</ele>
        <time>2011-03-20T11:15:34Z</time>
      </trkpt>
      <trkpt lat="43.87838" lon="7.33805">
        <ele>775.91998291016</ele>
        <time>2011-03-20T11:15:40Z</time>
      </trkpt>
      <trkpt lat="43.8784" lon="7.33812">
        <ele>774.96002197266</ele>
        <time>2011-03-20T11:15:42Z</time>
      </trkpt>
      <trkpt lat="43.87843" lon="7.33818">
        <ele>773.52001953125</ele>
        <time>2011-03-20T11:15:44Z</time>
      </trkpt>
      <trkpt lat="43.87859" lon="7.33859">
        <ele>770.63000488281</ele>
        <time>2011-03-20T11:15:55Z</time>
      </trkpt>
      <trkpt lat="43.87864" lon="7.33871">
        <ele>769.19000244141</ele>
        <time>2011-03-20T11:15:59Z</time>
      </trkpt>
      <trkpt lat="43.87868" lon="7.3388">
        <ele>767.75</ele>
        <time>2011-03-20T11:16:02Z</time>
      </trkpt>
      <trkpt lat="43.87873" lon="7.3389">
        <ele>764.39001464844</ele>
        <time>2011-03-20T11:16:06Z</time>
      </trkpt>
      <trkpt lat="43.8788" lon="7.33896">
        <ele>761.5</ele>
        <time>2011-03-20T11:16:10Z</time>
      </trkpt>
      <trkpt lat="43.8788" lon="7.33904">
        <ele>760.05999755859</ele>
        <time>2011-03-20T11:16:13Z</time>
      </trkpt>
      <trkpt lat="43.87873" lon="7.33921">
        <ele>756.21002197266</ele>
        <time>2011-03-20T11:16:18Z</time>
      </trkpt>
      <trkpt lat="43.87882" lon="7.33942">
        <ele>752.36999511719</ele>
        <time>2011-03-20T11:16:26Z</time>
      </trkpt>
      <trkpt lat="43.87885" lon="7.33952">
        <ele>750.92999267578</ele>
        <time>2011-03-20T11:16:29Z</time>
      </trkpt>
      <trkpt lat="43.87883" lon="7.33968">
        <ele>749</ele>
        <time>2011-03-20T11:16:33Z</time>
      </trkpt>
      <trkpt lat="43.87883" lon="7.33976">
        <ele>746.59997558594</ele>
        <time>2011-03-20T11:16:36Z</time>
      </trkpt>
      <trkpt lat="43.87886" lon="7.33994">
        <ele>742.28002929688</ele>
        <time>2011-03-20T11:16:43Z</time>
      </trkpt>
      <trkpt lat="43.87886" lon="7.33997">
        <ele>742.28002929688</ele>
        <time>2011-03-20T11:16:44Z</time>
      </trkpt>
      <trkpt lat="43.87886" lon="7.34008">
        <ele>740.34997558594</ele>
        <time>2011-03-20T11:16:48Z</time>
      </trkpt>
      <trkpt lat="43.8789" lon="7.34016">
        <ele>738.42999267578</ele>
        <time>2011-03-20T11:16:52Z</time>
      </trkpt>
      <trkpt lat="43.8789" lon="7.34022">
        <ele>734.58001708984</ele>
        <time>2011-03-20T11:16:54Z</time>
      </trkpt>
      <trkpt lat="43.87889" lon="7.34024">
        <ele>736.03002929688</ele>
        <time>2011-03-20T11:16:55Z</time>
      </trkpt>
      <trkpt lat="43.87894" lon="7.34045">
        <ele>731.21997070312</ele>
        <time>2011-03-20T11:17:01Z</time>
      </trkpt>
      <trkpt lat="43.87895" lon="7.34052">
        <ele>729.29998779297</ele>
        <time>2011-03-20T11:17:03Z</time>
      </trkpt>
      <trkpt lat="43.87901" lon="7.34078">
        <ele>725.45001220703</ele>
        <time>2011-03-20T11:17:10Z</time>
      </trkpt>
      <trkpt lat="43.87899" lon="7.34106">
        <ele>721.60998535156</ele>
        <time>2011-03-20T11:17:17Z</time>
      </trkpt>
      <trkpt lat="43.87885" lon="7.34135">
        <ele>719.20001220703</ele>
        <time>2011-03-20T11:17:26Z</time>
      </trkpt>
      <trkpt lat="43.87881" lon="7.34144">
        <ele>717.28002929688</ele>
        <time>2011-03-20T11:17:29Z</time>
      </trkpt>
      <trkpt lat="43.87881" lon="7.34148">
        <ele>715.84002685547</ele>
        <time>2011-03-20T11:17:30Z</time>
      </trkpt>
      <trkpt lat="43.87878" lon="7.34156">
        <ele>713.44000244141</ele>
        <time>2011-03-20T11:17:34Z</time>
      </trkpt>
      <trkpt lat="43.87868" lon="7.34154">
        <ele>711.03002929688</ele>
        <time>2011-03-20T11:17:41Z</time>
      </trkpt>
      <trkpt lat="43.87871" lon="7.34164">
        <ele>708.15002441406</ele>
        <time>2011-03-20T11:17:44Z</time>
      </trkpt>
      <trkpt lat="43.87876" lon="7.34186">
        <ele>704.78002929688</ele>
        <time>2011-03-20T11:17:50Z</time>
      </trkpt>
      <trkpt lat="43.8788" lon="7.34207">
        <ele>701.41998291016</ele>
        <time>2011-03-20T11:17:56Z</time>
      </trkpt>
      <trkpt lat="43.87883" lon="7.34215">
        <ele>699.02001953125</ele>
        <time>2011-03-20T11:17:59Z</time>
      </trkpt>
      <trkpt lat="43.87893" lon="7.34233">
        <ele>696.13000488281</ele>
        <time>2011-03-20T11:18:06Z</time>
      </trkpt>
      <trkpt lat="43.87888" lon="7.34245">
        <ele>692.77001953125</ele>
        <time>2011-03-20T11:18:10Z</time>
      </trkpt>
      <trkpt lat="43.87887" lon="7.34254">
        <ele>689.88000488281</ele>
        <time>2011-03-20T11:18:14Z</time>
      </trkpt>
      <trkpt lat="43.8789" lon="7.34265">
        <ele>689.40002441406</ele>
        <time>2011-03-20T11:18:18Z</time>
      </trkpt>
      <trkpt lat="43.87893" lon="7.3428">
        <ele>685.55999755859</ele>
        <time>2011-03-20T11:18:23Z</time>
      </trkpt>
      <trkpt lat="43.87894" lon="7.34282">
        <ele>686.03997802734</ele>
        <time>2011-03-20T11:18:24Z</time>
      </trkpt>
      <trkpt lat="43.87897" lon="7.34288">
        <ele>685.08001708984</ele>
        <time>2011-03-20T11:18:26Z</time>
      </trkpt>
      <trkpt lat="43.87899" lon="7.34302">
        <ele>683.63000488281</ele>
        <time>2011-03-20T11:18:31Z</time>
      </trkpt>
      <trkpt lat="43.87897" lon="7.34313">
        <ele>680.27001953125</ele>
        <time>2011-03-20T11:18:35Z</time>
      </trkpt>
      <trkpt lat="43.87885" lon="7.34322">
        <ele>676.41998291016</ele>
        <time>2011-03-20T11:18:42Z</time>
      </trkpt>
      <trkpt lat="43.87881" lon="7.34322">
        <ele>675.94000244141</ele>
        <time>2011-03-20T11:18:44Z</time>
      </trkpt>
      <trkpt lat="43.8787" lon="7.34309">
        <ele>672.58001708984</ele>
        <time>2011-03-20T11:18:50Z</time>
      </trkpt>
      <trkpt lat="43.87865" lon="7.34316">
        <ele>669.21997070312</ele>
        <time>2011-03-20T11:18:57Z</time>
      </trkpt>
      <trkpt lat="43.87865" lon="7.34319">
        <ele>669.21997070312</ele>
        <time>2011-03-20T11:18:58Z</time>
      </trkpt>
      <trkpt lat="43.87864" lon="7.34327">
        <ele>667.77001953125</ele>
        <time>2011-03-20T11:19:02Z</time>
      </trkpt>
      <trkpt lat="43.87861" lon="7.34327">
        <ele>666.33001708984</ele>
        <time>2011-03-20T11:19:05Z</time>
      </trkpt>
      <trkpt lat="43.87855" lon="7.34314">
        <ele>663.45001220703</ele>
        <time>2011-03-20T11:19:10Z</time>
      </trkpt>
      <trkpt lat="43.87854" lon="7.34311">
        <ele>663.45001220703</ele>
        <time>2011-03-20T11:19:11Z</time>
      </trkpt>
      <trkpt lat="43.87849" lon="7.34317">
        <ele>661.03997802734</ele>
        <time>2011-03-20T11:19:18Z</time>
      </trkpt>
      <trkpt lat="43.87848" lon="7.34316">
        <ele>660.08001708984</ele>
        <time>2011-03-20T11:19:20Z</time>
      </trkpt>
      <trkpt lat="43.87839" lon="7.34321">
        <ele>656.71997070312</ele>
        <time>2011-03-20T11:19:28Z</time>
      </trkpt>
      <trkpt lat="43.87837" lon="7.3433">
        <ele>654.79998779297</ele>
        <time>2011-03-20T11:19:32Z</time>
      </trkpt>
      <trkpt lat="43.87838" lon="7.34342">
        <ele>653.83001708984</ele>
        <time>2011-03-20T11:19:40Z</time>
      </trkpt>
      <trkpt lat="43.87839" lon="7.34348">
        <ele>651.42999267578</ele>
        <time>2011-03-20T11:19:44Z</time>
      </trkpt>
      <trkpt lat="43.87833" lon="7.34367">
        <ele>649.03002929688</ele>
        <time>2011-03-20T11:19:51Z</time>
      </trkpt>
      <trkpt lat="43.87831" lon="7.3438">
        <ele>649.03002929688</ele>
        <time>2011-03-20T11:19:55Z</time>
      </trkpt>
      <trkpt lat="43.87838" lon="7.34396">
        <ele>648.07000732422</ele>
        <time>2011-03-20T11:20:01Z</time>
      </trkpt>
      <trkpt lat="43.87846" lon="7.34407">
        <ele>648.07000732422</ele>
        <time>2011-03-20T11:20:05Z</time>
      </trkpt>
      <trkpt lat="43.87866" lon="7.34437">
        <ele>646.61999511719</ele>
        <time>2011-03-20T11:20:16Z</time>
      </trkpt>
      <trkpt lat="43.87868" lon="7.3445">
        <ele>646.61999511719</ele>
        <time>2011-03-20T11:20:20Z</time>
      </trkpt>
      <trkpt lat="43.87868" lon="7.3446">
        <ele>644.21997070312</ele>
        <time>2011-03-20T11:20:24Z</time>
      </trkpt>
      <trkpt lat="43.8787" lon="7.34482">
        <ele>641.82000732422</ele>
        <time>2011-03-20T11:20:33Z</time>
      </trkpt>
      <trkpt lat="43.87872" lon="7.34512">
        <ele>638.92999267578</ele>
        <time>2011-03-20T11:20:42Z</time>
      </trkpt>
      <trkpt lat="43.87851" lon="7.34548">
        <ele>637.96997070312</ele>
        <time>2011-03-20T11:20:54Z</time>
      </trkpt>
      <trkpt lat="43.87845" lon="7.34555">
        <ele>636.53002929688</ele>
        <time>2011-03-20T11:20:57Z</time>
      </trkpt>
      <trkpt lat="43.87838" lon="7.3457">
        <ele>634.13000488281</ele>
        <time>2011-03-20T11:21:02Z</time>
      </trkpt>
      <trkpt lat="43.8783" lon="7.3458">
        <ele>632.20001220703</ele>
        <time>2011-03-20T11:21:06Z</time>
      </trkpt>
      <trkpt lat="43.87827" lon="7.34585">
        <ele>631.23999023438</ele>
        <time>2011-03-20T11:21:08Z</time>
      </trkpt>
      <trkpt lat="43.87822" lon="7.34592">
        <ele>629.32000732422</ele>
        <time>2011-03-20T11:21:11Z</time>
      </trkpt>
      <trkpt lat="43.87813" lon="7.346">
        <ele>625.96002197266</ele>
        <time>2011-03-20T11:21:17Z</time>
      </trkpt>
      <trkpt lat="43.87814" lon="7.34604">
        <ele>624.98999023438</ele>
        <time>2011-03-20T11:21:20Z</time>
      </trkpt>
      <trkpt lat="43.87813" lon="7.34609">
        <ele>623.54998779297</ele>
        <time>2011-03-20T11:21:22Z</time>
      </trkpt>
      <trkpt lat="43.87804" lon="7.34618">
        <ele>621.63000488281</ele>
        <time>2011-03-20T11:21:26Z</time>
      </trkpt>
      <trkpt lat="43.87787" lon="7.3464">
        <ele>617.78002929688</ele>
        <time>2011-03-20T11:21:35Z</time>
      </trkpt>
      <trkpt lat="43.8778" lon="7.34651">
        <ele>614.90002441406</ele>
        <time>2011-03-20T11:21:39Z</time>
      </trkpt>
      <trkpt lat="43.87777" lon="7.34655">
        <ele>613.46002197266</ele>
        <time>2011-03-20T11:21:41Z</time>
      </trkpt>
      <trkpt lat="43.87768" lon="7.34656">
        <ele>611.05999755859</ele>
        <time>2011-03-20T11:21:46Z</time>
      </trkpt>
      <trkpt lat="43.87772" lon="7.34659">
        <ele>609.13000488281</ele>
        <time>2011-03-20T11:21:49Z</time>
      </trkpt>
      <trkpt lat="43.87776" lon="7.34664">
        <ele>607.69000244141</ele>
        <time>2011-03-20T11:21:52Z</time>
      </trkpt>
      <trkpt lat="43.87774" lon="7.34675">
        <ele>604.80999755859</ele>
        <time>2011-03-20T11:21:56Z</time>
      </trkpt>
      <trkpt lat="43.87766" lon="7.34682">
        <ele>602.40002441406</ele>
        <time>2011-03-20T11:22:00Z</time>
      </trkpt>
      <trkpt lat="43.87759" lon="7.34696">
        <ele>599.03997802734</ele>
        <time>2011-03-20T11:22:06Z</time>
      </trkpt>
      <trkpt lat="43.87759" lon="7.34699">
        <ele>599.52001953125</ele>
        <time>2011-03-20T11:22:07Z</time>
      </trkpt>
      <trkpt lat="43.87756" lon="7.34709">
        <ele>598.08001708984</ele>
        <time>2011-03-20T11:22:11Z</time>
      </trkpt>
      <trkpt lat="43.87752" lon="7.3472">
        <ele>595.66998291016</ele>
        <time>2011-03-20T11:22:15Z</time>
      </trkpt>
      <trkpt lat="43.87748" lon="7.34725">
        <ele>593.75</ele>
        <time>2011-03-20T11:22:17Z</time>
      </trkpt>
      <trkpt lat="43.8774" lon="7.34726">
        <ele>592.78997802734</ele>
        <time>2011-03-20T11:22:20Z</time>
      </trkpt>
      <trkpt lat="43.87731" lon="7.34731">
        <ele>590.39001464844</ele>
        <time>2011-03-20T11:22:26Z</time>
      </trkpt>
      <trkpt lat="43.8773" lon="7.34737">
        <ele>589.42999267578</ele>
        <time>2011-03-20T11:22:28Z</time>
      </trkpt>
      <trkpt lat="43.87723" lon="7.34749">
        <ele>586.53997802734</ele>
        <time>2011-03-20T11:22:33Z</time>
      </trkpt>
      <trkpt lat="43.87717" lon="7.34754">
        <ele>585.58001708984</ele>
        <time>2011-03-20T11:22:37Z</time>
      </trkpt>
      <trkpt lat="43.87718" lon="7.34755">
        <ele>584.61999511719</ele>
        <time>2011-03-20T11:22:39Z</time>
      </trkpt>
      <trkpt lat="43.87719" lon="7.34758">
        <ele>583.17999267578</ele>
        <time>2011-03-20T11:22:43Z</time>
      </trkpt>
      <trkpt lat="43.87719" lon="7.3476">
        <ele>582.70001220703</ele>
        <time>2011-03-20T11:22:45Z</time>
      </trkpt>
      <trkpt lat="43.87719" lon="7.34767">
        <ele>580.28997802734</ele>
        <time>2011-03-20T11:22:49Z</time>
      </trkpt>
      <trkpt lat="43.87719" lon="7.34778">
        <ele>578.36999511719</ele>
        <time>2011-03-20T11:22:53Z</time>
      </trkpt>
      <trkpt lat="43.87722" lon="7.34783">
        <ele>578.36999511719</ele>
        <time>2011-03-20T11:22:55Z</time>
      </trkpt>
      <trkpt lat="43.8772" lon="7.34801">
        <ele>578.36999511719</ele>
        <time>2011-03-20T11:23:02Z</time>
      </trkpt>
      <trkpt lat="43.87698" lon="7.34823">
        <ele>580.77001953125</ele>
        <time>2011-03-20T11:23:16Z</time>
      </trkpt>
      <trkpt lat="43.87681" lon="7.34832">
        <ele>584.14001464844</ele>
        <time>2011-03-20T11:23:28Z</time>
      </trkpt>
      <trkpt lat="43.87674" lon="7.34836">
        <ele>585.58001708984</ele>
        <time>2011-03-20T11:23:35Z</time>
      </trkpt>
      <trkpt lat="43.87666" lon="7.34846">
        <ele>588.46002197266</ele>
        <time>2011-03-20T11:23:47Z</time>
      </trkpt>
      <trkpt lat="43.87655" lon="7.34859">
        <ele>591.83001708984</ele>
        <time>2011-03-20T11:24:01Z</time>
      </trkpt>
      <trkpt lat="43.87654" lon="7.3486">
        <ele>591.34997558594</ele>
        <time>2011-03-20T11:24:02Z</time>
      </trkpt>
      <trkpt lat="43.8765" lon="7.34867">
        <ele>592.78997802734</ele>
        <time>2011-03-20T11:24:08Z</time>
      </trkpt>
      <trkpt lat="43.87649" lon="7.34869">
        <ele>593.75</ele>
        <time>2011-03-20T11:24:10Z</time>
      </trkpt>
      <trkpt lat="43.87645" lon="7.34894">
        <ele>596.64001464844</ele>
        <time>2011-03-20T11:24:27Z</time>
      </trkpt>
      <trkpt lat="43.87638" lon="7.34915">
        <ele>598.55999755859</ele>
        <time>2011-03-20T11:24:41Z</time>
      </trkpt>
      <trkpt lat="43.87621" lon="7.34935">
        <ele>600.47998046875</ele>
        <time>2011-03-20T11:24:58Z</time>
      </trkpt>
      <trkpt lat="43.87613" lon="7.34949">
        <ele>603.84997558594</ele>
        <time>2011-03-20T11:25:10Z</time>
      </trkpt>
      <trkpt lat="43.876" lon="7.34961">
        <ele>607.21002197266</ele>
        <time>2011-03-20T11:25:26Z</time>
      </trkpt>
      <trkpt lat="43.87598" lon="7.34962">
        <ele>607.69000244141</ele>
        <time>2011-03-20T11:25:28Z</time>
      </trkpt>
      <trkpt lat="43.8758" lon="7.34981">
        <ele>611.05999755859</ele>
        <time>2011-03-20T11:25:47Z</time>
      </trkpt>
      <trkpt lat="43.87579" lon="7.34982">
        <ele>611.53997802734</ele>
        <time>2011-03-20T11:25:48Z</time>
      </trkpt>
      <trkpt lat="43.87568" lon="7.34995">
        <ele>614.90002441406</ele>
        <time>2011-03-20T11:26:01Z</time>
      </trkpt>
      <trkpt lat="43.87565" lon="7.34998">
        <ele>614.90002441406</ele>
        <time>2011-03-20T11:26:04Z</time>
      </trkpt>
      <trkpt lat="43.87561" lon="7.35003">
        <ele>615.38000488281</ele>
        <time>2011-03-20T11:26:08Z</time>
      </trkpt>
      <trkpt lat="43.87558" lon="7.35006">
        <ele>616.82000732422</ele>
        <time>2011-03-20T11:26:10Z</time>
      </trkpt>
      <trkpt lat="43.87552" lon="7.35012">
        <ele>616.34002685547</ele>
        <time>2011-03-20T11:26:14Z</time>
      </trkpt>
      <trkpt lat="43.87533" lon="7.35032">
        <ele>618.75</ele>
        <time>2011-03-20T11:26:28Z</time>
      </trkpt>
      <trkpt lat="43.87533" lon="7.35033">
        <ele>619.22998046875</ele>
        <time>2011-03-20T11:26:30Z</time>
      </trkpt>
      <trkpt lat="43.87544" lon="7.35038">
        <ele>622.10998535156</ele>
        <time>2011-03-20T11:26:43Z</time>
      </trkpt>
      <trkpt lat="43.87546" lon="7.35038">
        <ele>622.10998535156</ele>
        <time>2011-03-20T11:26:45Z</time>
      </trkpt>
      <trkpt lat="43.87552" lon="7.35031">
        <ele>624.03002929688</ele>
        <time>2011-03-20T11:26:54Z</time>
      </trkpt>
      <trkpt lat="43.87567" lon="7.35025">
        <ele>627.88000488281</ele>
        <time>2011-03-20T11:27:10Z</time>
      </trkpt>
      <trkpt lat="43.87573" lon="7.35023">
        <ele>628.84002685547</ele>
        <time>2011-03-20T11:27:17Z</time>
      </trkpt>
      <trkpt lat="43.87576" lon="7.35033">
        <ele>632.20001220703</ele>
        <time>2011-03-20T11:27:30Z</time>
      </trkpt>
      <trkpt lat="43.87583" lon="7.35029">
        <ele>634.13000488281</ele>
        <time>2011-03-20T11:27:37Z</time>
      </trkpt>
      <trkpt lat="43.87587" lon="7.3504">
        <ele>637.48999023438</ele>
        <time>2011-03-20T11:27:49Z</time>
      </trkpt>
      <trkpt lat="43.87588" lon="7.35041">
        <ele>637.01000976562</ele>
        <time>2011-03-20T11:27:51Z</time>
      </trkpt>
      <trkpt lat="43.87591" lon="7.35038">
        <ele>638.45001220703</ele>
        <time>2011-03-20T11:27:54Z</time>
      </trkpt>
      <trkpt lat="43.87606" lon="7.35027">
        <ele>641.82000732422</ele>
        <time>2011-03-20T11:28:11Z</time>
      </trkpt>
      <trkpt lat="43.87613" lon="7.35026">
        <ele>643.73999023438</ele>
        <time>2011-03-20T11:28:19Z</time>
      </trkpt>
      <trkpt lat="43.87609" lon="7.35037">
        <ele>646.14001464844</ele>
        <time>2011-03-20T11:28:30Z</time>
      </trkpt>
      <trkpt lat="43.87615" lon="7.35035">
        <ele>647.59002685547</ele>
        <time>2011-03-20T11:28:38Z</time>
      </trkpt>
      <trkpt lat="43.87615" lon="7.35045">
        <ele>650.46997070312</ele>
        <time>2011-03-20T11:28:50Z</time>
      </trkpt>
      <trkpt lat="43.87621" lon="7.35049">
        <ele>653.83001708984</ele>
        <time>2011-03-20T11:29:01Z</time>
      </trkpt>
      <trkpt lat="43.87631" lon="7.35052">
        <ele>656.23999023438</ele>
        <time>2011-03-20T11:29:16Z</time>
      </trkpt>
      <trkpt lat="43.8763" lon="7.35055">
        <ele>656.71997070312</ele>
        <time>2011-03-20T11:29:18Z</time>
      </trkpt>
      <trkpt lat="43.87644" lon="7.3508">
        <ele>656.23999023438</ele>
        <time>2011-03-20T11:29:32Z</time>
      </trkpt>
      <trkpt lat="43.8768" lon="7.35099">
        <ele>656.23999023438</ele>
        <time>2011-03-20T11:29:46Z</time>
      </trkpt>
      <trkpt lat="43.87705" lon="7.35106">
        <ele>656.71997070312</ele>
        <time>2011-03-20T11:29:56Z</time>
      </trkpt>
      <trkpt lat="43.87735" lon="7.35121">
        <ele>657.20001220703</ele>
        <time>2011-03-20T11:30:09Z</time>
      </trkpt>
      <trkpt lat="43.87769" lon="7.35147">
        <ele>657.20001220703</ele>
        <time>2011-03-20T11:30:24Z</time>
      </trkpt>
      <trkpt lat="43.87799" lon="7.35159">
        <ele>656.71997070312</ele>
        <time>2011-03-20T11:30:36Z</time>
      </trkpt>
      <trkpt lat="43.87834" lon="7.35155">
        <ele>657.67999267578</ele>
        <time>2011-03-20T11:30:49Z</time>
      </trkpt>
      <trkpt lat="43.87863" lon="7.35156">
        <ele>659.11999511719</ele>
        <time>2011-03-20T11:31:00Z</time>
      </trkpt>
      <trkpt lat="43.87876" lon="7.35161">
        <ele>659.11999511719</ele>
        <time>2011-03-20T11:31:05Z</time>
      </trkpt>
      <trkpt lat="43.87891" lon="7.35192">
        <ele>660.08001708984</ele>
        <time>2011-03-20T11:31:16Z</time>
      </trkpt>
      <trkpt lat="43.87895" lon="7.35203">
        <ele>659.59997558594</ele>
        <time>2011-03-20T11:31:20Z</time>
      </trkpt>
      <trkpt lat="43.87923" lon="7.35229">
        <ele>659.11999511719</ele>
        <time>2011-03-20T11:31:33Z</time>
      </trkpt>
      <trkpt lat="43.87947" lon="7.35243">
        <ele>659.11999511719</ele>
        <time>2011-03-20T11:31:42Z</time>
      </trkpt>
      <trkpt lat="43.87958" lon="7.35261">
        <ele>660.55999755859</ele>
        <time>2011-03-20T11:31:49Z</time>
      </trkpt>
      <trkpt lat="43.87961" lon="7.35292">
        <ele>660.08001708984</ele>
        <time>2011-03-20T11:31:58Z</time>
      </trkpt>
      <trkpt lat="43.87988" lon="7.3532">
        <ele>663.45001220703</ele>
        <time>2011-03-20T11:32:13Z</time>
      </trkpt>
      <trkpt lat="43.88011" lon="7.3534">
        <ele>665.84997558594</ele>
        <time>2011-03-20T11:32:25Z</time>
      </trkpt>
      <trkpt lat="43.88035" lon="7.35355">
        <ele>665.84997558594</ele>
        <time>2011-03-20T11:32:36Z</time>
      </trkpt>
      <trkpt lat="43.88066" lon="7.35353">
        <ele>666.80999755859</ele>
        <time>2011-03-20T11:32:46Z</time>
      </trkpt>
      <trkpt lat="43.88102" lon="7.35342">
        <ele>665.84997558594</ele>
        <time>2011-03-20T11:32:59Z</time>
      </trkpt>
      <trkpt lat="43.88135" lon="7.35328">
        <ele>665.84997558594</ele>
        <time>2011-03-20T11:33:11Z</time>
      </trkpt>
      <trkpt lat="43.88171" lon="7.3532">
        <ele>662.48999023438</ele>
        <time>2011-03-20T11:33:23Z</time>
      </trkpt>
      <trkpt lat="43.88177" lon="7.3532">
        <ele>662.01000976562</ele>
        <time>2011-03-20T11:33:25Z</time>
      </trkpt>
      <trkpt lat="43.88183" lon="7.35321">
        <ele>661.03997802734</ele>
        <time>2011-03-20T11:33:27Z</time>
      </trkpt>
      <trkpt lat="43.88205" lon="7.3532">
        <ele>657.67999267578</ele>
        <time>2011-03-20T11:33:35Z</time>
      </trkpt>
      <trkpt lat="43.88208" lon="7.35318">
        <ele>657.20001220703</ele>
        <time>2011-03-20T11:33:36Z</time>
      </trkpt>
      <trkpt lat="43.88222" lon="7.35308">
        <ele>655.28002929688</ele>
        <time>2011-03-20T11:33:41Z</time>
      </trkpt>
      <trkpt lat="43.88232" lon="7.35313">
        <ele>654.79998779297</ele>
        <time>2011-03-20T11:33:45Z</time>
      </trkpt>
      <trkpt lat="43.88235" lon="7.35334">
        <ele>654.79998779297</ele>
        <time>2011-03-20T11:33:50Z</time>
      </trkpt>
      <trkpt lat="43.88227" lon="7.35363">
        <ele>654.30999755859</ele>
        <time>2011-03-20T11:33:58Z</time>
      </trkpt>
      <trkpt lat="43.88202" lon="7.35402">
        <ele>653.34997558594</ele>
        <time>2011-03-20T11:34:11Z</time>
      </trkpt>
      <trkpt lat="43.88186" lon="7.35412">
        <ele>649.98999023438</ele>
        <time>2011-03-20T11:34:17Z</time>
      </trkpt>
      <trkpt lat="43.88182" lon="7.35411">
        <ele>649.98999023438</ele>
        <time>2011-03-20T11:34:18Z</time>
      </trkpt>
      <trkpt lat="43.88162" lon="7.35419">
        <ele>646.61999511719</ele>
        <time>2011-03-20T11:34:25Z</time>
      </trkpt>
      <trkpt lat="43.8816" lon="7.35422">
        <ele>646.61999511719</ele>
        <time>2011-03-20T11:34:26Z</time>
      </trkpt>
      <trkpt lat="43.88157" lon="7.35429">
        <ele>644.70001220703</ele>
        <time>2011-03-20T11:34:28Z</time>
      </trkpt>
      <trkpt lat="43.88146" lon="7.35454">
        <ele>641.34002685547</ele>
        <time>2011-03-20T11:34:34Z</time>
      </trkpt>
      <trkpt lat="43.88127" lon="7.35503">
        <ele>638.92999267578</ele>
        <time>2011-03-20T11:34:46Z</time>
      </trkpt>
      <trkpt lat="43.88108" lon="7.35532">
        <ele>635.57000732422</ele>
        <time>2011-03-20T11:34:55Z</time>
      </trkpt>
      <trkpt lat="43.88105" lon="7.35534">
        <ele>635.57000732422</ele>
        <time>2011-03-20T11:34:56Z</time>
      </trkpt>
      <trkpt lat="43.88094" lon="7.35543">
        <ele>633.16998291016</ele>
        <time>2011-03-20T11:35:00Z</time>
      </trkpt>
      <trkpt lat="43.88087" lon="7.35556">
        <ele>629.79998779297</ele>
        <time>2011-03-20T11:35:05Z</time>
      </trkpt>
      <trkpt lat="43.88091" lon="7.35559">
        <ele>628.35998535156</ele>
        <time>2011-03-20T11:35:07Z</time>
      </trkpt>
      <trkpt lat="43.88104" lon="7.35568">
        <ele>623.54998779297</ele>
        <time>2011-03-20T11:35:13Z</time>
      </trkpt>
      <trkpt lat="43.88087" lon="7.35614">
        <ele>622.59002685547</ele>
        <time>2011-03-20T11:35:24Z</time>
      </trkpt>
      <trkpt lat="43.88068" lon="7.35628">
        <ele>623.07000732422</ele>
        <time>2011-03-20T11:35:32Z</time>
      </trkpt>
      <trkpt lat="43.88065" lon="7.35634">
        <ele>624.03002929688</ele>
        <time>2011-03-20T11:35:35Z</time>
      </trkpt>
      <trkpt lat="43.88075" lon="7.35631">
        <ele>627.88000488281</ele>
        <time>2011-03-20T11:35:45Z</time>
      </trkpt>
      <trkpt lat="43.88091" lon="7.35626">
        <ele>630.76000976562</ele>
        <time>2011-03-20T11:36:00Z</time>
      </trkpt>
      <trkpt lat="43.88095" lon="7.35634">
        <ele>633.65002441406</ele>
        <time>2011-03-20T11:36:09Z</time>
      </trkpt>
      <trkpt lat="43.88095" lon="7.35635">
        <ele>634.13000488281</ele>
        <time>2011-03-20T11:36:10Z</time>
      </trkpt>
      <trkpt lat="43.88098" lon="7.35648">
        <ele>636.53002929688</ele>
        <time>2011-03-20T11:36:20Z</time>
      </trkpt>
      <trkpt lat="43.88103" lon="7.3567">
        <ele>639.40997314453</ele>
        <time>2011-03-20T11:36:33Z</time>
      </trkpt>
      <trkpt lat="43.88116" lon="7.35701">
        <ele>640.38000488281</ele>
        <time>2011-03-20T11:36:45Z</time>
      </trkpt>
      <trkpt lat="43.88136" lon="7.35744">
        <ele>642.29998779297</ele>
        <time>2011-03-20T11:36:59Z</time>
      </trkpt>
      <trkpt lat="43.88155" lon="7.3577">
        <ele>642.78002929688</ele>
        <time>2011-03-20T11:37:09Z</time>
      </trkpt>
      <trkpt lat="43.88178" lon="7.35787">
        <ele>645.17999267578</ele>
        <time>2011-03-20T11:37:20Z</time>
      </trkpt>
      <trkpt lat="43.88206" lon="7.35825">
        <ele>647.59002685547</ele>
        <time>2011-03-20T11:37:35Z</time>
      </trkpt>
      <trkpt lat="43.88231" lon="7.35853">
        <ele>648.54998779297</ele>
        <time>2011-03-20T11:37:47Z</time>
      </trkpt>
      <trkpt lat="43.88242" lon="7.35872">
        <ele>650.46997070312</ele>
        <time>2011-03-20T11:37:54Z</time>
      </trkpt>
      <trkpt lat="43.88258" lon="7.35908">
        <ele>651.90997314453</ele>
        <time>2011-03-20T11:38:06Z</time>
      </trkpt>
      <trkpt lat="43.88268" lon="7.35919">
        <ele>653.83001708984</ele>
        <time>2011-03-20T11:38:11Z</time>
      </trkpt>
      <trkpt lat="43.88271" lon="7.35909">
        <ele>653.83001708984</ele>
        <time>2011-03-20T11:38:17Z</time>
      </trkpt>
    </trkseg>
  </trk>
</gpx>